GFSGBSN_con_3kmhel_000.txt.gz
Helicity
18 22 35 14 3 41 53 60 54 39 34 27 14 11 9 40 52 66 76 67 60 52 54 51 71 122 167 216 201 112 74 111 123 90 65 89 150 157 147 108 87 76 63 48 44 45 38
32 25 25 25 32 31 36 60 73 52 39 34 12 17 22 29 10 42 54 45 35 30 14 25 50 88 134 169 107 120 126 140 80 43 89 81 172 98 154 105 77 58 66 38 44 43 41
32 34 30 28 34 43 31 47 70 61 41 37 15 28 61 65 40 26 43 37 21 6 6 19 41 59 114 96 105 108 113 117 88 36 28 45 56 177 122 107 76 69 49 27 58 42 42
30 31 35 29 34 39 34 49 65 66 45 31 22 17 59 73 62 49 58 32 6 2 16 42 66 74 155 87 49 94 117 90 61 84 47 57 82 158 189 127 53 78 67 43 33 20 42
30 35 42 39 29 31 39 54 52 59 60 37 24 19 47 58 85 62 63 39 4 4 33 71 103 132 138 120 88 49 47 74 88 85 67 94 93 114 140 176 140 93 82 42 77 23 49
28 50 40 39 34 38 38 41 59 53 77 47 33 22 48 77 109 114 85 54 9 79 91 116 132 143 139 81 65 57 46 45 84 91 95 102 107 134 160 190 152 134 103 68 48 54 53
28 54 48 33 38 34 40 49 63 59 72 59 41 29 46 73 133 131 98 110 223 228 226 269 148 250 159 38 42 35 79 80 93 110 99 75 162 97 81 144 117 89 50 27 53 82 122
29 35 62 38 30 34 34 51 56 53 59 55 46 27 47 47 106 103 112 222 222 229 270 146 238 93 144 117 82 46 55 93 84 37 78 93 81 122 53 97 167 73 84 35 50 67 89
32 32 45 48 30 28 28 41 50 50 47 51 49 37 45 68 104 132 130 113 120 277 167 148 170 163 110 53 65 38 54 26 36 -2 97 102 44 118 102 151 83 105 83 61 97 96 88
38 34 43 50 37 27 26 33 44 49 45 60 56 40 53 119 100 130 146 284 245 283 125 135 211 123 47 67 12 38 34 41 47 -63 63 79 106 75 99 111 86 97 147 108 101 125 86
41 39 43 56 50 29 21 30 38 39 40 61 64 58 75 112 134 148 186 240 284 129 270 130 177 58 48 95 27 33 26 38 41 -72 70 83 95 143 79 73 37 110 86 84 100 121 82
20 37 32 44 50 30 25 31 42 34 27 55 60 78 81 103 83 114 193 124 167 190 376 164 122 136 101 17 21 76 59 62 77 -84 34 64 27 139 108 42 50 69 97 138 110 92 51
27 31 31 28 45 39 31 37 35 37 30 50 64 81 116 102 95 221 309 210 216 259 288 162 153 120 99 30 22 16 18 34 64 21 -7 24 213 161 97 131 175 100 113 163 107 92 78
130 22 27 24 45 48 30 30 29 35 37 44 68 84 100 92 80 177 393 254 281 182 309 168 80 94 65 43 23 19 33 42 -9 225 -7 75 155 143 173 95 169 139 113 196 142 112 58
287 49 21 36 51 39 26 30 32 52 44 48 98 97 117 98 118 207 379 297 248 188 188 202 47 24 34 8 22 38 59 2 -19 256 -87 83 293 69 150 218 139 192 151 136 133 117 114
294 176 47 20 27 35 26 26 31 47 49 68 72 70 78 83 118 389 312 215 139 147 55 105 15 -8 21 24 23 51 23 -61 -14 115 131 -23 210 117 195 178 235 103 114 142 122 81 86
325 295 90 33 26 26 9 25 31 44 54 72 60 72 82 98 157 368 332 129 101 123 37 31 -5 -10 10 26 50 61 4 -47 7 104 119 113 239 307 85 119 120 173 171 150 110 97 72
150 281 166 57 29 19 3 26 31 45 77 66 77 82 107 179 206 252 322 119 14 27 9 13 -17 -6 23 -7 17 84 22 69 27 107 122 145 126 189 233 159 88 56 68 84 108 73 129
-13 339 281 73 33 13 7 22 37 55 76 82 68 82 121 160 128 182 212 116 5 36 0 30 19 -5 26 26 60 74 -25 69 3 52 158 120 141 191 167 163 191 134 103 42 72 127 53
-16 273 306 132 37 14 6 21 37 40 50 74 79 98 113 148 100 81 138 49 -14 -16 -23 17 11 -10 34 18 70 72 27 20 41 39 109 172 101 87 100 100 115 93 68 57 64 72 68
53 32 339 249 49 13 4 20 33 43 60 81 73 68 86 80 80 85 55 94 9 -26 -91 -85 16 17 10 8 38 65 58 -10 64 29 14 112 124 81 107 84 21 49 81 92 67 74 67
159 12 281 237 202 14 0 20 31 46 74 84 67 82 62 44 5 22 72 202 36 79 -28 -40 -7 14 2 24 38 10 55 33 51 -6 -69 92 120 101 84 85 40 58 73 79 65 42 20
160 -13 331 224 188 23 8 18 30 50 123 82 46 52 50 26 10 23 22 159 125 -22 -59 -65 -34 27 22 38 41 17 44 51 30 86 -36 59 81 96 97 94 89 81 60 61 60 58 57
113 -33 225 296 204 28 14 18 33 50 92 75 59 70 41 23 0 27 10 99 71 47 -84 -44 -22 34 49 -5 44 82 86 86 66 88 48 44 72 95 100 118 85 80 106 46 48 59 48
111 -25 222 291 260 25 23 16 26 35 65 67 50 51 41 25 8 22 52 49 22 17 -26 51 84 106 57 105 157 142 106 114 138 178 140 96 115 78 32 55 85 41 35 61 86 38 62
52 64 120 334 236 75 14 4 18 32 30 82 51 64 35 32 18 34 110 14 3 -3 21 49 126 201 155 157 183 167 141 94 96 125 171 149 145 114 179 63 57 57 37 36 44 47 46
69 37 -1 242 279 159 16 -9 19 35 36 82 56 65 41 26 -4 44 52 40 4 49 56 71 151 111 176 208 175 198 177 170 72 100 168 143 89 55 53 80 76 38 36 48 70 55 59
69 70 -62 267 347 272 22 -6 20 35 35 86 63 49 57 38 32 30 22 57 58 33 70 59 87 104 83 146 137 153 99 112 91 89 83 102 91 77 94 80 36 64 108 66 82 81 80
65 47 -53 202 365 357 32 -8 27 36 29 85 75 57 60 49 65 40 25 42 44 83 75 119 56 44 58 136 84 68 78 111 114 92 121 128 137 109 62 61 86 103 111 110 53 75 119

GFSGBSN_con_3kmhel_003.txt.gz
Helicity
24 30 35 20 17 9 21 32 48 34 21 18 13 2 8 18 2 11 32 64 78 105 118 112 94 121 136 198 171 105 66 74 76 75 61 55 88 144 143 101 95 81 61 59 64 65 48
24 30 37 35 16 22 31 23 40 52 44 25 19 12 15 39 12 12 22 23 50 79 110 109 96 71 120 208 80 93 139 146 87 61 66 67 92 86 159 119 79 140 38 63 47 50 36
38 31 22 39 32 26 25 20 23 56 49 37 25 25 28 42 16 -4 12 10 24 69 100 101 99 68 136 132 102 90 115 96 87 64 77 54 59 119 134 172 97 33 86 31 90 48 60
34 39 24 33 37 32 31 24 38 36 45 39 36 33 28 45 28 4 1 12 16 55 79 97 80 57 203 46 56 69 85 102 78 63 73 84 50 101 116 218 230 103 98 102 57 31 41
25 37 26 36 42 47 34 24 36 31 30 38 43 40 46 47 45 34 28 49 51 50 84 89 101 130 192 133 76 45 34 53 72 106 55 65 94 92 137 173 227 92 154 79 90 16 32
17 24 40 49 49 42 41 38 20 33 33 29 49 53 59 47 60 58 46 74 108 104 130 123 142 183 129 75 35 49 47 53 61 76 94 95 122 164 145 182 215 163 128 77 49 50 77
6 22 45 48 52 52 37 41 35 24 30 38 55 63 68 69 70 97 103 113 192 275 399 343 205 214 206 55 80 62 51 71 90 107 132 99 202 187 120 122 136 124 83 90 55 -10 42
29 30 39 47 46 52 46 40 45 33 25 34 56 64 72 79 73 99 107 133 215 253 350 163 154 139 154 175 143 84 64 112 127 137 119 149 200 107 75 104 130 142 94 54 96 68 95
41 33 38 39 46 41 42 47 32 27 26 39 51 64 72 92 103 106 112 103 165 199 268 224 121 156 128 194 118 91 79 56 105 99 110 109 79 71 102 76 112 113 77 136 129 74 54
65 52 38 43 39 45 42 45 36 22 38 49 54 64 72 179 155 77 87 59 201 170 274 281 246 208 207 269 133 29 71 49 96 49 39 18 52 116 61 58 131 70 92 69 138 83 70
180 235 65 48 56 55 55 34 35 33 36 46 53 56 81 118 175 128 138 179 225 181 340 201 190 79 129 261 147 62 74 31 27 33 98 -4 39 44 33 -3 41 47 21 122 146 134 177
219 281 165 61 41 55 54 33 39 43 38 45 40 47 97 103 73 104 147 212 221 256 445 227 187 173 174 103 39 36 73 18 30 40 -11 21 42 24 -7 -7 46 188 155 226 192 145 114
124 318 363 107 35 38 46 28 38 44 46 40 63 57 74 92 77 212 172 192 219 343 357 222 211 208 131 111 2 27 47 2 13 -7 -29 -137 40 148 -15 44 14 91 197 367 244 140 119
8 280 345 311 106 19 37 13 30 38 40 47 75 91 46 56 96 148 263 251 247 227 263 272 220 149 115 134 -9 4 26 3 14 -67 14 49 -28 10 -12 120 150 160 102 288 263 157 98
120 22 392 388 282 40 -0 14 29 39 41 75 94 109 120 71 89 179 307 236 260 213 244 211 174 150 97 10 7 -13 -2 -0 2 -8 85 64 41 9 118 112 115 92 29 192 250 277 134
55 57 161 481 256 51 29 34 26 38 59 122 155 113 107 89 106 211 253 231 142 146 143 80 113 49 45 21 9 3 -12 -5 24 31 60 4 56 55 140 210 237 161 111 233 315 190 158
-15 214 68 485 409 74 37 29 19 37 64 116 115 56 90 104 125 238 251 260 125 130 122 60 11 22 22 17 23 11 16 -12 -39 75 60 89 89 261 162 128 160 218 176 214 154 211 151
34 136 -80 377 368 292 34 35 16 42 67 140 79 61 116 141 198 228 225 231 107 13 110 -18 -54 26 15 16 42 42 28 27 -10 14 42 56 29 248 351 215 53 38 110 103 123 76 169
35 146 22 192 409 396 35 27 11 55 155 139 81 88 81 188 183 190 188 190 88 13 22 15 -1 17 15 29 49 4 12 -27 18 40 63 17 76 291 212 346 163 180 109 47 72 106 42
25 133 56 56 321 285 73 25 7 62 73 126 105 77 149 177 73 94 152 148 97 9 -14 10 -0 11 22 38 80 27 22 -11 39 66 114 103 176 145 105 41 101 76 52 66 56 64 75
43 80 161 43 331 305 114 12 3 34 52 122 117 73 102 96 66 64 68 95 45 3 -17 -1 -0 67 23 34 66 39 23 -7 24 64 100 98 163 142 192 148 30 35 14 40 34 34 42
73 46 96 -22 341 378 252 -19 -4 30 61 143 104 98 79 100 58 27 84 162 173 -40 -54 -58 18 36 70 56 64 20 4 26 26 65 53 59 143 124 89 119 64 47 15 6 45 35 17
82 52 84 -4 348 272 360 2 -11 27 107 128 128 95 93 37 18 11 27 125 101 41 -69 -41 -20 32 46 80 38 66 10 13 22 46 58 89 174 122 76 70 84 74 59 42 37 23 24
73 49 50 67 166 222 348 23 -10 18 72 112 82 96 66 6 -0 -2 14 9 111 58 1 -42 -15 3 41 43 54 62 52 138 47 19 56 83 103 143 103 83 73 92 98 24 24 23 12
60 49 55 17 37 250 397 71 -14 -7 26 93 67 86 64 31 20 6 7 5 79 15 81 45 87 45 71 48 57 55 92 111 101 106 16 157 119 102 102 91 103 37 28 62 55 -7 4
65 54 59 -49 56 259 330 380 23 -6 3 100 67 80 58 40 40 32 -6 70 31 78 40 -59 80 136 122 143 147 73 59 75 68 88 171 144 61 98 93 70 69 59 43 71 61 52 70
67 54 88 -27 -54 241 283 424 7 -4 17 94 51 89 60 36 4 1 -8 83 30 51 58 62 66 138 182 172 117 118 93 73 82 99 154 187 141 76 76 37 54 35 48 50 97 95 38
56 68 97 -21 -82 188 292 375 28 23 31 93 67 64 87 28 21 28 32 53 49 63 31 50 100 126 117 94 152 176 102 65 42 61 136 179 220 153 106 83 46 73 59 87 73 42 19
60 77 87 53 -67 215 322 323 18 23 29 74 68 67 74 55 50 23 19 19 4 54 74 38 94 78 128 108 97 123 140 165 123 84 88 114 131 173 122 52 75 66 119 95 45 26 72

GFSGBSN_con_3kmhel_006.txt.gz
Helicity
38 33 39 39 37 24 26 20 25 36 21 17 20 31 33 25 10 8 15 25 37 30 38 69 84 111 193 226 184 150 105 60 1 51 84 71 87 127 138 194 111 54 100 57 56 91 98
30 32 39 39 32 35 28 31 23 26 27 24 17 22 30 35 23 13 14 25 22 19 39 62 78 98 166 161 109 103 110 110 117 105 49 87 95 100 169 118 147 146 62 81 84 72 70
22 32 35 41 43 37 34 28 33 33 21 31 18 19 26 33 27 21 20 22 11 9 21 51 72 98 155 132 134 134 134 112 107 126 130 38 65 139 173 169 185 98 125 75 50 66 92
5 15 21 38 42 39 39 34 32 34 25 33 30 21 25 26 36 27 47 51 30 26 17 52 64 83 187 78 63 114 177 100 45 47 76 86 110 117 140 160 176 178 136 98 49 96 68
28 12 18 21 39 46 50 47 36 29 27 27 31 32 25 25 42 49 60 69 65 64 57 72 95 144 160 123 124 64 81 67 68 71 81 59 86 110 143 153 192 154 167 100 94 144 76
71 34 27 24 29 46 56 56 52 33 25 30 31 41 42 39 48 65 80 112 129 117 100 132 123 178 136 65 76 40 55 49 59 82 122 92 142 141 125 183 214 224 193 167 116 112 111
165 78 41 40 40 52 54 54 54 48 39 38 41 52 60 48 63 77 130 114 149 181 213 279 147 172 294 73 107 80 34 81 81 113 144 118 189 174 140 119 105 146 144 107 115 102 105
126 189 35 47 45 48 55 57 60 57 46 58 43 75 69 56 58 79 113 149 135 171 150 141 99 181 99 181 133 86 85 134 116 136 109 146 133 65 84 78 76 88 112 119 108 51 38
250 191 153 107 51 46 40 48 58 52 46 55 56 78 78 74 88 120 112 96 117 142 144 244 192 216 152 202 150 130 112 105 137 119 129 147 81 58 62 76 109 65 56 58 104 48 137
250 201 145 173 140 56 31 47 56 55 51 57 64 75 90 121 112 75 82 38 137 113 171 242 239 209 182 265 290 136 124 119 146 114 101 119 57 97 105 82 101 88 11 28 54 91 247
140 184 179 188 275 253 54 32 40 42 45 65 59 69 84 61 129 102 114 145 139 93 211 200 202 113 118 304 280 105 123 107 121 105 146 167 110 97 109 109 116 88 40 35 18 91 223
26 111 180 115 188 183 171 43 24 27 42 60 50 57 50 49 77 130 114 101 99 202 250 275 261 168 184 178 196 180 107 53 49 33 52 66 77 63 81 35 134 124 38 116 -1 93 241
42 57 61 133 130 273 348 83 37 23 45 64 55 57 59 33 71 170 116 148 196 248 214 185 161 180 125 166 124 122 83 64 139 144 100 52 -9 29 45 36 129 65 36 -50 -39 106 97
61 67 12 86 96 290 427 115 45 11 37 68 59 93 12 -10 147 175 147 163 196 125 225 265 203 176 156 160 125 85 52 47 16 4 54 -17 -42 -30 -1 -44 -10 3 24 34 104 151 465
74 63 37 92 38 417 487 73 39 19 51 72 61 143 127 67 176 156 195 205 196 128 157 161 183 168 185 112 79 38 7 -13 7 7 -39 -29 26 -61 -1 -26 -11 -49 -105 -76 106 95 366
61 65 56 47 -44 473 428 212 33 20 64 77 163 194 139 146 233 197 188 215 180 94 186 135 121 118 109 112 90 5 -12 -24 24 -2 -34 -9 -9 -30 -32 17 -1 -3 -66 -94 112 206 187
55 50 33 127 -38 58 393 231 72 22 73 142 202 137 68 217 193 246 243 238 132 145 163 109 81 88 58 91 57 9 -25 4 11 -32 101 5 120 -21 23 -2 -31 68 58 158 71 162 329
74 20 -15 212 -62 -12 318 185 217 20 85 176 185 124 119 133 152 239 220 199 184 105 102 53 33 7 73 85 35 -11 33 14 15 31 41 50 70 -14 14 34 22 131 43 113 250 298 321
86 13 24 81 18 25 332 278 188 45 149 213 147 129 95 153 122 165 157 147 216 126 62 60 27 24 -1 30 70 38 68 47 -52 120 68 46 33 67 69 148 227 89 93 164 237 198 229
69 15 40 45 9 98 330 581 243 76 108 179 151 113 126 146 154 117 146 144 217 122 47 18 -11 15 14 19 46 17 39 -24 5 14 72 34 58 51 177 125 144 106 136 190 162 187 179
60 28 52 45 49 6 486 447 217 64 81 196 167 97 98 85 81 62 70 46 69 43 22 45 6 -19 34 21 -2 50 -8 10 39 -1 -26 60 72 176 145 56 65 37 15 33 82 83 120
69 54 45 54 102 -103 334 399 248 20 127 187 119 118 111 83 41 71 40 51 102 92 -27 3 16 -7 39 37 0 34 13 19 3 -15 32 42 121 303 138 118 51 58 44 43 43 56 45
35 57 34 57 84 -70 323 270 425 22 172 136 156 128 147 65 44 85 39 50 58 87 15 -66 4 7 13 68 30 22 -5 -32 -27 7 26 23 108 180 103 94 129 118 61 38 35 55 52
39 57 35 45 65 -154 140 258 340 23 89 117 123 138 109 66 36 21 0 -3 103 118 98 -52 -37 -11 35 121 44 48 149 117 69 26 49 55 47 80 96 63 53 58 65 63 61 74 51
39 56 69 49 115 -20 -41 289 309 258 33 101 110 95 83 60 38 15 17 36 66 -2 34 -68 50 86 56 111 67 87 104 71 84 83 90 47 83 96 99 79 100 50 56 70 64 62 43
31 43 83 58 128 21 46 139 364 278 25 89 89 123 91 62 -1 48 43 25 -20 15 50 -16 20 102 83 88 92 57 57 63 55 60 81 91 133 127 125 83 63 61 40 68 100 95 80
17 49 66 66 89 37 26 88 398 260 24 81 44 101 81 39 3 13 -5 -16 2 53 43 64 118 85 129 76 103 55 44 42 38 65 108 127 158 120 81 75 87 32 4 43 87 76 94
11 44 74 80 95 32 -9 133 319 315 25 63 54 56 87 54 27 28 15 -15 68 34 26 6 70 30 159 176 156 145 33 32 35 44 110 171 118 89 118 34 -3 56 81 45 36 62 53
4 28 73 85 70 49 53 157 274 354 57 32 53 72 92 68 45 31 23 4 48 56 35 45 143 80 155 202 148 154 125 134 95 56 52 101 136 112 84 49 20 82 79 76 55 28 60

GFSGBSN_con_3kmhel_009.txt.gz
Helicity
20 22 20 24 48 37 37 34 33 19 18 22 28 31 37 43 38 37 32 33 28 38 61 86 100 96 119 118 136 169 145 114 78 52 65 85 119 141 178 179 163 127 85 104 70 40 61
26 38 43 21 16 39 34 41 38 31 16 22 27 31 34 47 54 41 30 24 13 17 40 50 87 127 157 80 48 123 170 171 78 62 58 61 127 104 156 175 196 222 157 71 16 50 72
124 57 37 31 26 26 44 41 41 41 36 22 22 37 44 40 57 47 42 33 26 11 13 25 74 109 112 56 52 197 130 114 134 157 151 104 89 135 207 213 169 173 162 121 88 16 28
193 131 94 32 32 31 32 47 49 49 44 42 27 37 46 46 58 62 59 60 65 51 41 26 60 114 106 75 27 46 194 152 112 63 94 93 105 156 195 209 237 236 208 144 113 88 72
169 221 137 144 38 41 33 38 48 50 51 46 39 36 40 46 59 80 88 74 70 62 66 82 83 112 92 44 44 55 100 116 95 87 52 29 118 181 193 222 234 236 237 209 134 101 121
118 214 203 113 62 27 38 42 63 58 53 54 46 41 39 49 66 81 109 112 96 95 102 106 123 121 68 88 62 56 89 84 115 187 212 142 207 237 224 297 252 267 219 164 154 64 114
115 136 233 250 146 46 35 44 48 55 57 62 52 48 46 63 59 103 140 136 129 129 165 179 147 155 130 88 103 77 67 93 87 181 221 157 228 287 208 157 165 146 143 156 113 89 103
68 106 147 204 230 163 82 39 44 52 61 68 64 69 51 69 67 97 130 122 122 138 107 90 52 138 109 220 218 109 98 168 146 134 149 192 186 148 126 102 131 117 106 45 84 97 106
84 97 121 160 218 258 180 78 64 29 62 71 69 81 71 77 96 139 100 105 88 91 111 82 132 162 150 155 217 157 116 114 173 189 183 166 190 103 117 101 115 104 108 73 66 99 73
96 112 80 90 162 226 161 160 101 31 21 43 53 83 93 133 133 116 96 96 97 111 85 118 87 34 83 218 208 150 116 176 224 183 163 127 80 78 124 91 104 100 81 63 68 74 47
51 33 41 65 87 154 137 92 112 58 19 49 67 86 93 119 102 115 89 169 112 68 112 94 105 46 82 116 218 58 56 158 184 272 255 245 162 106 102 40 98 56 47 71 63 71 51
29 31 49 44 83 86 53 49 98 83 77 45 96 92 74 49 168 104 99 134 77 145 88 168 148 90 101 93 95 162 163 143 195 151 172 98 128 126 83 79 80 115 86 110 58 63 -7
8 32 51 79 60 47 54 72 93 104 85 53 102 101 107 94 99 90 115 156 147 157 138 114 97 100 85 110 126 121 160 172 200 202 186 139 58 108 112 109 96 136 88 85 78 110 -47
-12 33 55 32 62 46 30 22 281 141 80 71 109 108 81 78 147 120 139 206 140 109 110 177 137 114 155 146 144 101 103 104 26 110 166 137 107 123 166 113 135 139 129 152 64 -47 -108
-13 60 64 7 29 92 115 84 237 167 137 72 102 185 175 75 159 106 216 154 79 95 152 125 139 138 141 96 79 69 69 53 63 102 117 41 -5 49 76 200 107 76 118 38 47 34 -15
-15 64 48 -25 22 165 -46 36 201 246 147 79 186 235 185 122 131 145 154 102 104 133 150 117 118 113 79 68 69 74 87 4 19 71 78 -47 -81 -104 4 84 21 68 27 56 -6 7 -60
25 37 8 -26 60 84 -65 69 277 240 181 -18 249 224 175 221 209 175 151 109 93 135 138 77 110 103 52 89 69 45 45 2 32 11 130 71 22 106 81 1 -31 -40 10 25 -55 -288 208
7 17 66 -8 31 33 52 39 179 310 276 136 264 229 161 262 175 212 147 151 99 96 77 71 46 53 23 100 100 92 75 8 -60 6 81 84 14 32 118 -20 35 -2 -4 -156 -340 5 1
17 22 44 28 -7 78 -43 47 481 214 174 338 195 215 129 231 172 143 156 89 80 59 81 45 71 32 34 128 52 113 43 16 55 54 21 106 101 110 4 -0 4 -3 -11 -38 -205 23 270
-6 6 35 45 1 61 -43 14 378 409 67 214 200 222 175 120 166 109 87 47 76 84 138 28 31 -48 -20 25 77 41 120 16 78 153 89 3 42 107 1 -18 -31 -23 -3 -67 -46 58 178
-15 6 27 47 21 40 -59 46 224 350 95 164 161 186 206 158 77 101 76 36 46 22 88 18 -5 40 12 9 12 -0 66 2 81 141 99 48 135 221 144 76 -14 41 -30 -59 106 214 106
-21 8 31 46 35 52 -35 75 249 400 190 238 178 132 172 64 61 29 24 45 -2 14 46 -30 -6 -12 3 -9 4 17 43 25 -10 74 112 101 287 281 134 25 29 41 24 56 54 49 43
-40 -15 36 67 55 30 16 -31 231 507 244 222 205 217 100 52 66 64 35 33 2 13 12 45 7 -5 6 -26 -4 -10 -25 22 11 15 73 15 246 197 121 29 16 -3 5 -31 34 79 73
-48 -20 34 55 67 41 27 26 242 418 496 201 159 162 114 88 81 27 1 8 20 69 58 43 -66 5 -47 1 11 79 39 -4 32 72 -36 -10 47 99 82 67 34 52 46 25 46 47 48
-37 -15 24 56 86 62 43 -25 242 319 492 92 139 113 105 69 42 13 27 -6 26 12 25 39 18 25 7 28 76 32 38 63 76 40 24 1 21 19 30 43 66 65 62 68 65 64 95
-23 -14 17 58 72 96 49 4 263 371 426 83 123 122 97 69 44 54 48 21 -4 -32 -38 40 56 105 119 84 63 62 76 67 53 55 75 60 42 43 54 44 50 60 56 49 65 96 114
-11 -8 7 47 64 93 77 14 150 360 331 176 64 84 84 49 55 36 14 -10 -2 -22 17 27 18 68 100 78 71 74 80 39 43 51 49 64 50 23 14 34 41 14 30 27 61 51 82
-3 -13 -1 32 70 88 125 82 138 283 304 171 94 66 55 49 60 29 21 12 1 -21 15 21 103 24 119 50 46 113 49 63 68 42 50 94 113 84 19 18 21 34 35 38 13 40 57
-2 -22 3 28 69 93 132 132 122 245 254 236 70 62 57 52 38 33 39 3 -21 -5 26 9 103 -27 91 107 99 93 66 64 75 53 85 64 90 101 47 6 5 58 37 50 44 41 38

GFSGBSN_con_3kmhel_012.txt.gz
Helicity
162 208 168 40 35 21 26 42 51 40 21 19 18 25 24 33 47 56 64 54 51 48 56 75 102 113 143 140 151 146 117 122 102 77 56 78 103 131 122 122 122 113 100 116 75 32 42
156 146 202 194 48 41 16 34 44 53 38 28 28 24 26 33 45 62 66 55 40 40 51 63 85 84 95 100 70 92 118 167 125 97 63 70 68 92 117 117 132 174 191 79 93 45 64
118 130 169 189 93 97 46 33 33 46 49 36 26 31 41 36 37 60 67 67 55 44 42 46 50 37 57 27 78 174 177 93 110 69 67 47 34 173 190 140 124 110 93 89 110 89 68
88 141 145 203 246 133 103 51 39 37 49 43 48 52 51 46 35 54 73 78 87 72 64 69 78 65 50 33 46 54 116 123 87 73 65 69 115 163 165 173 191 150 120 93 102 130 104
79 89 96 150 238 200 175 32 41 36 31 40 66 63 64 49 42 53 75 84 93 88 86 93 115 91 55 67 85 62 118 123 103 76 35 26 129 147 193 179 139 123 140 168 155 134 163
67 58 102 110 165 197 222 199 114 39 33 48 59 70 70 55 48 59 78 101 112 120 120 108 144 105 82 87 74 57 110 121 142 147 171 146 184 189 215 203 171 157 147 136 161 191 151
69 66 93 104 166 177 235 246 204 58 51 55 55 65 70 67 66 71 139 144 134 134 162 159 99 108 128 89 80 83 98 168 178 248 251 211 245 200 161 149 144 140 133 111 185 170 115
58 59 70 83 115 116 200 187 228 302 34 38 48 57 66 67 65 87 145 137 107 127 93 43 61 100 109 165 168 117 142 197 206 183 198 214 189 152 110 99 142 120 106 104 86 78 121
54 57 75 84 82 102 157 113 122 155 76 37 32 49 69 54 78 125 124 110 84 93 86 63 103 151 135 135 186 151 183 162 211 146 147 158 171 67 142 127 154 135 131 114 107 76 60
65 41 53 48 51 18 74 174 147 176 193 81 50 62 91 119 173 148 114 93 91 80 83 24 69 65 50 67 131 106 150 192 215 149 116 146 99 135 116 131 126 122 137 82 81 102 140
57 24 32 28 31 45 52 79 128 133 201 119 23 71 161 164 115 153 78 110 106 79 147 62 75 38 48 55 100 54 72 133 181 218 253 230 155 115 101 103 91 123 103 99 97 112 116
20 20 17 34 17 48 61 48 196 17 123 111 66 122 147 212 143 105 111 141 129 172 135 88 95 63 74 50 109 126 113 44 168 158 174 220 251 195 155 101 99 123 98 123 123 121 181
17 28 -6 42 9 87 28 55 180 63 13 39 143 161 153 162 139 105 162 169 200 188 116 89 84 61 81 85 82 97 151 194 245 260 219 214 161 246 196 157 132 131 125 238 214 231 236
24 35 26 59 -17 65 10 180 85 1 101 52 34 180 133 154 162 141 179 249 190 121 115 112 79 92 103 95 80 92 147 119 87 151 147 175 171 202 143 117 179 138 157 270 259 198 137
38 25 36 33 -6 3 98 97 8 61 61 12 28 218 218 136 170 157 183 224 122 104 108 88 91 99 102 51 97 100 75 85 69 159 155 99 96 139 127 194 142 102 125 70 166 129 111
40 36 5 27 -14 -30 88 82 67 94 117 94 29 263 247 133 155 177 192 147 95 95 126 110 65 106 77 74 71 71 69 55 63 76 61 -21 57 1 53 94 60 127 142 176 151 88 56
34 25 4 58 -10 1 48 55 107 86 154 179 152 337 228 147 209 239 193 110 64 71 105 68 85 114 52 107 100 59 33 5 58 39 112 41 20 -48 -2 -26 -29 84 77 124 106 70 -56
39 21 -12 37 48 14 -4 -23 64 49 202 6 97 250 183 285 253 230 197 100 43 51 47 82 83 63 47 72 34 45 73 37 61 39 115 168 -1 63 117 41 -59 -48 -2 0 -60 -74 -101
33 0 -35 29 26 30 12 -17 19 161 290 72 192 252 179 262 235 161 117 91 82 49 64 64 60 52 81 51 -16 54 65 48 -1 4 -9 129 65 39 -14 -17 -19 -38 -20 3 -27 -62 -153
33 -15 -37 20 39 55 14 31 -7 102 326 241 193 205 226 200 276 163 65 73 80 30 23 62 66 28 8 12 1 -16 4 -10 76 76 89 47 45 159 155 -19 -15 -52 41 -31 -52 -156 -197
26 -25 -42 9 57 67 20 36 5 140 448 257 174 330 234 216 119 101 82 34 27 18 44 21 30 18 -12 13 -5 51 57 -12 -4 144 235 134 232 298 358 259 121 -42 39 49 -62 -27 -54
17 -32 -45 5 54 73 49 53 -39 242 473 190 142 220 208 92 90 101 12 22 18 37 29 20 25 -7 21 42 17 -21 23 46 79 240 243 190 442 385 143 56 21 51 77 -16 -84 -50 -131
5 -25 -33 -3 42 77 59 49 -17 243 542 121 115 147 192 92 77 54 79 48 -1 41 -17 14 6 17 -9 1 5 -30 -12 -17 15 110 321 228 284 262 88 5 -18 103 238 130 105 69 88
-14 -24 -29 -17 38 66 64 80 6 190 444 180 118 204 135 86 83 28 4 -6 18 -8 11 -42 -12 14 -2 31 1 -27 -20 -42 -40 73 109 91 180 220 105 39 51 42 168 253 102 95 185
-6 -8 -16 -11 21 58 91 102 35 194 511 258 269 169 145 123 64 29 41 19 19 -9 31 12 49 69 59 22 25 0 36 -6 -4 17 62 69 72 89 42 67 77 40 10 74 123 51 15
2 0 -17 -14 17 59 91 92 70 197 530 280 144 139 105 79 24 43 48 33 37 16 17 -6 30 97 90 20 7 50 22 28 28 12 30 26 5 11 21 14 19 40 50 46 63 15 59
1 6 -20 -17 17 56 77 124 62 192 532 349 150 94 97 71 54 65 45 44 19 19 -9 -32 13 66 103 71 65 93 64 53 46 34 33 47 15 -9 -8 -15 38 36 27 27 54 29 65
-5 -5 -14 -26 19 59 98 163 68 149 416 277 151 86 76 57 55 26 54 45 45 13 -21 4 23 94 128 78 66 85 33 36 31 38 24 60 44 8 10 -35 1 11 12 23 14 16 17
-11 -4 -6 -24 19 64 113 171 97 175 371 280 120 90 90 63 44 50 51 47 5 -4 29 42 35 79 100 135 103 61 25 43 45 17 60 17 55 31 23 10 25 35 34 12 12 18 13

GFSGBSN_con_3kmhel_015.txt.gz
Helicity
122 145 92 144 133 179 183 25 32 22 38 49 31 28 21 18 19 18 28 33 37 39 52 66 88 119 149 123 70 89 110 106 65 131 104 113 143 151 122 95 109 124 81 78 59 39 30
63 119 125 128 82 187 185 172 38 42 28 44 51 45 35 27 27 26 37 38 38 44 54 51 72 100 116 92 51 76 147 204 145 130 109 120 117 115 138 109 99 114 96 54 70 50 17
70 47 61 129 141 131 151 114 150 33 43 31 48 66 63 37 38 29 47 44 45 47 56 49 50 68 72 56 66 113 141 129 182 153 149 108 104 153 186 115 110 86 74 64 56 73 40
58 60 80 95 94 137 167 166 228 167 74 35 37 44 68 65 50 38 47 53 69 64 70 67 80 82 47 59 83 29 98 117 106 93 89 85 85 166 183 185 151 120 91 68 49 82 101
68 78 80 50 98 106 169 195 202 231 214 48 29 21 61 85 57 51 47 64 81 89 79 79 113 87 44 100 103 76 94 136 123 118 96 99 154 190 196 197 160 141 136 106 118 85 117
83 67 60 55 64 79 124 186 205 198 190 233 55 20 32 73 56 54 67 81 112 119 103 97 135 90 75 87 99 77 62 92 146 162 181 161 199 218 250 231 242 181 140 93 47 39 114
83 62 48 48 54 73 98 100 223 175 175 151 125 31 43 71 79 53 143 189 167 140 161 162 70 63 93 85 109 121 106 187 189 237 217 232 282 336 242 198 156 136 116 119 143 128 120
62 52 48 60 59 51 106 93 113 205 166 195 209 80 36 81 91 92 195 186 112 110 81 26 113 69 151 176 143 159 132 210 218 227 241 267 229 259 249 189 152 139 139 106 81 64 98
56 45 31 41 37 56 89 46 61 156 153 113 157 104 48 78 115 175 124 151 89 94 93 82 104 108 102 123 128 134 156 190 195 200 237 207 230 146 192 176 180 155 145 139 108 91 50
36 46 48 24 5 14 26 72 41 66 114 84 197 236 48 107 203 216 139 110 98 83 129 63 94 114 131 176 125 91 101 168 192 168 151 157 142 134 154 152 172 122 110 85 87 99 100
53 30 30 35 14 16 27 -0 75 75 119 41 85 344 91 248 309 228 123 125 105 116 168 84 131 91 83 92 101 92 45 123 129 191 246 234 157 116 147 146 112 152 86 99 89 131 133
57 34 46 32 16 27 8 12 68 154 49 74 36 254 45 314 280 174 156 174 151 227 163 99 105 109 126 65 112 127 107 72 171 166 169 183 156 200 203 111 126 182 95 114 109 125 189
42 43 44 23 10 39 1 28 116 153 60 -0 35 80 124 283 258 192 196 241 270 220 139 117 120 118 104 92 69 97 146 143 220 215 220 216 158 280 236 185 126 137 179 267 277 314 311
37 42 52 14 27 34 1 -24 128 116 86 57 76 -41 167 309 219 207 277 326 233 125 173 97 103 123 92 94 96 104 149 140 121 218 249 196 214 196 250 240 255 181 183 323 332 325 187
35 46 49 34 20 7 6 1 102 136 49 29 30 10 182 227 186 157 281 272 142 164 119 108 125 111 85 92 131 92 88 122 126 139 146 123 119 155 107 174 309 243 174 114 205 206 160
34 40 35 -25 1 40 17 1 40 90 73 40 -117 -75 113 142 158 176 256 171 150 137 113 94 90 48 64 90 92 81 64 51 80 175 124 104 118 81 19 109 80 102 97 142 188 165 143
26 30 32 -16 2 51 44 16 19 50 92 63 -51 -46 103 200 289 200 209 148 118 84 97 85 65 82 79 100 59 53 25 32 48 61 154 95 61 22 93 125 197 176 87 172 152 155 126
26 25 20 -8 -7 49 65 47 10 10 75 10 -65 67 143 202 197 210 166 103 74 89 97 85 71 48 80 77 72 33 18 -2 -3 123 131 103 60 84 125 104 106 109 140 135 170 98 27
18 18 23 -12 -24 42 84 66 20 -6 71 172 5 22 245 236 290 226 133 101 62 98 61 44 43 41 61 78 56 -13 -25 9 102 166 105 170 86 84 127 128 156 112 28 16 -21 69 -81
14 15 21 -8 -28 48 118 80 34 -21 102 160 69 78 166 178 250 188 112 64 62 40 30 17 40 43 84 59 -34 -24 -25 51 62 73 179 116 105 220 245 142 4 55 36 28 -27 -85 -48
11 11 15 -8 -30 48 123 82 52 38 146 96 107 144 173 42 140 132 78 34 44 37 16 5 23 31 74 -2 -41 -4 -21 19 -10 115 202 128 255 320 503 460 185 -2 34 74 51 100 40
23 7 5 -24 -19 35 97 88 76 43 319 117 69 137 165 128 182 99 66 37 12 7 10 23 17 14 -29 21 -8 -39 -25 -28 27 83 237 317 499 480 430 347 282 71 6 10 92 15 67
20 8 -0 -13 -14 25 75 69 123 54 265 101 209 126 202 89 117 110 69 41 11 33 -5 39 3 -5 -3 14 39 -18 -31 -5 -31 93 226 295 304 299 173 -0 21 30 38 32 90 85 64
17 2 -1 -12 -20 12 61 70 117 82 169 282 218 157 129 108 71 11 30 35 25 -2 6 -0 -37 -38 -17 25 1 -16 -34 -11 -1 144 271 259 274 270 93 87 64 112 9 73 57 2 34
13 3 -5 -12 -16 11 52 85 150 148 195 262 141 84 115 99 52 38 29 14 2 18 20 27 8 51 44 21 -19 -24 -39 -14 24 138 233 151 126 120 103 107 69 48 95 91 120 78 75
11 6 -14 -18 -14 10 55 90 137 177 242 314 197 77 176 106 48 65 11 47 24 15 12 -2 40 64 85 37 21 -5 6 -13 28 24 47 62 79 57 47 45 53 41 92 177 152 69 86
10 6 -14 -1 -9 13 60 104 133 179 262 265 131 153 145 68 78 111 69 40 45 48 8 7 20 10 28 60 31 -5 49 28 7 22 21 44 26 31 13 14 42 31 -13 32 -7 67 30
13 6 -14 -3 -3 14 63 99 123 135 280 315 196 153 158 98 77 67 58 62 80 61 -5 -3 -30 -2 57 100 80 38 40 38 32 25 14 24 8 1 12 -6 1 26 8 -10 7 16 20
21 7 -15 2 10 13 55 93 124 73 247 389 149 58 68 81 55 75 42 50 35 36 32 25 -11 11 99 131 91 42 21 39 41 53 38 7 8 6 12 -10 2 39 19 28 20 20 8

GFSGBSN_con_3kmhel_018.txt.gz
Helicity
66 53 75 109 108 51 100 59 145 172 172 7 20 26 33 31 16 18 18 30 43 43 32 31 42 63 101 82 43 70 92 69 11 71 92 91 117 114 109 124 163 171 138 114 85 68 35
43 50 58 48 68 133 97 14 90 122 162 203 46 29 26 40 13 22 20 38 41 43 38 37 41 64 85 77 47 91 106 125 93 81 113 117 88 99 94 106 150 167 155 123 90 50 33
46 45 50 57 55 50 120 136 136 160 83 124 162 42 15 48 30 26 27 44 42 40 38 43 43 53 60 47 67 87 150 162 142 98 97 104 129 143 155 87 111 115 115 90 74 71 63
72 76 71 68 76 82 35 113 123 144 157 226 161 153 28 35 59 18 33 45 53 78 42 52 56 62 40 32 38 38 98 119 138 125 128 101 85 113 174 173 164 132 121 108 105 96 92
79 64 52 64 68 78 85 79 119 125 164 181 266 129 88 40 65 71 33 42 81 94 67 58 81 54 30 69 72 79 90 115 119 125 110 101 133 137 166 175 143 146 156 126 112 142 132
69 63 49 62 66 52 65 53 83 100 122 147 259 150 175 65 43 82 34 54 100 117 128 115 98 64 65 63 73 109 113 139 151 158 164 154 154 174 202 213 189 152 175 135 100 83 184
57 54 37 34 33 37 46 57 71 121 112 104 211 127 187 151 40 109 146 183 186 149 152 138 92 108 77 78 125 124 103 169 173 198 157 174 183 208 159 157 177 159 157 141 166 135 85
41 49 34 22 44 27 24 43 29 63 47 87 114 130 154 142 41 156 233 197 162 94 98 30 106 74 108 158 136 154 123 179 193 166 202 196 141 159 186 172 158 148 135 135 103 92 99
64 46 56 31 42 40 18 -10 23 27 55 56 133 164 73 119 59 276 172 165 141 91 98 86 78 109 127 108 118 116 133 186 170 201 186 156 187 131 180 234 210 202 180 166 123 129 110
53 37 40 45 41 41 20 3 15 29 28 91 83 125 75 126 83 283 218 161 156 101 132 69 87 95 137 155 86 114 144 198 206 127 107 116 124 173 211 212 191 133 158 115 120 132 126
50 41 48 59 46 32 -6 21 5 11 19 151 54 94 28 207 -54 402 247 149 128 133 197 86 124 153 109 165 150 118 92 116 143 165 201 181 141 121 139 138 238 239 141 150 137 163 143
44 37 39 56 40 19 -14 30 -19 -1 120 98 52 41 -37 187 92 433 268 198 186 260 184 79 99 110 115 87 118 101 69 103 172 122 129 129 159 186 189 140 165 205 149 151 157 145 174
41 28 35 46 32 18 7 -6 38 -3 51 73 4 5 -66 281 134 304 204 307 319 255 150 90 102 96 106 111 86 91 110 139 151 156 172 205 159 248 218 206 172 163 226 260 225 307 306
33 29 32 35 29 22 -4 24 8 40 76 104 32 17 -157 254 181 256 257 365 279 140 178 51 140 158 119 90 86 85 139 127 105 203 214 192 156 111 175 194 174 177 244 325 338 283 188
28 25 28 28 25 20 12 69 26 11 -27 84 71 -11 -98 -0 170 217 296 325 243 160 162 136 134 137 88 93 107 93 85 104 149 197 175 143 134 165 188 153 166 190 226 139 210 200 175
15 16 21 15 20 14 21 76 55 -1 -36 67 7 -20 -19 27 176 131 277 186 208 169 134 109 126 104 104 81 95 91 85 55 47 129 130 125 124 96 88 146 63 152 141 174 293 232 216
2 10 18 13 17 15 17 85 76 5 -46 159 -10 38 86 58 209 274 229 230 182 140 109 96 106 98 90 93 98 97 75 24 8 24 120 167 119 160 176 216 231 221 155 167 195 216 222
2 11 19 13 14 -3 15 106 71 29 -43 121 20 63 42 151 120 169 193 157 163 134 123 99 88 74 58 87 87 90 44 -15 54 139 90 155 151 148 162 187 130 160 206 203 260 258 216
13 15 24 9 15 -26 32 113 101 78 -22 45 86 5 38 162 195 210 193 159 122 119 79 51 53 48 62 90 87 60 12 -15 99 141 97 163 178 115 116 135 205 287 282 240 136 183 -25
14 19 23 5 20 -8 23 88 96 86 -17 40 68 -24 146 81 218 188 154 107 106 94 79 57 36 40 78 50 33 51 -53 -30 104 125 107 139 206 269 367 314 237 239 161 350 212 113 167
20 14 7 -6 4 -13 20 77 102 93 74 19 67 38 141 78 117 138 106 43 63 59 49 12 8 6 51 59 39 -13 -34 -55 17 95 178 172 264 398 635 666 518 493 338 112 254 318 215
16 11 5 2 -5 -11 17 75 112 57 214 9 34 16 147 45 96 141 87 56 22 42 12 4 20 8 -12 53 13 -37 -18 -3 -22 81 220 224 298 416 699 481 385 463 409 293 224 167 203
24 18 11 -4 -6 -7 16 68 78 103 119 61 67 65 122 9 136 87 55 48 41 34 8 25 -11 -14 -6 -11 14 10 -27 -34 -29 -1 156 213 269 408 427 113 57 60 158 196 134 130 171
17 16 16 -18 -17 -9 21 60 85 163 65 71 136 211 75 47 69 33 34 26 28 34 32 6 12 17 10 -20 -11 -17 -11 -2 -22 66 166 263 268 268 350 158 186 224 67 127 129 81 138
15 10 10 -22 -11 -6 21 66 93 177 112 52 114 111 82 68 17 37 24 33 21 27 12 20 -9 28 43 16 -25 -20 -5 -14 10 109 193 272 185 130 131 133 199 235 165 92 149 162 168
12 7 -1 -19 -5 6 14 57 91 147 131 66 136 63 66 77 27 49 37 40 43 31 7 1 20 31 33 -17 -4 11 27 -0 2 18 -11 88 83 85 77 94 102 130 122 113 80 237 273
6 11 7 -21 -7 10 18 57 88 135 153 123 115 105 37 69 60 64 53 54 59 36 3 6 2 17 18 12 25 28 29 32 29 37 3 9 41 78 67 88 81 82 86 69 86 109 10
17 14 8 -28 8 20 26 57 99 150 164 154 214 181 70 104 71 54 67 92 82 40 12 -3 -9 -7 4 -8 18 71 32 26 25 23 8 30 27 34 12 27 -2 -0 12 52 87 68 29
32 12 8 -7 -4 11 28 52 102 128 194 143 136 207 107 123 44 61 58 73 50 20 49 43 -0 7 -13 -3 36 79 53 42 35 76 28 18 16 -0 32 5 12 9 -19 17 19 2 -13

GFSGBSN_con_3kmhel_021.txt.gz
Helicity
29 31 42 46 48 58 68 128 119 111 42 89 171 133 56 22 32 17 10 33 40 39 50 54 65 78 100 82 39 46 38 45 40 126 89 95 105 107 87 103 143 134 88 85 85 97 85
42 54 58 57 76 64 59 43 100 134 108 81 153 170 146 61 31 38 -3 12 34 38 50 53 61 68 85 73 57 54 84 84 65 80 91 89 68 93 77 88 111 118 109 97 76 41 67
46 54 62 65 68 69 85 82 79 84 132 123 234 115 119 131 70 49 1 2 30 38 43 48 55 65 64 67 48 68 122 92 80 74 106 93 92 106 91 89 89 97 71 50 38 44 63
45 53 63 66 73 76 72 104 78 91 115 117 124 229 234 142 104 37 47 5 16 47 32 44 54 69 51 33 32 37 74 102 112 131 115 89 81 134 119 117 120 90 73 63 93 110 63
37 40 49 48 67 59 46 67 57 100 92 102 127 154 172 123 164 55 73 38 33 75 36 47 90 62 57 53 47 41 58 76 99 125 137 105 109 113 128 120 102 108 113 89 75 68 92
30 51 68 59 57 42 34 36 31 66 83 61 110 123 190 154 161 100 90 80 85 148 124 85 80 68 74 66 72 87 101 107 111 144 150 129 127 124 138 145 130 86 105 88 83 58 132
57 64 50 61 56 39 23 30 31 50 52 37 60 88 148 107 135 214 176 273 194 187 166 107 77 133 98 78 96 93 114 155 159 163 126 140 134 124 100 104 98 96 87 79 101 90 52
72 71 57 72 72 39 35 35 32 12 13 44 38 32 149 145 194 212 312 354 211 124 81 28 83 58 77 109 108 110 98 123 132 116 150 139 91 68 140 86 88 73 66 60 74 79 96
60 67 69 68 52 31 48 38 22 21 29 31 26 57 94 198 154 35 252 292 258 195 97 98 63 83 95 91 117 84 106 144 124 143 123 139 125 106 73 113 112 99 114 101 78 99 89
76 74 87 73 45 24 48 28 4 13 24 6 -8 86 62 111 50 53 199 241 183 165 147 82 100 79 116 142 84 105 108 132 142 82 98 74 73 137 138 133 132 86 137 94 110 127 107
92 96 97 66 39 35 38 24 1 21 -1 -29 63 69 28 24 84 -4 280 235 180 171 146 91 120 145 125 169 112 117 146 186 155 146 175 109 97 98 73 85 168 136 131 131 132 138 137
104 97 79 42 35 34 31 25 15 24 -16 10 88 25 15 33 27 75 306 169 260 276 181 95 93 118 142 138 160 145 108 132 127 102 89 111 131 151 127 99 87 203 170 114 154 156 207
111 96 78 32 29 25 19 14 18 50 6 9 61 45 10 10 -68 76 320 215 399 231 154 116 104 100 104 124 125 122 117 110 109 127 101 100 84 172 196 167 167 169 212 226 216 266 332
90 83 50 28 27 21 18 5 22 70 23 -26 68 100 -11 23 73 23 304 308 282 169 222 105 117 121 125 124 93 99 112 88 71 134 133 84 99 72 85 54 104 196 226 255 245 231 175
89 61 20 28 27 25 16 -7 38 68 31 -63 84 4 -6 -80 160 123 381 322 215 105 181 136 116 144 95 77 94 83 60 88 90 161 126 101 76 80 76 107 134 218 203 88 191 143 152
50 35 23 30 33 25 12 -16 46 66 40 -52 6 -15 26 -24 86 280 313 301 189 145 156 136 126 89 95 66 71 38 51 50 71 103 108 108 70 91 118 157 123 220 183 237 306 279 266
62 36 26 34 25 15 -27 -17 59 73 75 -101 3 23 23 21 240 314 243 278 227 202 132 172 136 112 79 76 67 67 47 56 32 51 123 109 141 147 162 155 175 233 255 302 326 373 366
58 32 23 28 9 12 -13 -0 53 94 91 -74 73 77 38 -1 224 222 200 184 190 166 165 140 110 100 68 58 61 68 31 50 39 97 68 102 129 140 185 204 229 279 295 297 316 328 448
56 28 22 15 6 25 -17 14 51 92 58 21 80 97 17 70 113 160 231 209 174 153 117 91 86 70 56 41 28 39 57 23 108 98 81 124 130 43 23 130 167 343 418 403 344 257 350
49 27 22 14 14 23 -10 20 48 66 74 32 73 105 236 134 114 130 157 146 146 133 92 71 46 35 45 28 37 39 -35 12 53 72 88 111 207 205 210 246 344 545 561 499 329 235 296
41 25 20 9 18 13 -8 47 55 64 221 75 43 29 23 110 117 121 109 109 116 78 70 53 31 34 24 22 20 30 -27 -30 19 45 68 193 174 178 363 419 493 467 435 483 499 354 242
60 22 11 8 20 -0 -2 52 62 62 279 40 75 39 42 57 71 91 72 57 48 79 62 49 31 8 8 31 -3 -11 -26 -24 4 71 171 199 158 148 350 448 455 429 238 261 335 324 277
76 22 6 4 20 -8 12 56 51 66 191 82 108 45 76 31 64 26 81 33 25 24 25 27 -2 11 -2 17 -8 4 -13 -27 -19 36 100 132 125 191 400 254 222 134 117 132 167 295 226
64 29 3 -1 17 -3 13 47 59 57 123 89 66 84 67 68 34 -9 18 84 42 17 25 17 21 16 20 16 -1 2 -9 39 42 65 87 169 200 235 353 288 221 256 89 89 174 171 232
69 29 5 1 -14 17 24 60 88 80 97 34 96 46 44 26 39 12 17 10 46 38 26 22 11 13 17 -8 -18 -22 13 24 29 67 102 220 196 172 207 236 262 281 211 141 148 152 159
58 51 21 12 -7 18 49 34 87 95 115 33 139 63 70 21 24 33 51 19 25 45 36 32 11 8 22 7 6 45 57 24 9 8 23 45 81 86 57 191 157 217 129 172 240 236 256
52 54 35 14 15 -1 36 37 68 112 142 103 118 59 18 15 38 82 46 11 18 40 15 10 16 16 26 5 20 56 80 23 14 13 -3 1 -4 84 95 95 99 104 87 108 57 121 121
57 62 55 33 10 3 25 58 63 105 135 108 150 107 47 92 55 63 49 36 78 60 26 16 15 8 19 12 16 11 56 13 13 13 -7 12 24 22 29 47 50 61 51 63 123 105 27
70 58 57 33 15 -0 22 47 81 97 110 166 103 175 158 45 41 27 46 45 32 35 57 65 37 7 -11 -18 -15 7 40 23 19 39 20 11 -6 -12 46 43 36 54 94 116 101 114 22

GFSGBSN_con_3kmhel_024.txt.gz
Helicity
34 43 37 40 33 37 32 36 43 44 102 136 126 120 129 163 106 51 33 11 22 25 43 57 70 78 82 86 71 55 81 114 65 52 64 88 93 100 103 118 99 93 82 84 75 72 60
40 31 46 41 50 46 44 42 45 21 31 120 127 51 172 165 145 104 32 56 18 25 39 61 69 69 64 57 65 67 41 60 52 50 67 76 73 86 97 86 66 98 83 65 58 40 45
39 35 28 30 22 52 34 30 32 20 25 67 116 122 176 270 142 172 96 58 23 11 40 56 63 64 47 80 56 86 95 104 83 2 49 84 78 95 55 46 67 73 54 44 27 26 20
26 29 35 15 8 23 29 21 19 22 32 64 98 100 110 205 203 171 119 48 37 25 42 51 59 62 66 63 47 76 100 113 91 95 56 84 108 110 113 89 45 71 61 69 39 49 33
33 67 50 41 41 38 31 37 22 27 43 68 95 74 109 155 248 209 201 14 67 52 38 47 75 67 95 54 51 48 52 75 101 122 109 83 98 122 81 63 54 40 78 45 50 40 59
46 55 63 65 48 71 43 46 16 35 10 51 35 47 71 113 140 131 274 27 76 106 86 131 91 90 61 83 78 69 77 69 126 106 120 105 111 84 68 69 78 61 30 39 48 45 45
55 54 55 61 85 105 56 37 26 44 12 9 12 43 24 97 132 117 204 114 300 267 185 220 82 143 76 101 88 110 98 128 121 72 76 98 93 64 28 29 33 64 62 48 52 47 39
67 67 83 96 101 77 61 42 35 35 19 10 6 26 4 50 159 132 121 112 376 191 113 115 76 101 138 72 120 84 86 97 83 45 77 74 40 16 39 26 21 27 36 39 33 30 45
74 95 95 98 79 57 42 39 31 12 6 19 22 23 1 14 157 61 -32 101 190 142 123 118 81 106 89 69 96 51 49 87 49 61 22 41 58 39 13 19 26 19 26 35 34 67 67
87 94 105 78 57 38 35 31 27 12 1 2 -27 19 83 107 85 40 -165 92 201 289 138 70 85 61 86 102 81 63 41 90 97 31 40 23 35 86 77 56 32 36 53 35 48 67 64
69 86 103 57 29 29 24 23 19 -28 22 0 -15 36 100 29 54 17 36 56 197 221 173 69 165 113 89 105 75 125 84 112 61 79 85 56 28 16 27 21 38 80 70 68 78 85 108
81 97 65 19 25 31 26 24 8 -22 37 8 -21 -6 58 34 17 53 20 198 292 269 161 114 161 133 127 104 124 118 120 138 104 67 59 67 107 89 59 47 60 178 110 60 67 102 148
63 74 39 28 34 36 33 20 -7 -18 44 70 16 -24 33 3 36 31 78 368 292 301 96 127 114 135 115 159 120 97 87 109 85 108 63 58 27 95 112 121 118 86 135 116 90 138 174
54 70 37 39 36 37 22 13 -1 6 59 41 17 64 16 2 19 36 135 228 261 230 164 91 98 87 132 98 108 99 87 81 54 98 111 79 71 50 83 77 109 54 77 140 121 111 128
81 55 36 36 35 20 18 19 -8 43 74 59 -68 17 16 16 39 101 198 176 192 180 90 74 137 146 169 99 122 107 81 82 54 79 77 71 68 62 41 50 75 156 162 66 124 94 158
74 46 35 36 28 14 24 2 9 56 60 32 2 8 16 0 0 151 244 222 245 151 103 51 112 88 108 76 120 89 64 51 39 40 47 83 66 56 96 102 107 118 201 253 309 291 188
63 37 32 33 21 23 24 -17 45 55 53 18 99 20 51 70 77 143 136 203 217 79 100 130 76 87 91 56 64 47 40 56 0 11 28 84 77 72 123 111 93 202 248 297 228 343 325
57 43 31 27 24 25 22 5 54 50 34 44 74 142 126 188 174 151 88 236 180 94 101 128 106 110 66 46 42 23 8 35 33 69 40 69 33 2 76 55 73 122 166 194 299 366 485
57 47 27 14 21 27 8 36 51 52 48 140 88 109 8 114 136 189 161 256 193 97 90 109 107 84 66 40 44 21 20 46 52 50 56 111 -37 -3 0 47 49 121 145 249 455 321 364
60 61 37 2 15 20 16 39 55 62 122 76 50 89 124 132 128 107 91 154 125 98 100 109 77 49 41 35 44 5 -11 42 40 5 51 63 42 21 15 28 94 94 193 248 337 337 388
55 81 48 -1 7 3 17 63 62 103 180 62 49 106 113 71 73 73 84 87 55 70 80 73 40 18 21 19 18 2 -4 40 20 -24 -25 47 15 83 185 169 139 233 295 301 253 403 236
66 94 46 8 7 7 30 59 59 104 189 122 97 107 113 161 65 51 72 43 41 63 50 40 43 2 25 40 13 -2 11 -12 -12 32 64 34 59 42 167 124 164 237 228 151 120 164 231
44 72 47 20 3 19 44 62 67 80 83 112 95 107 90 84 72 41 28 39 47 58 66 65 19 12 25 24 21 -11 -2 1 5 -6 21 59 62 51 150 135 194 72 61 21 74 93 72
42 68 65 36 16 37 55 54 80 73 48 37 45 87 97 67 45 19 -6 11 23 32 52 39 15 18 32 31 22 -1 8 25 17 46 48 64 95 68 215 235 140 148 105 50 17 105 87
45 58 67 54 20 -3 72 66 79 69 62 19 59 60 89 68 58 -3 11 13 28 32 36 36 17 19 38 25 5 12 3 -10 4 64 79 129 115 117 163 211 234 160 141 131 92 118 39
50 64 61 66 41 -2 35 59 71 82 84 68 51 76 66 88 33 0 20 33 45 49 25 18 20 13 0 15 13 28 39 11 10 4 13 20 73 103 84 133 107 144 213 151 112 73 108
57 73 56 62 48 11 37 75 90 100 96 84 41 54 49 51 29 37 -22 -7 17 28 21 13 6 9 22 17 34 48 52 22 20 21 7 -10 -2 76 58 56 68 82 85 107 21 63 110
65 76 74 55 50 28 15 65 93 119 111 79 74 4 35 63 68 71 43 13 42 14 27 6 9 5 12 28 39 -3 11 21 30 27 4 -12 -1 18 18 24 14 50 52 16 62 58 37
69 76 87 69 38 25 -3 53 95 114 116 98 72 72 50 90 70 59 39 39 20 21 52 23 11 10 8 5 -10 -15 10 23 49 38 14 13 -6 4 38 38 13 20 72 93 41 66 -9

GFSGBSN_con_3kmhel_027.txt.gz
Helicity
43 36 30 28 34 26 19 9 15 6 10 12 40 105 131 125 135 162 161 114 35 15 19 33 42 72 81 84 84 18 37 67 60 42 31 47 74 84 112 120 142 113 88 81 109 95 62
36 27 25 15 27 19 23 19 21 17 9 14 19 66 120 98 154 115 187 134 41 30 22 33 50 79 75 56 119 56 35 68 94 54 51 57 134 99 158 145 163 143 117 123 63 58 38
29 34 31 49 50 18 34 43 30 28 9 16 14 51 90 118 129 132 141 151 75 68 28 36 47 55 74 60 79 66 37 47 82 63 64 34 93 120 138 103 119 153 61 58 30 21 26
30 69 65 73 28 53 96 63 54 39 11 26 4 45 94 123 127 202 206 182 202 35 44 44 45 55 94 92 72 55 80 66 59 29 51 95 108 128 147 136 74 82 43 66 43 49 47
37 89 68 62 84 82 91 48 48 37 25 13 26 60 90 66 97 170 201 194 243 38 50 67 80 78 88 53 63 50 66 58 111 111 101 104 112 116 109 88 81 55 95 33 72 -17 61
65 67 64 92 96 86 64 41 36 38 27 19 11 20 24 47 52 106 154 196 211 60 76 100 150 99 65 80 81 76 68 70 91 110 162 142 133 106 73 71 92 81 40 72 75 58 0
70 67 91 104 99 62 38 38 35 33 19 26 18 21 24 34 43 61 142 -6 65 248 190 324 125 201 70 92 81 83 50 67 65 81 154 134 135 83 31 28 68 89 113 96 96 79 54
82 76 86 100 88 37 29 39 36 30 20 20 11 17 28 39 14 34 71 -41 269 309 212 154 94 147 94 92 111 99 67 111 102 84 138 131 66 22 59 61 48 50 51 49 49 29 51
66 73 89 90 42 11 27 29 26 23 18 -16 15 22 -3 -35 44 34 66 -108 121 187 210 124 87 58 99 85 115 64 62 73 54 51 51 60 50 49 25 29 32 22 31 37 34 66 41
60 78 50 51 28 27 27 26 19 19 4 -9 15 17 -13 25 18 -3 -57 -53 110 54 269 162 111 134 92 129 101 49 29 91 108 41 46 44 31 38 25 16 16 32 32 34 37 41 5
52 52 83 39 33 31 30 30 19 6 12 3 35 34 23 0 -8 35 -21 68 128 161 227 79 143 79 73 94 81 92 43 99 61 63 91 52 32 14 23 15 44 49 108 72 52 41 71
40 74 57 31 30 33 31 19 13 7 5 32 46 45 3 -13 -6 15 4 59 133 176 139 187 190 142 142 118 106 101 79 126 138 80 35 57 29 52 27 31 25 133 76 50 59 96 83
44 84 49 35 33 32 22 22 16 6 19 51 64 38 -31 -30 21 20 37 -32 182 217 55 111 165 160 115 153 107 80 100 106 88 101 53 30 27 45 56 64 92 96 119 125 59 114 132
44 72 47 36 34 26 28 26 13 27 50 46 29 -8 -33 -25 22 3 130 155 250 100 152 72 102 117 171 126 88 70 63 63 47 56 66 41 52 27 75 65 101 67 105 102 134 84 106
38 67 45 33 33 31 29 27 20 35 38 1 -14 7 20 24 40 50 95 166 129 91 99 91 95 130 170 67 102 81 58 49 45 43 78 62 80 86 67 77 63 104 86 56 98 100 150
34 67 42 29 22 36 27 19 44 31 16 -11 54 30 47 8 23 104 101 71 185 141 37 38 131 92 105 88 94 65 67 27 61 16 31 83 82 69 98 99 70 65 149 176 202 187 128
43 65 46 30 12 31 10 31 47 35 8 55 66 34 26 14 87 104 107 119 126 65 76 60 35 79 41 59 58 43 43 84 1 24 10 51 76 86 109 41 39 117 150 197 220 289 260
53 70 49 24 11 10 -12 33 41 35 84 64 60 94 9 31 142 150 59 215 84 120 125 68 38 49 35 32 80 83 84 108 15 23 41 40 52 52 43 35 58 92 105 47 161 208 263
60 61 53 29 10 -2 -3 49 38 90 91 89 85 84 174 122 122 76 69 201 117 105 93 130 78 104 50 32 88 59 32 42 26 24 30 80 34 50 56 48 -4 59 30 100 203 177 248
60 67 50 41 3 -4 35 44 58 154 104 13 37 112 133 112 120 56 91 137 116 97 74 75 76 11 28 8 74 17 36 37 34 31 120 62 41 -2 -22 -19 33 123 146 138 186 267 181
63 48 48 44 11 -15 32 43 52 111 89 -9 130 80 92 96 105 63 30 91 81 46 60 84 86 76 57 47 37 39 34 42 49 58 60 40 23 19 29 73 55 53 48 108 122 191 227
56 63 43 53 14 -12 33 42 49 97 90 37 96 82 94 93 29 23 40 31 11 35 54 49 38 24 22 31 56 27 12 17 25 57 -5 48 47 19 89 98 23 111 79 68 57 65 98
46 62 59 58 12 -23 16 49 51 73 66 44 81 119 98 80 44 42 27 21 14 12 48 71 38 24 27 59 52 37 16 41 60 -12 -16 44 45 4 33 52 117 6 91 96 57 22 101
33 55 67 77 50 -20 -28 47 62 67 68 21 67 59 96 45 39 34 23 44 26 48 47 42 46 42 41 56 31 18 10 4 -6 4 0 16 1 7 86 120 -9 28 52 114 104 53 26
33 51 68 80 73 17 -46 60 59 85 106 44 58 80 88 83 70 36 42 44 41 31 51 43 30 13 37 44 43 32 16 13 15 14 -4 50 19 30 70 82 127 67 37 75 72 89 20
37 46 58 74 86 51 -25 26 81 93 105 75 34 50 76 83 29 19 11 26 41 43 27 19 27 16 14 26 26 37 31 31 11 -2 7 2 33 56 57 50 44 18 40 49 81 48 6
42 47 51 68 87 53 18 -65 76 99 88 94 32 26 52 95 88 57 -17 32 20 17 28 21 14 23 21 20 32 42 31 34 37 19 11 21 18 48 60 28 49 37 28 60 29 34 31
39 58 64 64 95 69 32 -26 59 98 102 72 46 15 59 103 109 100 63 35 13 17 25 18 7 15 23 14 38 57 35 25 35 27 15 1 -2 17 6 5 11 6 12 9 26 34 51
30 60 68 66 84 87 32 -7 -54 79 112 98 47 34 4 67 81 69 62 56 52 51 7 -4 26 18 4 13 27 42 28 13 37 40 34 32 16 33 4 13 19 7 29 26 42 40 10

GFSGBSN_con_3kmhel_030.txt.gz
Helicity
30 30 35 28 42 34 37 48 41 47 44 50 61 75 54 66 106 121 148 138 152 90 26 19 24 50 86 91 99 40 49 80 49 32 28 46 80 113 109 125 112 102 99 91 110 187 174
26 22 38 66 65 34 40 74 97 91 78 65 57 52 36 55 102 134 145 151 210 171 37 41 22 64 106 78 77 1 8 13 51 31 10 -7 79 75 118 129 129 107 152 102 149 136 114
33 35 45 55 43 48 85 88 101 95 68 20 23 30 23 53 78 126 137 136 200 165 75 30 37 59 86 61 96 118 47 44 87 50 25 28 82 145 232 226 258 224 163 105 99 118 96
61 63 46 61 66 83 79 97 103 76 49 39 22 18 28 19 71 82 119 132 111 209 228 85 60 71 94 82 80 49 55 37 60 120 34 77 114 171 228 184 161 102 75 82 22 29 62
39 55 70 77 112 81 75 76 61 41 45 36 37 24 12 17 26 42 50 103 159 80 209 65 105 94 77 80 80 46 56 62 67 36 89 84 113 180 170 152 129 78 101 65 66 63 61
44 97 74 104 107 75 67 18 16 35 35 26 30 26 11 25 29 41 45 88 153 117 81 99 112 114 99 87 90 41 68 114 76 58 127 139 165 143 145 156 124 89 80 107 105 70 39
72 84 84 67 75 77 27 23 30 26 25 20 25 15 -4 15 28 47 12 -20 133 43 124 318 194 214 45 162 109 75 84 124 86 101 143 72 171 129 65 67 59 157 204 179 201 192 129
82 80 41 78 73 36 35 35 30 25 19 27 17 -1 13 -6 8 5 3 41 143 196 154 154 123 146 123 64 125 82 78 155 125 108 142 158 104 60 32 53 94 133 90 76 58 58 61
65 62 54 92 37 33 36 37 29 22 15 21 4 1 20 16 13 0 -3 77 -65 63 289 145 117 122 78 97 125 102 75 127 107 124 122 86 84 70 76 94 82 86 73 71 72 60 30
69 52 82 87 36 36 38 33 23 18 15 4 4 21 47 3 7 -10 29 48 28 20 348 173 170 134 82 174 103 69 72 138 144 85 62 70 74 57 61 54 53 73 72 88 75 59 41
65 60 86 65 37 39 34 31 31 21 -15 2 34 52 45 13 -17 -3 19 12 -5 52 330 192 278 65 77 154 153 97 50 150 88 70 107 55 61 40 55 51 58 58 130 109 92 86 52
54 62 84 59 37 37 32 42 32 14 8 31 43 59 51 -36 -34 26 38 -58 77 315 386 245 276 157 180 101 173 134 153 159 194 144 67 48 73 57 49 56 101 128 96 42 40 47 40
54 45 87 69 31 25 38 28 10 13 0 7 -11 28 23 36 -12 45 34 31 45 334 93 262 300 147 157 170 158 139 148 144 132 137 78 59 25 31 69 48 77 126 97 58 2 57 46
40 60 74 79 19 11 19 -3 -14 -11 2 8 -8 27 -4 21 20 74 59 -72 190 -6 59 141 158 148 162 138 97 101 97 99 76 98 40 43 21 37 59 71 77 65 87 75 100 69 100
53 60 87 70 -5 -6 -8 -25 -50 5 20 37 59 55 60 12 19 72 26 84 107 1 24 95 93 178 183 120 124 103 78 68 50 70 75 38 49 61 51 44 71 111 64 123 152 104 148
42 74 88 59 -11 0 -5 -20 -6 31 49 82 11 51 43 14 25 58 76 -31 104 37 15 35 182 139 132 98 116 94 69 25 48 36 52 108 55 52 57 66 50 64 106 168 167 113 93
33 66 64 52 -4 5 -3 -17 9 39 100 2 12 24 50 40 63 68 100 97 111 3 -11 97 34 108 41 89 95 81 35 37 33 31 27 87 92 94 122 45 101 122 113 136 197 237 187
41 43 64 58 -1 -5 -9 -35 -8 13 72 48 63 73 73 78 83 53 154 197 203 99 43 49 43 47 67 62 83 50 49 108 3 50 44 76 69 61 70 34 23 77 108 87 197 166 234
30 30 71 63 2 -9 -15 -39 0 31 35 57 62 63 107 130 89 61 134 116 229 150 78 44 76 43 3 19 127 122 106 63 77 43 57 75 55 63 77 68 42 78 73 114 145 145 265
25 22 55 75 14 1 -11 -38 -10 74 57 44 29 111 142 126 59 68 96 81 168 110 111 62 45 15 17 69 106 74 70 39 53 76 115 64 57 53 58 90 51 9 82 99 163 313 269
26 23 30 77 35 -5 -19 -21 -4 101 113 44 9 100 75 75 46 27 66 41 86 47 67 68 66 37 30 64 64 42 38 49 44 58 66 86 43 42 23 9 -40 -3 23 50 129 200 251
23 30 32 58 73 -2 -32 8 -8 87 123 58 17 3 78 97 52 17 3 19 30 33 74 79 72 76 69 36 68 27 17 2 25 45 58 55 19 21 -1 78 54 80 94 107 124 117 172
19 37 37 47 73 47 -26 -20 8 68 98 25 58 68 59 54 65 48 32 20 16 12 70 108 45 43 78 84 61 61 57 78 60 50 44 37 13 0 1 28 15 -4 10 105 134 131 125
11 34 40 38 56 62 19 -72 61 53 92 51 45 48 47 4 25 28 32 21 21 47 31 57 82 50 35 45 26 30 27 4 9 25 34 18 25 23 32 58 20 -6 78 145 163 109 98
3 26 41 42 53 66 50 -25 -30 91 109 65 75 64 80 74 74 41 52 44 40 38 38 50 55 21 20 35 42 29 23 18 -10 -3 15 3 23 25 28 40 82 -3 7 65 113 96 94
-3 26 32 47 55 64 72 39 -69 71 92 60 49 66 61 88 76 181 53 28 29 31 35 33 38 33 22 39 45 54 34 28 20 18 12 -16 74 41 48 23 9 15 45 78 112 75 31
-7 14 29 40 51 61 69 61 12 -81 107 94 56 41 85 90 82 95 66 14 20 28 46 33 25 24 30 44 48 50 57 45 14 12 18 4 10 23 47 35 20 24 -10 69 44 55 27
-4 11 23 41 43 54 74 76 49 -26 12 94 98 22 100 94 102 66 120 51 42 43 37 28 17 24 35 42 48 55 68 45 27 19 6 12 4 9 13 13 7 -15 -5 36 65 35 28
-1 17 17 35 31 42 61 77 75 17 -26 98 85 51 17 97 95 81 76 87 82 81 53 37 35 21 11 14 43 59 66 43 33 36 46 28 25 7 -7 0 -13 -35 28 81 58 33 -3

GFSGBSN_con_3kmhel_033.txt.gz
Helicity
24 39 54 61 69 55 48 45 72 83 82 84 71 62 72 79 61 51 139 152 122 133 131 48 45 50 106 116 99 68 93 1 22 62 41 51 125 157 149 123 131 137 124 114 122 107 74
22 62 67 67 72 71 96 106 101 91 96 50 31 42 32 29 35 53 82 156 145 152 225 178 51 65 132 102 73 57 53 83 67 53 38 34 113 91 128 86 144 138 114 170 153 114 123
38 40 65 93 106 99 89 79 103 92 33 34 34 48 38 35 19 17 51 135 125 191 151 165 86 94 121 67 119 80 65 37 3 73 64 -16 79 126 168 200 187 172 187 177 112 85 73
50 68 89 87 94 67 78 94 68 25 26 34 40 41 17 25 33 15 19 52 77 135 127 163 45 166 133 51 109 119 89 74 79 66 67 62 86 94 156 196 199 190 138 92 57 77 88
57 85 95 77 66 88 70 41 37 40 39 36 32 31 23 20 25 26 43 38 55 116 60 124 148 172 116 95 83 66 48 66 56 62 109 114 159 155 160 164 177 143 114 71 123 48 98
52 71 65 58 88 77 29 31 41 44 37 35 32 22 19 8 10 20 50 31 61 76 -5 -30 204 145 105 114 103 77 59 79 89 134 181 159 163 192 176 183 135 98 101 145 134 160 116
67 70 66 73 94 58 45 45 45 37 25 26 25 6 5 10 0 12 2 -38 16 -184 -89 102 139 245 97 47 88 63 74 91 82 90 131 142 134 96 62 92 93 105 140 140 133 196 122
75 74 53 87 79 44 50 35 35 36 28 20 7 -1 2 0 2 8 -25 -7 32 25 16 63 19 221 132 123 129 103 125 179 129 139 121 182 117 60 71 52 65 114 80 54 32 86 69
72 96 35 74 52 37 29 27 36 31 31 -1 11 9 19 22 20 -25 47 17 -2 -62 132 96 131 126 112 103 129 96 118 146 121 143 139 123 79 18 70 108 61 68 64 53 53 24 38
84 67 52 69 29 22 11 21 18 10 5 4 15 31 31 26 -26 -21 6 -2 63 15 170 141 178 145 93 107 151 83 107 142 164 136 151 140 119 112 119 93 99 60 84 89 88 65 64
74 65 54 55 22 10 0 9 -8 -7 -28 -43 6 25 31 14 47 -31 2 105 66 90 335 81 173 134 103 165 152 76 118 164 132 138 161 106 96 105 101 83 84 65 81 69 62 57 27
74 69 53 52 16 -2 2 -6 -17 -42 -28 -18 -1 22 35 9 52 -14 -3 -25 71 217 285 118 229 189 194 75 189 135 155 181 176 124 111 105 86 76 52 83 118 99 73 54 57 52 89
75 59 52 62 3 0 9 1 -23 -11 1 -2 28 64 33 18 -6 35 -1 39 134 179 240 235 287 199 150 171 170 146 177 204 164 180 124 96 61 64 82 88 91 102 83 67 83 88 62
66 66 49 24 -2 2 10 -4 -6 -6 40 106 96 49 68 31 39 48 39 184 166 390 197 283 225 225 220 166 157 179 162 145 157 128 129 81 53 75 47 68 25 84 59 70 57 58 49
61 49 42 20 -9 -1 -8 -19 -12 2 61 31 25 69 66 38 47 43 55 -47 92 154 199 239 263 268 212 173 149 140 126 93 114 107 67 62 54 59 40 73 86 64 55 110 114 90 120
65 48 24 36 -14 -6 -19 -38 -23 13 49 37 53 64 84 23 22 6 57 55 94 33 80 160 257 137 136 129 127 118 85 52 57 37 71 83 49 72 47 54 54 64 75 120 125 59 54
45 46 29 30 -8 -2 -23 -25 -18 -3 53 29 33 76 104 57 53 12 101 101 134 5 103 158 135 125 97 145 80 86 34 46 46 34 68 85 67 63 68 45 64 99 81 93 121 138 99
38 45 27 31 -5 -3 -28 -25 -4 26 42 29 71 113 79 59 59 174 124 52 36 107 166 97 39 70 95 120 83 94 45 58 12 79 68 77 52 56 27 16 65 112 106 163 146 63 166
35 47 23 24 5 -17 -32 -18 26 42 11 83 181 159 86 75 123 210 187 147 118 37 34 36 40 73 80 126 67 66 76 104 14 41 56 76 42 63 62 89 68 77 83 111 90 171 213
33 47 22 23 19 -11 -15 -12 36 87 27 41 88 1 46 84 111 125 151 153 84 63 50 38 19 7 18 90 98 53 108 95 97 75 53 80 42 38 17 57 101 85 40 64 149 192 210
39 50 31 12 38 4 -10 -29 38 109 84 30 0 -24 40 40 62 25 98 104 64 71 74 42 31 -31 14 101 53 71 58 80 108 116 96 74 43 42 -11 -17 -40 -22 20 28 127 170 250
33 41 35 3 18 17 -35 -21 31 91 109 10 13 7 27 27 51 4 25 48 19 47 93 63 61 75 70 70 49 32 35 44 35 71 98 82 45 46 16 32 -13 -1 39 65 132 173 236
36 31 31 20 6 27 12 -22 -1 84 62 -1 42 51 16 34 19 11 26 11 6 17 68 89 67 67 78 66 51 63 50 48 37 68 70 68 35 -10 -5 20 -10 0 -38 23 67 145 161
37 24 23 22 16 21 26 5 -20 89 81 29 46 35 23 32 30 29 24 18 15 13 18 65 65 40 38 30 32 35 43 32 54 41 68 44 25 15 19 43 26 18 29 69 125 131 115
38 30 25 16 27 27 26 18 -3 -35 79 32 61 85 83 90 77 60 42 40 33 49 49 46 61 36 26 37 57 48 40 25 -1 5 47 56 29 23 28 33 38 3 -3 34 88 59 86
37 33 22 9 13 31 39 25 13 -15 90 59 36 88 105 87 55 61 63 47 38 40 29 34 22 22 24 43 59 42 33 30 27 24 10 22 58 28 33 40 25 15 15 41 85 34 74
39 42 21 17 0 20 33 39 31 2 -7 23 39 65 82 75 89 113 119 84 67 44 38 29 27 33 31 48 56 53 56 46 22 8 15 34 28 43 49 44 30 37 4 90 5 38 47
32 46 28 23 7 11 18 31 33 35 15 45 14 23 90 97 87 83 99 113 101 54 20 16 32 30 42 47 53 62 54 56 44 27 17 29 24 22 22 26 9 0 4 25 70 59 28
29 43 30 24 14 16 23 29 37 39 37 39 63 6 16 98 108 95 110 92 45 57 24 36 21 22 16 41 41 58 64 67 59 36 42 27 17 7 17 -20 -25 -30 -9 48 43 55 31

GFSGBSN_con_3kmhel_036.txt.gz
Helicity
57 50 42 75 91 79 84 78 83 114 114 59 35 23 29 51 36 29 26 31 73 113 218 152 134 65 117 119 85 47 93 8 25 108 91 116 170 177 194 144 167 153 174 135 94 99 97
68 52 78 87 79 47 71 91 97 84 50 31 31 34 49 20 39 52 26 35 44 135 188 148 168 80 123 110 56 96 57 37 52 92 87 112 111 100 142 140 143 147 97 109 110 99 113
52 92 97 76 46 70 97 75 40 37 44 45 45 51 35 13 19 28 29 19 25 75 168 175 143 119 129 53 109 74 80 52 91 70 76 32 81 158 130 171 113 150 168 191 149 101 95
77 81 72 58 61 94 91 39 47 37 32 41 40 35 32 18 16 22 27 24 30 68 123 223 132 79 141 41 121 129 99 98 55 76 40 31 71 111 139 185 184 178 171 145 113 80 71
61 80 72 38 84 110 56 40 21 15 20 27 24 19 16 16 12 24 30 40 33 70 86 198 57 89 150 102 62 86 90 90 89 87 104 141 131 126 125 189 210 195 159 114 114 65 91
75 67 65 61 97 86 28 20 21 18 15 29 18 7 -7 12 2 9 6 18 71 48 42 55 42 183 150 128 81 74 62 95 101 130 152 165 131 149 151 185 183 120 120 114 109 158 146
72 71 69 65 93 56 17 10 12 14 11 20 17 -22 15 12 10 31 5 -47 23 12 108 114 92 177 89 85 121 60 84 88 107 134 148 138 158 216 144 76 112 149 150 147 131 128 90
78 71 65 92 122 39 17 8 13 15 6 -3 -18 -20 23 16 16 14 -17 -27 18 12 144 90 185 188 82 120 141 60 81 127 108 152 155 149 112 29 80 114 92 117 133 99 66 62 45
75 66 64 105 132 34 13 17 15 6 -19 -22 -39 -30 13 13 23 -3 -36 1 -13 15 68 36 183 236 105 117 140 117 77 125 118 136 156 169 79 62 62 74 72 81 80 64 62 33 -27
55 61 67 124 92 28 21 19 17 13 -21 -22 -20 3 35 22 -6 19 -9 -28 1 49 -130 96 31 154 100 110 189 172 115 138 131 102 25 49 104 69 84 141 132 109 74 54 50 36 60
56 52 73 143 54 30 28 22 12 1 2 -6 4 -3 4 -10 22 -3 13 10 40 87 133 128 139 105 159 159 121 112 188 130 138 163 130 109 79 71 75 81 98 84 81 50 31 31 18
48 58 76 114 32 26 15 6 21 9 0 50 56 35 35 -34 22 23 18 16 96 165 278 265 234 162 201 135 192 148 204 161 121 184 196 142 115 116 93 133 120 76 93 70 36 20 58
37 52 66 88 23 14 -7 -3 11 2 33 48 23 26 17 32 40 25 36 76 90 223 232 238 241 168 146 206 186 206 171 160 147 161 181 161 129 116 119 149 143 114 94 85 96 80 53
29 41 62 85 18 7 -7 -5 8 -10 57 56 36 35 51 33 23 57 102 196 32 185 195 174 198 179 194 172 183 113 154 137 165 123 175 92 76 59 78 68 42 75 64 58 67 55 51
27 42 68 66 20 7 -10 -9 -5 22 57 29 57 67 87 68 32 86 107 279 225 256 387 243 204 215 202 156 153 126 133 113 100 99 73 113 91 71 50 77 71 62 70 64 66 46 48
28 35 51 59 17 -2 -16 2 7 56 38 15 73 87 112 81 33 31 139 272 279 321 145 222 243 156 180 130 135 128 110 64 73 75 85 67 75 77 63 71 84 65 72 86 98 47 36
26 33 49 48 27 -14 -25 20 30 50 48 50 77 80 99 48 59 241 280 137 151 186 238 203 106 141 157 126 90 111 57 74 23 60 80 75 51 82 59 43 59 89 63 75 86 86 49
27 28 41 44 42 -5 -19 52 55 49 37 41 66 87 147 163 176 110 129 164 106 225 205 162 72 122 130 116 103 77 33 106 49 53 54 80 47 58 40 50 41 70 63 106 88 61 96
33 28 36 35 33 -29 -43 60 83 44 38 78 67 110 148 139 104 90 149 86 129 92 75 57 47 66 135 94 58 71 56 76 4 61 90 60 55 71 54 63 73 50 74 106 115 71 141
17 31 30 34 20 -10 -57 -25 122 93 60 15 51 39 75 73 97 71 65 60 29 60 40 19 35 57 126 88 77 66 87 103 69 40 49 62 30 25 15 22 48 54 62 59 69 81 137
11 21 28 32 13 4 -54 -30 92 151 101 -2 10 3 40 87 101 71 39 35 8 22 51 11 -11 -9 26 68 70 70 84 107 114 78 69 56 28 30 6 -2 10 -16 -34 -8 140 207 175
49 7 24 32 25 8 1 -56 18 164 108 -11 -1 -21 -2 82 52 80 21 18 20 38 31 22 -21 1 38 57 67 43 45 78 52 87 72 79 41 41 19 27 2 7 -2 25 84 102 145
59 17 15 27 35 17 10 4 3 93 87 -16 -5 -11 -7 -16 14 8 -17 -21 1 24 44 64 6 31 84 51 74 63 36 35 25 102 147 72 43 12 20 37 2 -2 -17 -4 38 81 163
33 22 25 18 32 31 18 5 6 51 116 9 -26 -23 -2 -12 1 2 1 10 6 4 14 58 71 60 33 37 36 70 86 70 52 45 94 64 50 20 16 22 9 20 15 16 80 105 144
8 26 29 22 20 30 33 14 -7 10 80 19 18 -23 -23 5 11 48 79 51 46 52 58 53 49 25 29 49 70 63 63 49 29 26 35 52 41 17 14 14 18 45 8 34 37 78 49
39 12 29 21 22 24 25 25 8 0 9 39 18 66 10 5 24 39 62 59 45 41 52 34 28 23 38 55 63 57 33 24 22 23 43 49 30 8 14 21 39 29 20 22 33 11 36
55 14 21 24 23 28 24 27 13 23 22 24 44 82 37 14 8 74 63 91 65 53 54 49 28 42 46 65 57 47 57 57 37 15 23 36 15 22 15 19 58 37 11 17 8 -15 63
74 58 27 21 22 28 29 37 16 20 42 69 59 89 111 68 8 87 98 81 77 41 56 41 59 44 62 66 61 58 52 54 43 27 26 32 19 33 23 13 35 23 22 4 17 35 29
85 76 40 16 15 28 29 39 39 46 39 79 76 113 84 98 83 104 104 96 67 62 59 32 37 34 34 60 55 54 51 54 53 43 59 28 23 15 15 28 34 15 13 16 12 13 22

GFSGBSN_con_3kmhel_039.txt.gz
Helicity
52 45 64 64 61 70 78 102 126 81 56 25 15 20 36 43 31 60 54 45 21 40 98 199 161 165 184 180 115 21 138 46 36 65 72 144 207 251 208 172 215 179 195 129 89 85 58
34 68 49 44 64 82 110 120 90 52 37 22 14 17 40 32 23 32 27 37 36 23 53 149 204 174 69 95 42 49 58 67 40 83 113 149 153 177 164 150 158 127 103 108 121 93 74
58 46 49 52 75 91 117 93 59 44 40 28 11 26 35 26 19 24 31 28 30 26 29 107 198 142 71 51 66 117 76 15 60 117 141 127 110 172 164 176 130 153 133 126 99 98 93
53 45 52 56 72 84 120 73 37 35 40 30 16 28 24 20 11 18 16 20 34 39 70 96 88 88 47 46 82 174 87 90 82 90 72 71 104 140 171 179 182 172 173 149 144 116 97
56 45 53 59 76 109 99 49 53 42 41 21 21 27 8 -2 12 11 3 23 36 36 68 77 34 83 86 60 69 111 137 86 76 75 59 85 103 135 155 185 228 212 169 158 147 81 110
47 52 48 63 86 103 95 52 51 26 27 15 22 12 -33 14 13 17 21 33 27 51 36 29 2 118 98 103 73 100 132 91 118 121 109 151 132 141 170 209 201 187 126 119 121 142 127
52 51 52 77 102 107 73 53 53 36 5 -1 15 -11 -17 8 7 7 -13 -16 22 32 47 120 66 234 20 69 132 93 99 132 135 133 138 181 152 155 115 85 139 139 154 151 147 120 109
57 45 58 67 111 66 61 55 42 28 3 -26 -3 -6 8 2 -2 13 30 -35 -10 33 100 119 170 174 215 134 91 79 77 115 108 107 141 158 114 96 125 112 128 161 165 149 108 71 78
42 50 56 76 91 52 44 42 32 9 4 -0 3 4 10 19 2 32 59 -4 -30 23 108 142 101 -3 161 89 108 116 65 116 106 130 99 126 54 79 125 153 106 103 97 75 68 70 19
44 39 63 72 92 44 47 27 31 13 -12 15 19 24 -2 -3 -2 32 -34 -11 4 54 210 133 27 70 167 77 157 86 66 108 123 148 187 119 85 30 -14 59 108 118 63 55 69 73 69
45 34 64 71 95 45 45 27 25 24 46 44 28 28 7 16 37 -35 -12 -4 53 105 331 126 40 131 129 155 104 71 109 94 121 114 132 115 154 61 66 73 77 80 74 67 44 37 39
37 33 74 78 53 42 39 26 23 32 40 31 24 16 14 9 14 6 -0 44 67 230 270 179 139 153 163 110 206 145 147 142 160 145 58 65 118 110 82 115 84 66 99 80 54 28 78
41 38 62 62 71 43 36 19 16 25 11 29 33 39 40 45 24 46 71 80 97 351 251 170 189 198 147 120 168 139 226 185 140 145 160 167 139 116 103 149 170 122 101 96 112 123 64
34 35 64 54 60 39 32 13 -14 22 3 15 45 73 39 29 63 71 96 76 523 357 245 170 213 175 189 139 199 149 208 175 154 140 200 113 105 90 88 81 63 108 80 74 80 86 62
28 34 47 46 51 40 31 4 2 41 14 -23 23 90 64 84 71 122 61 172 273 429 393 205 212 215 237 216 154 184 156 152 120 112 96 113 111 106 73 77 70 68 88 80 44 17 36
17 41 41 37 47 24 13 -18 7 25 13 -12 47 83 103 71 64 81 117 127 358 355 253 193 209 134 153 122 118 124 113 72 98 99 84 54 83 87 85 101 129 59 55 79 102 48 44
10 35 39 25 18 18 -17 -23 -23 53 -4 32 83 96 168 137 148 94 57 116 165 260 153 110 99 120 112 121 64 85 104 88 67 67 85 70 65 78 67 47 49 88 84 87 77 62 33
18 19 35 30 4 18 -21 -21 -5 36 35 31 88 87 159 141 25 56 72 94 123 163 134 86 70 148 93 89 78 75 44 34 50 65 61 67 37 60 53 55 42 49 33 72 75 46 86
13 11 31 32 14 -0 -11 -19 16 50 23 51 57 109 83 79 14 16 3 86 80 74 76 53 37 71 77 54 77 62 35 45 40 39 28 32 54 67 55 48 62 43 60 81 94 76 62
18 15 23 28 21 8 18 5 36 94 78 33 34 8 70 53 42 84 38 51 35 33 37 40 62 61 107 76 58 52 57 75 30 34 48 51 27 21 22 26 34 41 48 76 136 84 71
18 9 18 24 31 5 15 27 48 103 94 20 14 19 24 48 47 66 65 58 44 35 44 59 51 61 83 54 70 58 72 90 98 64 94 61 11 17 20 15 17 4 3 38 100 41 37
12 9 6 12 24 12 16 15 52 110 13 -19 16 -0 1 36 63 50 35 26 4 52 33 50 28 44 38 51 45 42 56 80 54 69 65 82 37 34 37 36 16 12 -13 -8 15 26 115
17 26 -4 -8 13 21 5 14 24 100 82 -12 -14 -3 2 5 -7 7 -2 -22 3 -1 18 -0 -11 15 55 31 49 52 65 66 31 69 112 64 41 9 28 57 32 16 19 -0 27 50 113
33 31 31 -35 -9 23 7 15 19 31 85 -11 4 -8 -17 -10 -20 -16 11 -5 -6 4 21 42 38 32 13 19 40 74 84 77 55 62 96 64 62 32 30 55 12 16 41 -4 37 59 158
31 34 38 33 -25 4 27 13 17 23 40 49 29 6 -6 -14 -18 -15 -9 -9 24 36 65 68 65 35 21 38 62 74 83 62 37 32 48 63 64 44 47 23 8 3 15 -1 26 62 22
50 46 60 47 47 -14 23 25 12 23 34 36 47 69 34 -14 7 5 9 7 2 40 65 77 71 64 62 68 77 48 40 43 41 39 69 71 67 27 22 21 29 54 42 23 33 42 16
74 62 56 38 57 11 2 23 23 25 28 39 47 56 69 41 49 116 67 44 40 29 39 55 46 71 84 85 84 60 43 53 29 15 25 40 22 5 6 24 30 72 31 9 31 10 9
73 62 47 56 60 46 2 16 4 12 25 57 64 76 102 104 8 112 152 164 129 66 57 27 73 72 89 87 75 66 57 56 53 34 17 16 16 24 17 15 26 28 38 18 5 5 14
69 63 51 66 78 75 13 20 24 16 25 54 61 108 119 94 80 154 123 156 115 98 92 62 38 51 57 88 77 78 69 62 53 55 82 33 17 12 5 16 26 22 37 15 3 8 21

GFSGBSN_con_3kmhel_042.txt.gz
Helicity
40 59 46 40 44 52 57 89 80 56 42 39 45 42 40 27 36 54 60 35 58 49 40 17 100 187 100 134 170 42 107 88 42 93 91 177 175 222 187 180 209 171 169 147 115 115 59
64 57 49 46 39 48 63 77 54 38 40 23 50 35 24 29 38 45 35 19 26 20 34 35 85 202 51 21 45 42 31 79 116 93 107 154 165 191 156 118 172 87 144 129 115 60 37
64 58 50 47 61 52 77 68 50 39 36 23 37 24 35 36 22 26 16 18 33 35 36 32 78 139 105 102 63 103 49 53 74 78 131 134 130 168 112 156 117 129 122 126 63 58 63
81 53 63 51 52 74 67 53 43 34 51 19 40 23 35 20 -4 -6 15 22 27 32 23 54 56 96 114 101 79 230 130 56 102 109 96 131 123 158 152 161 178 153 131 138 113 87 92
79 67 69 67 34 79 45 44 39 66 40 2 16 22 15 -18 -1 4 6 0 46 57 36 52 49 74 136 -1 52 86 100 66 108 88 86 71 136 132 160 173 212 197 124 160 158 59 108
86 73 55 69 81 39 29 42 43 56 15 22 9 9 3 -7 3 9 -6 11 33 14 35 27 51 117 159 101 61 45 74 91 148 103 130 79 115 162 163 189 206 191 183 124 105 108 110
86 66 68 71 70 35 32 37 31 38 23 15 4 5 25 2 -8 -1 -8 19 -8 30 55 40 107 207 102 85 163 96 94 149 143 120 107 118 163 137 132 146 140 125 133 125 129 116 91
70 74 71 67 71 44 25 50 31 19 -13 2 16 18 22 12 1 -4 57 66 -54 0 35 62 168 1 289 102 152 142 133 149 159 97 98 267 163 86 106 103 129 137 134 130 118 91 60
85 79 60 50 80 21 32 41 21 4 -11 -6 12 11 13 12 13 48 62 -39 26 10 78 94 -104 57 239 63 137 124 123 115 119 90 73 37 89 95 82 105 113 135 117 100 81 85 24
77 76 55 48 62 36 29 27 26 8 -4 -2 24 19 8 34 26 26 -35 -5 3 24 159 107 -93 103 160 75 82 113 99 123 153 80 81 99 67 79 100 91 119 121 76 72 111 102 64
65 66 48 51 65 39 28 17 23 -3 -11 -4 13 17 36 50 36 1 3 25 12 99 216 89 85 112 137 113 114 104 89 172 115 155 110 100 73 -21 38 57 97 151 86 78 76 81 75
60 43 29 33 54 44 18 21 24 -4 -19 -19 44 21 49 49 37 32 36 30 51 274 150 14 3 122 128 95 189 152 78 165 163 161 122 119 150 109 82 121 51 52 115 90 58 43 82
45 60 39 46 43 42 9 19 15 -2 -38 34 61 48 59 56 66 86 66 49 252 186 119 57 77 139 139 144 170 159 149 134 115 131 183 154 155 169 107 142 122 98 106 98 88 103 64
36 35 32 37 32 25 1 2 19 9 -22 -10 52 72 59 87 72 58 23 139 208 226 159 111 144 108 152 161 116 128 131 228 126 85 69 24 44 60 89 70 49 95 76 76 83 89 71
32 24 25 15 30 11 4 7 26 10 6 7 59 73 42 80 104 83 255 319 236 145 203 149 146 191 171 158 113 123 168 114 106 82 62 97 99 109 76 71 87 68 85 85 47 20 64
29 23 19 13 12 9 -13 8 28 22 20 36 91 103 122 77 93 137 147 104 168 248 288 141 124 93 89 89 126 125 129 124 101 104 99 50 87 84 79 87 121 77 54 97 105 77 104
34 24 11 21 8 5 -6 -3 23 33 36 85 82 34 116 128 49 34 -21 56 159 126 81 55 43 79 58 74 43 89 76 100 107 104 73 59 69 95 78 65 52 89 78 90 63 64 55
36 14 12 24 5 4 4 39 70 34 35 28 81 14 74 49 -17 64 59 46 97 133 94 46 50 80 52 62 75 71 67 46 82 56 72 70 40 54 64 49 55 51 34 64 56 43 64
32 2 16 19 25 11 6 25 87 81 6 18 49 48 63 55 15 90 91 92 93 64 64 36 37 40 48 71 46 64 57 40 44 70 19 38 59 66 59 45 57 34 51 75 84 79 37
20 9 22 33 23 20 10 14 50 110 50 6 33 14 13 4 32 52 43 17 30 42 29 43 65 71 89 79 61 34 48 78 6 78 67 57 37 24 16 20 25 41 55 97 96 69 70
16 18 32 33 24 32 13 9 34 108 81 -14 3 20 17 9 36 50 37 28 12 28 37 73 66 47 64 46 43 37 49 56 61 76 79 44 17 17 24 15 25 20 17 40 77 100 48
28 23 26 36 19 11 11 9 28 63 76 -20 -11 -3 -11 21 39 42 3 8 11 -4 12 22 44 76 61 25 14 17 57 71 59 99 88 84 21 5 22 30 8 15 -7 14 1 22 72
54 31 27 42 26 15 14 1 24 58 18 -7 -25 -8 -10 -7 -6 5 18 13 18 33 28 29 37 48 59 41 29 40 79 78 39 68 87 60 41 27 25 38 29 13 8 40 98 81 53
76 44 41 44 33 28 35 15 12 39 26 -9 25 0 -10 -19 -26 -13 -7 25 18 18 12 37 23 10 6 0 41 77 104 87 44 68 67 65 68 22 21 49 26 17 52 57 72 34 59
75 54 62 58 48 19 19 31 18 25 40 11 18 28 4 -31 -35 -19 -20 -11 28 39 38 46 51 42 27 45 69 68 61 59 58 51 57 72 75 39 35 32 21 24 36 40 11 49 25
72 57 76 68 45 15 -2 21 24 28 24 8 17 17 33 17 -11 7 13 28 25 31 78 68 74 69 66 67 68 47 41 45 52 55 88 91 81 60 32 32 23 42 109 45 31 45 64
74 73 84 79 53 29 -3 7 10 15 24 -1 16 24 41 38 33 51 35 54 90 82 80 76 81 77 87 79 80 62 54 56 41 39 54 75 67 56 23 30 51 16 80 36 43 35 33
70 76 70 66 41 39 20 -8 42 15 13 22 15 14 55 67 61 69 114 113 137 116 94 73 126 92 89 78 71 65 72 65 69 52 39 52 31 38 35 36 35 35 72 52 39 30 23
92 47 36 56 42 28 21 -4 26 15 6 22 18 36 66 64 62 53 77 79 105 142 167 133 118 89 76 94 77 80 67 78 76 62 82 30 24 20 16 21 19 27 47 57 23 10 14

GFSGBSN_con_3kmhel_045.txt.gz
Helicity
43 69 50 60 76 55 48 59 48 49 40 36 36 30 49 41 34 47 50 32 41 44 48 54 60 31 86 134 122 94 187 127 32 73 75 126 171 198 173 181 220 204 146 166 125 125 109
54 68 57 66 70 51 53 43 39 38 30 26 16 36 39 40 42 39 22 29 39 38 38 30 47 66 119 132 70 31 108 170 60 91 69 134 152 215 163 156 170 90 140 96 95 77 76
42 94 67 68 54 54 31 34 41 26 29 34 7 18 31 37 25 13 -7 -0 17 26 33 37 51 44 134 137 50 9 12 161 63 74 87 149 113 176 131 138 123 110 104 106 77 73 69
51 94 81 72 61 54 29 38 33 34 23 8 7 39 20 29 2 11 16 -1 6 26 25 24 55 39 110 87 43 143 42 127 65 40 81 133 131 175 163 132 167 171 149 114 84 62 75
44 78 71 66 46 46 43 34 34 26 28 7 16 23 5 14 -8 3 13 54 34 21 13 15 54 46 143 79 -19 34 49 85 40 78 96 129 128 173 199 173 198 169 117 134 174 69 86
59 77 61 53 48 27 33 47 37 18 4 8 25 18 26 17 9 -6 1 33 15 15 33 36 45 80 129 136 77 81 -10 35 91 74 81 103 130 166 182 197 174 177 206 142 113 90 94
65 84 57 52 68 38 29 41 43 28 14 15 24 16 -2 11 19 5 -3 25 18 5 53 32 58 125 103 67 93 98 59 67 65 88 170 114 200 123 146 183 132 115 139 128 113 107 79
73 74 44 54 59 42 28 37 27 26 18 14 16 23 11 -5 22 16 48 62 -6 -11 20 8 87 103 177 232 44 167 96 130 112 148 197 158 87 98 114 131 133 125 148 138 156 124 74
63 73 34 42 55 33 15 21 30 17 28 25 -0 7 6 19 69 29 28 -30 13 -1 38 49 -69 103 169 189 84 113 62 114 113 165 167 120 92 91 107 163 156 163 142 142 132 119 50
67 59 36 39 43 25 21 26 31 22 20 31 -2 6 11 53 25 18 1 31 24 35 103 49 67 138 163 89 119 144 71 192 122 -9 83 126 207 85 80 69 115 158 125 117 107 122 112
74 42 31 32 36 32 23 30 20 19 9 32 20 -7 64 32 58 71 59 37 22 92 126 72 202 79 126 89 143 150 134 140 91 99 46 131 55 70 51 87 145 127 77 114 126 122 102
66 36 25 29 19 36 13 16 11 17 20 15 36 27 57 43 38 54 20 20 103 171 237 236 170 131 123 90 177 175 155 159 165 166 227 107 77 72 107 149 115 91 157 149 125 117 110
53 32 27 22 21 23 9 21 21 23 18 14 15 41 80 60 196 53 92 173 161 190 193 201 150 137 121 115 196 146 134 145 92 101 117 122 150 81 42 98 121 82 111 185 206 179 111
49 38 30 9 20 12 -1 20 22 31 25 24 55 71 60 87 73 110 122 195 131 163 156 133 148 68 157 120 104 139 147 159 119 96 124 87 109 122 83 78 58 79 98 117 157 136 106
56 36 19 13 17 10 4 4 40 37 32 30 52 49 89 92 92 124 88 76 132 141 89 85 123 147 138 157 95 97 63 119 104 88 94 99 106 70 91 70 81 73 83 74 68 75 86
59 37 16 26 16 13 11 49 55 53 32 21 93 65 93 102 84 53 82 37 15 54 63 53 65 58 66 71 95 61 52 112 85 64 54 60 40 87 69 78 107 77 74 88 99 72 92
82 41 25 29 23 20 25 58 82 63 70 40 59 57 79 72 52 39 114 85 112 83 40 30 53 15 28 43 45 108 82 73 68 86 87 62 57 86 58 55 50 89 78 91 83 75 83
92 48 27 40 42 17 40 53 74 80 85 21 44 42 55 20 -0 66 89 79 96 69 39 11 26 44 36 53 79 76 58 48 78 65 77 73 42 55 81 54 53 54 41 67 65 55 72
87 55 34 35 49 25 25 48 55 74 65 3 28 40 45 16 34 57 63 62 68 49 39 32 24 27 46 54 45 65 70 72 64 91 48 40 59 61 57 52 64 48 53 71 79 69 32
93 59 33 36 40 31 13 39 53 57 64 28 19 29 18 1 17 29 -3 30 4 23 10 27 47 41 52 46 68 57 62 89 42 86 75 64 60 36 20 26 35 44 53 67 68 56 53
94 64 42 37 25 30 24 17 51 69 45 38 15 22 19 22 12 20 16 -2 6 14 30 48 57 51 43 48 55 43 79 91 83 55 90 72 41 37 34 32 35 38 33 41 65 96 30
94 85 61 35 28 31 20 12 51 73 31 37 37 -3 4 1 13 7 6 -1 -3 -0 18 38 43 62 62 38 24 -26 40 65 40 82 83 80 25 26 26 28 22 33 21 19 5 26 35
109 104 79 49 53 47 31 27 38 56 8 -0 46 50 30 -11 -9 -1 6 8 10 -15 -10 12 18 49 56 48 34 36 64 71 35 65 96 64 41 43 28 36 31 29 20 58 94 71 46
131 115 104 75 71 65 40 29 35 36 -0 -23 6 59 63 -24 -11 -5 -21 -6 21 17 10 20 24 25 18 23 56 86 120 104 74 86 70 84 68 48 37 49 38 30 37 38 102 70 75
140 114 102 92 88 77 47 32 44 53 11 -9 -1 28 74 56 56 -5 -12 -22 -15 42 35 34 43 29 29 43 67 79 78 77 75 77 64 63 64 47 41 43 38 34 44 56 39 48 49
119 110 102 94 105 92 49 26 29 42 30 -19 -3 2 34 54 82 100 78 43 7 23 38 65 73 77 74 73 63 45 48 35 47 55 104 93 83 59 40 40 32 40 78 57 48 62 91
98 96 83 60 58 59 37 24 23 27 23 -3 -20 -0 24 48 57 83 99 99 101 83 53 88 80 89 94 91 80 56 51 55 51 42 55 88 78 70 55 43 43 28 71 56 60 59 87
79 80 64 49 40 40 41 31 12 15 20 9 -7 -8 23 40 69 90 101 97 153 140 118 107 138 118 112 98 94 74 73 60 63 47 49 52 54 65 73 50 40 41 82 59 73 59 58
73 93 65 52 52 46 34 29 16 -5 -27 21 25 24 41 53 55 44 54 30 66 83 215 191 158 104 108 134 107 96 90 85 83 57 91 56 55 35 24 35 33 19 48 71 104 82 45

GFSGBSN_con_3kmhel_048.txt.gz
Helicity
48 59 61 61 57 64 64 53 51 40 33 31 26 27 15 25 34 41 32 14 28 32 39 44 52 58 46 105 162 90 142 171 33 56 68 76 98 152 126 169 145 154 122 123 110 91 93
57 63 58 49 64 86 60 42 36 34 33 28 7 20 38 40 21 27 27 15 -5 7 18 28 44 68 47 96 93 35 82 144 42 42 57 65 87 130 142 132 152 134 156 77 83 84 77
46 51 51 54 69 61 51 41 27 34 31 15 22 31 37 38 25 -0 26 21 8 4 12 23 36 50 59 112 115 79 89 184 64 66 55 69 87 134 121 146 173 178 109 103 89 81 63
56 50 55 48 63 39 29 15 28 20 17 10 25 25 39 14 19 -1 -5 46 29 13 11 18 25 44 51 42 122 72 116 231 66 62 47 75 68 130 112 114 97 93 133 83 54 47 91
59 49 56 50 49 36 26 27 17 5 21 9 24 23 23 26 12 -6 3 -24 11 10 -6 10 31 45 65 53 108 73 40 138 46 28 51 82 43 110 140 86 123 105 74 62 48 66 60
54 52 51 40 40 25 19 26 7 20 27 26 38 14 15 9 15 9 -10 -16 20 26 36 2 46 49 72 120 67 45 64 69 35 45 141 84 106 104 89 111 106 96 117 99 77 92 87
58 45 44 36 37 22 16 18 17 7 26 34 48 15 -2 15 51 12 5 16 45 13 16 31 36 109 100 154 -2 115 79 117 92 119 150 63 196 124 88 81 176 76 68 84 103 91 92
47 40 33 35 34 24 26 25 12 3 11 25 51 41 3 39 36 39 15 7 24 -2 8 22 60 139 -8 224 89 67 101 171 105 92 106 122 69 95 69 80 107 36 61 101 124 87 89
48 31 38 30 31 23 21 22 -1 4 -6 8 36 54 39 54 38 11 6 -1 28 42 49 10 30 86 83 205 22 63 50 67 91 99 68 92 62 66 67 81 101 110 78 97 143 106 76
53 35 34 32 24 24 14 17 3 11 -9 2 25 44 34 121 85 71 62 57 47 48 64 154 130 56 175 113 111 106 90 219 212 181 239 131 137 31 49 68 78 106 153 134 128 138 124
53 40 34 39 20 21 -2 21 1 18 7 8 8 41 96 65 105 111 94 71 64 52 286 159 153 75 155 114 112 93 55 98 205 218 145 152 127 63 53 43 69 151 115 132 140 142 141
62 47 35 32 20 9 5 15 14 25 25 7 24 38 114 136 121 100 99 67 88 291 322 192 102 107 56 75 148 108 53 11 21 21 24 142 176 172 193 202 122 60 143 178 164 158 146
63 51 40 28 26 4 9 4 27 42 25 -18 10 48 77 74 56 48 56 88 268 232 150 173 188 123 73 166 147 134 111 94 56 64 83 106 124 99 100 165 188 135 127 210 192 172 179
61 58 40 22 30 6 -9 19 57 38 22 25 -20 56 83 56 52 70 81 166 102 239 137 160 159 67 71 106 105 97 118 76 82 53 109 111 104 96 79 100 97 109 137 243 207 160 152
63 65 38 23 29 8 -16 11 70 67 32 45 38 50 60 89 91 63 105 67 74 109 111 114 93 66 70 87 80 64 126 106 77 82 50 89 115 79 72 53 62 84 83 133 164 156 180
63 67 44 34 32 17 1 24 39 101 68 12 81 52 51 52 20 -10 39 30 30 56 68 87 89 61 28 39 79 91 72 77 70 77 115 57 79 76 58 70 100 106 74 91 100 99 128
92 81 47 27 22 22 -3 21 45 60 124 13 65 63 60 42 7 -2 32 55 25 53 75 75 43 36 24 35 49 68 23 41 58 43 34 48 60 71 48 52 41 70 86 104 102 94 103
99 87 55 35 11 20 8 10 45 50 105 31 35 35 49 51 19 -0 17 40 64 51 41 33 22 21 24 64 66 74 46 39 54 48 47 58 53 82 66 48 60 68 68 79 89 58 49
83 78 58 31 21 12 19 14 47 52 37 35 7 22 32 29 28 12 6 47 49 35 36 35 23 30 31 38 39 50 61 57 58 72 47 35 49 65 46 34 55 44 49 63 70 56 48
77 81 61 37 48 19 23 16 37 73 46 8 12 14 18 19 7 24 4 2 7 4 6 14 22 28 28 32 45 45 69 83 61 68 96 71 54 63 53 55 59 65 49 45 69 45 40
90 84 71 58 60 37 16 9 34 95 62 -13 45 29 10 -9 9 17 6 -1 -1 7 12 20 25 19 21 23 33 32 64 80 84 75 73 66 38 64 63 52 41 46 38 27 53 58 30
95 85 80 71 74 63 41 9 24 91 70 -4 32 51 69 -8 -1 14 -2 2 13 5 19 26 29 54 45 32 29 -5 35 62 52 56 63 80 44 47 28 28 21 34 24 14 7 -6 11
87 100 91 81 85 83 64 32 19 65 51 -13 8 27 58 49 2 2 -2 -1 10 15 5 8 29 60 60 57 50 46 40 65 45 25 89 70 42 31 11 34 23 15 33 43 45 53 17
101 112 100 81 84 98 74 62 30 51 40 -4 24 19 51 62 81 59 26 -18 -0 8 9 10 -1 -2 39 52 71 85 86 88 58 72 70 52 53 64 36 43 19 39 40 32 29 13 27
110 113 98 78 70 91 77 59 53 26 52 21 11 35 49 54 89 93 87 24 4 1 15 30 34 34 15 20 59 76 81 66 68 73 60 63 70 55 59 44 48 29 28 42 31 41 22
83 92 74 57 65 57 59 35 36 38 37 22 8 2 38 60 71 89 104 99 107 71 58 55 69 79 63 51 49 43 44 56 52 56 88 66 54 54 49 50 43 56 66 37 53 59 77
76 85 63 52 60 50 39 48 34 28 36 22 11 1 2 36 59 64 77 115 125 127 114 105 93 88 96 62 45 51 58 71 45 39 57 79 65 37 38 40 43 24 52 61 67 74 105
61 44 67 66 56 52 47 47 46 22 1 17 13 -6 -7 10 76 69 80 70 115 146 144 145 141 120 117 55 61 65 53 69 73 56 51 40 44 61 60 54 40 47 95 74 90 76 82
53 44 105 77 68 54 50 38 28 25 5 41 23 3 15 6 63 28 56 40 44 55 138 215 250 147 127 118 116 96 88 72 72 62 83 59 61 53 32 43 43 37 89 63 92 108 82

GFSGBSN_con_3kmhel_051.txt.gz
Helicity
38 35 44 40 45 50 26 26 32 35 45 35 23 29 33 31 26 16 21 27 18 -4 11 36 47 64 71 50 116 89 202 14 48 55 65 93 89 127 120 127 132 95 147 150 212 99 87
39 33 47 47 48 41 26 26 21 28 33 10 5 40 49 39 64 -0 -7 9 14 -5 10 14 40 52 67 71 41 38 163 148 60 29 43 70 89 95 133 155 190 84 165 111 132 63 78
36 34 52 49 44 37 33 37 14 -4 15 -8 21 40 41 37 80 -15 -30 10 -10 -1 1 10 33 29 38 36 78 68 63 248 46 41 39 59 80 83 169 121 166 274 152 98 72 48 60
34 31 61 50 42 32 36 34 6 2 5 -0 23 43 34 26 49 -5 -14 -1 -7 3 20 13 19 20 53 17 70 58 15 225 124 49 54 80 85 53 130 155 131 182 185 87 75 55 80
41 38 60 56 40 31 27 30 30 18 -25 9 37 52 17 24 18 6 2 4 -5 -26 -8 20 -1 22 55 3 51 38 62 124 46 52 60 63 116 109 156 109 102 164 118 81 55 56 66
40 39 50 66 41 28 24 27 30 9 -10 -4 28 35 28 27 15 9 5 -3 12 27 19 -2 18 38 59 47 53 79 95 118 71 77 148 130 123 129 113 102 128 110 106 56 72 10 71
39 43 41 61 40 16 21 11 21 22 -3 -7 23 37 56 58 66 -8 3 3 29 37 -0 30 32 51 95 77 35 144 144 168 75 105 195 168 206 89 73 51 134 216 79 125 52 76 55
45 45 38 58 40 16 17 12 21 35 3 5 16 47 91 78 35 9 -2 -2 -2 6 39 27 47 53 36 35 30 83 39 145 84 132 151 178 131 47 63 50 114 260 128 129 131 79 76
53 52 42 46 39 15 15 10 16 37 16 6 16 36 55 89 80 51 16 1 40 35 39 -34 1 -6 69 92 65 58 101 204 90 139 95 100 64 115 78 63 113 143 111 99 111 61 84
65 56 51 40 42 15 12 11 -3 34 24 32 2 16 37 98 90 60 39 4 33 54 110 11 -30 36 158 98 70 58 60 192 194 56 52 80 80 116 103 61 83 102 158 169 112 55 66
72 59 52 35 39 15 8 11 -14 17 13 27 31 20 31 3 66 51 15 18 22 63 98 40 133 157 131 112 60 105 92 178 178 194 106 141 103 66 84 72 36 157 97 110 138 137 176
92 70 52 30 30 18 4 7 13 -6 20 5 42 39 31 47 56 75 66 47 57 146 189 160 200 133 62 152 95 78 126 201 171 207 73 119 222 124 153 171 104 88 126 133 147 141 82
82 70 51 27 27 26 -0 8 21 7 19 19 27 50 54 20 46 78 72 118 204 195 169 220 165 31 99 180 89 87 100 190 42 178 68 154 223 218 223 238 193 109 84 161 136 164 141
90 61 59 28 29 35 9 -5 44 47 9 41 23 72 115 63 67 59 69 102 48 142 163 145 74 34 99 127 81 48 39 10 2 83 31 101 202 200 182 221 144 110 98 196 159 148 138
85 71 61 32 25 21 10 -16 45 63 52 52 40 90 72 74 28 34 33 12 71 100 116 81 82 77 66 40 36 48 64 37 18 45 60 78 133 97 147 202 166 123 160 194 214 181 148
96 73 60 35 22 15 7 -6 38 63 78 50 47 65 59 71 22 1 33 24 66 61 87 83 48 36 -5 8 39 56 31 29 24 60 74 65 73 75 48 32 73 87 55 126 177 155 138
76 76 48 32 31 21 9 -3 16 68 94 39 30 40 57 31 75 8 -30 3 42 63 82 58 12 -18 -3 19 46 55 25 18 39 24 67 35 66 73 59 56 43 84 99 76 120 151 176
76 60 37 32 35 22 16 8 -0 48 91 -9 6 23 35 35 18 -1 -7 19 53 98 66 55 36 27 1 4 20 39 14 15 45 40 29 51 53 76 72 48 97 122 91 66 104 71 94
51 52 43 42 31 31 19 13 10 34 66 12 -2 11 26 11 18 1 -8 -23 29 42 49 47 32 42 38 28 44 64 62 45 49 61 56 29 40 76 73 32 29 41 38 77 111 125 68
58 56 50 49 33 40 29 14 12 33 73 -9 15 13 13 3 7 12 8 -25 -29 9 6 10 12 13 2 17 53 46 59 60 66 63 80 65 50 76 115 82 61 65 42 42 68 66 41
58 61 56 62 49 46 35 10 9 45 72 -11 26 42 40 20 4 1 11 16 -21 -2 8 -4 1 9 3 10 17 29 39 50 63 59 55 75 43 59 64 54 52 55 54 36 62 52 66
67 53 62 72 56 48 41 29 13 59 74 7 27 44 53 58 31 13 -14 -15 20 19 24 17 29 23 18 25 32 22 27 29 44 48 45 57 35 44 50 37 31 43 33 20 12 13 22
73 69 64 66 70 58 44 49 43 64 46 22 20 13 40 63 84 57 49 32 26 21 14 19 48 39 40 77 67 65 50 66 90 49 37 49 47 47 38 38 29 13 21 52 40 37 36
78 75 66 65 64 61 58 74 62 62 54 13 26 27 26 60 92 96 79 72 42 32 34 27 22 32 52 50 58 69 65 68 58 58 58 45 43 50 39 22 9 34 43 39 8 27 15
93 82 73 68 47 58 70 57 43 51 51 35 35 29 60 58 68 78 92 80 79 42 27 33 43 49 31 37 49 49 53 52 58 51 43 49 41 34 52 28 51 35 36 30 22 29 2
77 71 73 71 34 60 59 43 43 38 55 31 34 16 25 85 59 81 91 93 119 84 55 57 59 56 52 36 40 49 42 41 51 51 61 45 49 56 57 53 47 63 22 54 37 43 57
59 75 86 63 48 39 43 42 59 54 41 38 35 14 -1 31 56 62 81 110 120 119 125 91 83 85 82 48 52 44 40 69 53 45 48 63 52 41 46 45 53 36 44 57 71 87 109
70 89 72 76 55 58 45 39 34 41 38 24 33 10 10 11 48 46 65 73 101 126 168 170 107 115 110 81 73 49 53 43 62 48 53 46 47 51 53 53 40 60 76 83 122 119 125
66 64 66 91 61 44 37 16 18 27 43 24 23 44 11 -5 39 57 67 52 57 80 109 176 214 188 103 98 96 96 56 71 47 52 60 74 63 64 41 49 43 19 67 100 97 94 101

GFSGBSN_con_3kmhel_054.txt.gz
Helicity
45 40 39 53 49 41 23 30 54 46 23 7 3 15 30 46 36 48 40 6 9 9 6 19 33 54 75 76 39 120 150 31 47 47 61 101 83 130 146 123 169 128 138 88 170 129 139
44 40 50 50 36 32 29 31 49 29 17 9 15 27 34 33 24 40 -13 -13 8 -2 -17 6 20 46 70 71 52 64 78 144 76 70 61 99 70 103 140 97 179 157 147 206 149 131 158
50 45 50 40 39 27 25 41 46 30 27 19 17 33 19 15 3 19 -15 -17 -19 -9 -13 -1 26 18 50 46 109 89 75 150 78 68 47 54 57 86 173 147 104 239 218 278 242 94 104
56 54 47 45 39 25 22 31 35 20 33 19 23 27 9 -4 16 6 -10 -11 -8 3 -18 6 5 -6 33 41 105 89 88 198 173 53 65 69 89 109 166 164 131 201 269 172 176 100 63
70 65 44 45 38 26 27 28 25 6 28 19 25 27 18 9 28 7 0 1 29 31 15 16 -1 0 42 25 33 111 18 194 159 29 -2 75 115 170 132 166 179 185 173 149 95 83 86
71 68 52 49 35 30 27 26 19 12 15 16 25 27 14 5 29 11 7 7 7 26 18 31 27 25 45 82 18 4 24 228 145 47 105 84 126 175 138 162 147 133 167 92 131 90 80
68 69 58 57 36 32 24 25 10 3 12 6 12 3 2 11 -7 -2 23 33 19 24 19 17 37 74 69 53 15 15 85 171 70 147 195 107 199 125 132 118 94 32 83 102 60 109 110
71 74 61 59 32 31 23 25 3 4 15 11 -2 -4 -18 21 25 33 41 24 23 24 33 -8 3 11 4 13 58 38 94 159 110 144 157 179 91 101 101 100 148 162 176 126 134 179 103
78 74 58 56 32 27 23 25 0 3 17 26 -6 -16 -25 -30 77 70 32 9 22 21 71 27 -20 -26 -34 30 43 82 69 72 161 115 123 198 112 77 130 157 122 141 202 161 199 183 178
78 65 64 50 32 25 24 27 13 1 12 32 23 -9 -4 -6 35 75 95 5 9 28 135 58 36 -69 -206 3 128 41 102 117 149 79 92 90 110 130 96 69 95 110 170 239 143 133 118
69 63 53 47 35 28 23 33 19 3 10 30 34 22 22 6 8 126 68 28 50 41 138 58 77 71 17 72 59 28 155 269 222 160 138 137 83 82 121 45 99 120 117 209 170 161 188
61 51 50 43 27 24 18 19 26 -1 5 14 32 40 51 75 68 82 47 27 52 186 88 43 63 123 67 66 93 87 196 236 167 233 208 148 163 133 103 90 109 143 224 197 169 162 139
60 53 49 46 31 24 18 10 24 3 -3 25 26 40 84 77 31 45 19 63 136 35 97 92 101 65 131 86 49 64 85 154 124 110 94 82 165 156 139 184 210 181 154 189 159 145 126
64 53 49 42 41 33 23 7 15 7 19 76 35 55 76 60 50 27 -9 72 66 66 104 119 112 63 130 62 47 7 148 137 137 109 88 5 44 145 198 194 186 180 131 198 144 112 127
56 52 42 33 30 30 17 3 13 3 39 63 39 76 29 52 39 -17 25 11 26 34 83 69 110 54 40 -3 4 69 -1 61 74 40 62 62 97 143 130 256 239 179 145 151 204 149 129
49 50 28 20 22 22 20 9 11 6 64 40 16 39 46 127 36 -38 13 -7 20 27 40 47 27 29 -10 24 15 20 20 6 38 45 12 42 141 165 178 201 210 190 118 125 166 146 107
49 27 25 27 17 22 22 16 -1 10 51 39 20 16 51 52 57 -15 -24 -20 1 35 38 30 27 5 9 29 55 33 8 22 35 29 34 36 91 120 91 145 157 230 132 101 147 141 148
39 31 27 29 27 14 10 10 11 -6 31 37 32 16 51 29 8 11 -7 -10 6 16 21 2 -4 27 -7 12 36 43 9 24 46 15 44 55 54 117 67 41 51 61 61 109 75 112 103
49 37 38 33 26 18 9 10 7 3 14 62 25 23 28 13 1 14 6 2 13 -6 -17 -28 -7 -2 20 30 35 28 32 4 47 61 49 23 47 94 102 51 32 41 67 132 122 108 66
48 49 34 27 26 32 20 9 8 11 19 48 41 17 31 20 18 -2 12 4 25 12 0 -8 -16 -25 -13 12 40 40 50 47 44 44 66 72 54 75 93 75 68 59 53 72 122 115 86
49 48 46 48 40 38 43 27 31 43 46 49 59 55 45 50 46 46 35 46 48 23 6 9 2 4 -10 13 8 28 58 57 39 43 71 80 64 67 73 56 56 49 52 64 104 90 88
62 53 62 63 54 53 52 47 54 76 80 69 54 55 66 38 52 46 29 -2 53 41 36 6 30 30 32 46 46 41 32 26 35 56 66 70 52 48 50 30 37 56 49 47 51 46 2
77 81 54 60 60 42 48 52 70 86 58 75 38 34 50 59 85 123 111 104 84 59 33 28 53 45 48 112 105 89 84 80 84 55 67 59 66 40 51 74 55 49 45 89 112 83 78
95 78 60 60 51 70 57 55 56 74 67 52 42 17 56 84 111 148 120 86 97 87 62 44 41 53 42 35 47 58 69 79 64 69 58 69 60 67 39 53 47 16 49 56 82 64 59
83 73 60 74 73 65 66 63 57 65 60 50 49 27 47 74 117 138 104 88 104 79 33 58 53 59 29 34 36 48 50 41 35 44 41 40 64 57 47 38 31 19 42 45 45 33 29
71 76 87 87 68 72 62 62 54 42 45 47 56 24 16 75 95 121 95 67 116 143 97 53 54 65 49 36 35 19 23 23 49 51 64 50 54 62 68 44 34 40 24 26 32 43 46
104 83 91 92 79 81 69 70 44 34 21 40 52 30 4 47 52 86 109 99 103 136 131 102 84 71 73 65 66 52 36 48 37 41 65 76 72 63 47 45 40 33 20 32 52 57 105
103 79 82 86 90 70 63 60 34 36 12 30 40 46 20 33 69 38 44 92 102 85 126 162 121 87 103 105 97 73 70 52 62 56 58 60 62 64 60 63 33 69 84 69 83 145 87
87 84 80 62 78 67 70 50 57 40 32 40 53 72 67 41 78 56 39 40 85 89 108 133 148 143 143 116 102 87 86 76 59 69 118 69 64 59 45 33 16 17 44 103 114 72 77

GFSGBSN_con_3kmhel_057.txt.gz
Helicity
60 51 49 37 46 47 41 36 23 30 30 25 32 50 54 42 14 -1 20 15 -9 11 31 32 30 50 77 88 46 50 248 37 58 55 63 88 122 201 214 209 164 144 95 120 41 84 13
60 51 51 43 40 54 41 37 11 17 21 23 23 42 54 14 -6 2 13 -13 -14 1 20 16 31 35 66 29 44 1 192 171 -40 58 58 90 120 144 188 141 183 124 173 222 113 66 108
61 54 58 49 43 56 41 29 15 21 25 15 17 38 40 25 24 20 -7 -5 -15 -1 6 6 21 20 32 44 35 99 84 176 81 23 53 84 73 116 160 165 114 200 171 269 289 115 101
70 57 65 50 41 54 46 33 15 18 29 12 14 34 37 25 24 6 -8 -8 0 15 4 -15 7 1 32 74 76 115 80 150 114 69 43 39 64 109 148 183 186 232 220 234 259 145 91
75 69 64 53 40 45 40 27 15 19 26 14 9 25 45 31 33 1 -4 0 9 18 11 11 -1 5 55 106 33 19 36 140 173 50 26 40 99 146 168 187 241 232 217 240 239 152 96
73 76 61 52 34 39 40 29 19 21 30 18 3 17 37 21 0 -15 3 15 2 0 22 29 46 38 55 100 108 -10 -27 29 219 67 61 109 132 179 178 207 185 194 172 127 225 229 154
76 75 62 51 33 34 38 31 18 16 34 32 6 5 29 6 18 -9 18 18 22 13 7 32 51 41 82 93 31 -21 -1 68 194 111 243 134 198 74 95 161 153 151 181 101 124 162 151
74 76 61 44 35 35 44 38 21 18 22 38 30 2 14 10 -2 48 51 68 42 54 45 41 22 28 19 30 8 12 91 123 150 149 285 194 103 144 111 72 126 143 110 105 107 51 120
72 68 52 47 36 33 35 39 29 23 22 29 39 16 9 33 0 35 81 89 33 19 122 107 52 29 38 26 33 -54 126 98 35 243 115 117 49 77 95 74 95 150 153 116 140 242 237
67 64 56 45 42 39 35 37 38 27 27 23 37 32 20 37 49 60 79 66 50 47 145 88 83 81 52 96 19 92 85 168 169 61 104 110 133 72 97 55 126 152 123 143 188 212 154
65 62 52 44 46 38 30 32 30 28 17 31 24 32 41 53 17 77 97 65 58 43 162 7 -14 50 31 70 95 74 66 209 136 244 137 146 112 99 88 47 132 137 126 145 209 174 156
66 59 46 47 30 25 24 21 28 24 12 25 19 31 37 30 40 47 32 29 31 86 178 105 69 139 100 82 -13 137 169 233 211 240 228 167 197 154 130 79 152 188 279 277 226 201 119
65 47 44 27 13 16 13 17 23 31 5 14 20 15 32 -29 57 68 31 50 79 100 136 218 162 145 73 54 65 137 144 169 94 101 120 118 138 120 90 112 198 143 227 253 217 190 94
64 38 36 12 9 9 13 8 16 18 21 15 27 23 13 -3 -15 36 41 7 -10 94 77 150 127 107 65 24 65 102 73 114 143 87 119 98 89 122 125 134 177 135 150 167 172 161 113
52 36 23 18 6 8 1 0 -3 12 53 1 2 35 32 -45 6 35 9 6 39 79 111 81 44 57 64 44 45 97 83 64 67 71 56 55 58 82 102 159 154 214 165 137 138 150 129
48 31 30 27 16 -2 -10 -1 -3 -5 34 4 52 21 20 57 17 -2 -18 -19 -7 -3 46 58 41 32 15 44 50 66 52 35 56 75 28 24 55 87 117 170 169 194 169 167 168 148 134
56 39 34 37 27 12 4 -1 -11 -14 12 11 66 36 14 54 -17 1 8 -35 -49 -25 -35 -27 -2 2 35 48 37 35 35 52 68 60 47 48 44 104 113 123 189 206 196 139 100 116 115
44 31 46 43 37 30 21 13 -5 -26 -9 77 77 30 25 48 14 11 45 23 12 -20 -37 -35 -38 12 22 42 57 22 15 29 52 64 80 62 50 83 119 109 104 158 96 98 93 97 94
41 46 54 46 39 32 32 29 3 12 27 64 38 50 30 35 32 32 20 36 31 47 22 3 -10 -19 26 25 34 37 15 54 49 31 29 19 76 96 97 76 70 87 137 115 121 77 8
63 64 61 58 52 45 41 39 21 22 8 84 60 51 37 44 46 45 43 36 46 13 13 -1 0 10 17 21 18 32 43 20 34 38 47 41 53 54 60 69 66 40 34 52 98 140 84
71 69 63 65 61 52 46 35 49 73 44 76 77 66 48 27 52 61 46 36 36 47 22 14 18 4 -3 17 14 27 52 67 46 34 51 58 61 62 61 69 75 67 69 92 71 104 107
68 61 63 44 56 44 39 34 35 73 48 63 83 67 54 35 81 101 87 98 70 70 66 60 42 46 22 57 17 41 44 30 40 53 71 83 57 82 69 44 53 69 53 52 57 78 50
60 56 45 55 54 52 45 48 54 67 61 73 68 47 38 57 92 137 124 95 92 102 65 46 60 90 85 63 58 63 55 46 32 57 66 78 81 79 65 88 84 61 39 91 99 110 84
47 40 33 54 45 50 53 54 68 74 77 49 56 67 62 58 129 143 150 123 97 84 63 75 55 62 59 69 63 92 89 93 98 67 66 72 79 85 52 77 71 41 56 64 85 106 145
62 29 42 49 34 46 61 63 68 51 57 61 50 80 80 65 98 127 141 62 67 92 52 62 62 43 53 54 52 50 70 75 60 56 64 59 70 58 65 61 32 20 40 52 69 45 66
31 8 25 38 42 58 64 67 52 40 56 65 56 52 78 103 72 68 88 116 103 122 114 84 79 60 57 55 46 31 19 11 39 46 81 77 60 79 69 62 33 50 47 37 59 41 50
9 16 17 26 42 55 66 59 34 53 60 66 56 70 85 87 54 67 83 91 116 117 137 123 116 104 77 84 68 54 40 32 37 35 48 91 79 72 47 51 32 15 14 43 56 28 46
1 21 19 27 51 56 65 58 63 48 43 74 57 72 91 70 85 63 43 57 85 103 95 146 124 125 123 115 93 74 66 59 65 46 58 72 62 89 81 55 34 31 68 40 22 52 59
0 34 46 60 72 83 75 58 49 52 59 76 89 59 99 129 122 96 33 32 26 65 75 110 164 140 173 137 151 115 91 86 68 72 111 77 76 51 49 22 4 4 20 39 42 55 41

GFSGBSN_con_3kmhel_060.txt.gz
Helicity
52 63 57 66 37 46 36 37 30 15 24 27 16 23 56 49 34 33 28 12 1 11 20 35 30 40 73 80 39 39 274 195 106 60 47 133 165 198 229 206 204 223 14 82 108 38 -14
58 63 68 61 49 34 36 38 39 21 27 29 18 26 56 40 49 29 -6 4 4 7 4 3 14 47 72 26 39 21 189 142 80 57 20 93 138 177 194 190 194 159 177 148 174 78 -27
64 70 70 63 36 34 42 44 40 22 26 30 22 20 63 48 34 5 -3 11 20 8 -0 10 27 25 30 53 24 33 174 137 89 81 78 71 131 166 205 195 204 122 170 255 86 78 88
65 72 69 68 33 28 43 43 38 35 29 29 27 13 45 52 41 -16 -22 9 21 37 19 -1 3 11 47 67 49 59 76 134 154 42 97 53 121 121 195 187 237 179 205 156 145 106 99
73 72 68 64 37 29 44 45 35 29 31 37 37 13 19 42 24 -16 -2 -5 11 23 33 28 10 16 76 121 40 36 81 86 102 53 43 112 129 127 225 205 289 247 195 167 109 88 153
78 72 60 64 42 37 32 48 44 33 26 36 44 16 13 21 28 12 -3 7 30 3 17 30 13 36 42 79 75 4 52 -21 130 56 116 145 149 170 213 220 194 177 148 170 137 143 143
80 71 57 60 48 41 30 32 31 34 30 27 37 27 25 14 28 13 14 61 40 30 23 44 33 103 68 109 52 2 10 35 59 110 66 110 162 112 130 187 182 206 213 174 209 193 161
81 77 59 62 50 44 32 26 28 31 15 21 21 29 33 28 20 6 36 61 58 79 60 72 96 50 31 77 24 -11 24 32 70 150 169 124 48 110 132 165 155 89 159 127 154 150 134
83 80 64 59 42 36 31 25 14 19 15 20 26 21 37 42 32 76 80 99 60 64 90 106 76 58 43 60 2 71 109 97 161 154 111 195 99 81 98 127 145 148 98 162 143 133 118
86 83 70 56 26 28 25 24 12 20 7 10 16 14 25 23 108 128 109 57 66 69 145 146 127 48 56 90 41 48 92 112 104 75 178 148 103 89 66 112 123 157 118 101 97 138 130
87 78 67 39 14 20 24 24 9 11 9 10 14 17 22 40 84 146 127 65 40 25 81 45 61 125 97 39 74 28 109 124 265 339 184 191 126 88 99 85 107 123 94 97 123 168 144
90 72 58 27 12 15 13 14 12 1 13 10 14 8 31 44 69 87 69 21 55 129 83 113 107 116 111 87 55 88 150 141 230 236 168 176 218 156 101 119 116 106 170 201 209 229 128
86 65 48 20 14 14 -0 10 7 -3 -5 11 6 26 50 25 49 59 55 30 52 2 134 91 71 95 125 92 148 109 197 235 119 124 134 158 184 132 94 100 154 144 191 203 158 169 106
73 60 41 23 12 4 -3 -0 4 -10 -14 8 11 65 32 -25 28 18 34 13 -25 94 78 66 89 73 59 53 108 56 170 137 167 103 169 93 67 72 109 120 117 141 147 149 129 151 118
64 52 48 33 18 4 2 -11 -10 -17 -3 -3 26 61 36 -45 31 13 -1 5 25 51 55 40 49 74 70 26 49 48 65 89 95 91 80 105 116 72 72 83 138 147 80 102 117 133 123
69 61 51 36 18 10 6 -5 -26 -21 -5 11 73 60 36 21 -3 -6 17 21 23 7 16 47 39 37 32 49 48 53 69 57 64 74 52 56 77 54 98 102 123 150 178 146 162 104 90
82 70 50 29 18 9 10 7 -17 -30 2 34 74 48 25 40 -8 21 44 52 40 4 13 -8 20 14 23 30 22 13 21 57 59 55 47 42 37 68 107 78 74 225 192 211 156 157 99
87 69 47 33 23 20 23 13 3 -20 -2 70 67 54 28 26 9 35 65 38 25 18 7 -9 -40 16 24 23 15 11 14 48 80 56 48 66 56 88 110 112 85 159 148 192 185 157 132
78 65 51 34 17 27 17 16 16 8 6 45 50 51 28 27 20 10 39 54 36 54 35 15 -8 -25 -0 25 27 19 18 44 62 56 53 44 69 98 134 134 121 121 144 185 185 137 70
76 78 52 27 19 15 6 -4 -12 -12 -18 69 68 90 43 39 30 11 37 53 56 33 46 35 18 4 12 26 53 36 30 43 65 54 58 64 67 57 44 47 85 124 129 134 132 91 72
71 61 31 17 13 7 4 -7 10 -6 -2 51 54 87 73 54 25 26 41 67 69 66 37 43 43 28 34 22 35 37 61 59 54 50 60 57 46 55 52 58 70 60 74 83 62 89 32
56 46 24 14 4 -1 -9 -17 2 12 11 52 67 80 75 70 71 63 72 81 72 82 77 89 56 76 41 26 18 26 47 51 67 83 77 77 56 73 68 58 62 57 58 62 59 68 2
37 21 17 15 -1 -0 -8 -13 -7 4 33 28 19 47 100 91 86 99 95 111 132 100 59 74 84 75 67 60 54 53 36 25 42 51 84 89 78 79 62 101 88 53 29 108 122 136 134
15 10 10 6 8 -4 -12 -3 -12 15 48 31 41 61 102 79 146 109 76 109 123 108 72 65 66 70 73 96 73 64 75 64 54 56 72 74 96 101 50 98 79 50 82 83 90 105 135
9 -7 -3 -5 2 -5 2 1 -11 23 70 69 54 57 75 94 121 134 92 37 100 104 63 68 66 70 77 76 73 65 79 80 62 60 71 85 97 91 77 61 7 13 53 63 60 35 58
-2 -14 -8 7 -3 -6 7 13 9 28 50 76 74 74 84 106 115 109 111 70 102 119 140 112 82 81 76 75 58 39 31 37 45 63 95 78 93 96 77 59 30 52 106 67 51 34 58
-9 1 15 25 21 8 11 15 27 39 47 73 57 96 111 98 109 104 92 71 91 132 120 142 135 120 90 80 64 48 44 37 38 37 52 110 106 76 60 58 25 30 36 38 65 40 52
4 13 25 19 25 27 28 25 39 58 72 91 71 61 116 106 120 107 45 46 41 77 100 141 132 94 125 99 80 64 51 57 69 47 48 70 72 78 81 82 23 29 73 52 29 39 24
5 8 20 14 39 54 53 42 68 79 90 113 117 81 100 120 116 97 69 34 20 22 71 117 133 144 169 133 127 95 85 85 79 69 101 81 76 43 58 40 19 -1 18 24 42 33 25

GFSGBSN_con_3kmhel_063.txt.gz
Helicity
55 62 71 57 34 25 44 46 36 17 10 27 21 22 37 45 39 37 2 6 19 24 -2 17 21 42 59 59 39 31 286 205 96 177 63 123 175 199 187 152 191 166 79 112 206 65 55
52 60 68 50 37 26 46 47 37 35 18 32 21 28 37 49 43 23 -2 -0 1 11 -1 9 22 40 47 41 22 26 118 207 70 103 117 88 115 167 146 132 172 154 160 175 152 114 45
53 61 69 47 37 33 44 48 44 27 32 28 31 30 25 43 22 11 2 9 20 28 30 10 14 25 43 70 51 92 89 181 225 71 53 61 111 150 173 168 189 163 209 195 93 112 90
53 64 71 52 45 49 47 49 43 34 27 37 31 22 19 28 21 5 9 20 19 31 32 22 30 22 45 46 57 52 79 297 142 86 35 93 123 146 187 202 249 208 208 192 142 104 95
60 69 73 57 53 50 41 42 38 30 33 22 37 16 10 18 14 17 7 8 18 15 27 26 18 18 32 55 30 -65 43 186 148 105 35 66 123 166 212 194 281 225 159 155 121 34 106
71 74 80 61 56 43 41 39 19 26 21 31 19 18 7 8 -4 -3 -0 17 23 18 28 23 31 15 31 54 32 -6 26 96 128 77 73 95 161 179 193 208 185 228 195 158 150 52 86
86 77 81 68 45 38 43 35 14 27 20 19 18 13 10 22 -9 -13 4 39 22 12 14 33 44 36 129 65 15 33 77 77 163 132 45 79 144 111 140 158 137 140 202 154 201 138 110
93 79 79 62 37 33 41 39 18 15 8 16 23 18 18 28 19 1 44 73 60 35 37 41 63 47 37 30 31 38 83 88 119 173 135 127 76 121 136 143 119 87 143 143 183 129 108
99 82 75 58 31 27 32 35 25 10 12 13 16 21 27 35 30 76 85 80 8 17 52 84 57 14 16 28 25 73 63 -2 80 66 54 242 141 130 123 165 125 115 124 153 137 200 182
97 87 69 52 31 28 24 24 22 14 2 -4 9 17 38 42 106 102 142 71 39 14 91 106 83 65 65 38 63 8 50 16 163 75 74 203 139 127 128 140 122 123 80 86 112 141 137
99 84 67 48 27 24 19 16 10 10 6 8 7 9 57 76 89 114 89 92 49 42 37 66 98 76 52 113 77 56 41 7 156 244 154 125 111 105 107 114 91 120 81 61 56 94 99
102 82 70 47 28 19 11 15 12 -0 4 1 -1 10 62 80 68 72 44 35 53 34 48 89 89 84 118 68 24 52 121 87 91 136 169 198 185 155 122 160 117 107 155 175 129 116 62
102 84 70 44 30 20 8 10 8 -15 -11 -8 -4 28 68 68 27 43 33 24 33 57 62 65 50 49 56 77 63 53 147 130 110 245 181 185 198 172 159 143 142 130 158 184 143 135 82
101 87 65 43 29 20 11 -1 -8 -23 -19 12 24 73 36 43 18 33 8 10 37 11 27 29 37 17 32 41 88 108 169 220 291 120 256 169 119 136 189 131 101 104 97 127 87 77 82
106 87 67 45 22 14 7 -2 -22 -30 -19 -14 61 69 42 17 27 18 15 28 26 30 52 47 45 17 6 13 25 121 117 64 51 113 39 49 60 129 137 144 129 117 89 108 92 111 110
103 82 68 48 24 10 7 -2 -31 -23 -9 2 93 92 49 21 35 17 15 35 36 4 32 32 34 44 19 14 16 48 77 77 83 100 110 96 72 118 90 114 129 145 160 136 151 114 90
94 80 62 49 30 14 11 -1 -13 -33 -17 29 82 95 47 14 16 11 33 32 53 15 4 19 21 20 18 20 21 33 32 58 71 93 86 100 130 120 81 86 82 127 133 112 93 118 94
90 73 57 44 32 18 12 -11 -21 -40 -29 53 77 119 51 20 25 40 56 42 33 24 10 20 30 42 22 8 27 31 39 57 74 86 79 81 82 88 115 114 109 103 100 143 145 189 195
88 67 51 35 21 8 5 -25 -23 -46 -34 53 99 94 48 40 75 51 38 20 54 53 29 29 20 17 35 39 23 30 40 58 77 80 67 48 59 51 52 66 100 91 125 169 153 173 162
79 59 39 21 2 -10 -20 -28 -16 -28 -29 53 100 145 76 98 75 64 45 35 15 45 45 41 35 17 24 39 59 32 32 54 81 69 69 84 68 58 62 31 107 139 93 115 146 159 174
60 52 32 4 -21 -36 -45 -24 -19 -44 -27 39 54 98 94 161 126 70 56 25 16 33 48 59 59 64 55 41 41 46 53 64 77 75 92 69 32 56 42 47 60 64 93 103 113 104 178
45 39 15 -17 -47 -58 -62 -39 -31 -42 -16 32 56 119 67 108 113 114 102 76 35 38 52 58 56 67 49 50 35 35 53 61 66 72 71 81 48 60 76 58 53 45 45 54 68 41 15
37 28 1 -14 -40 -44 -49 -37 -11 4 12 24 15 23 47 80 83 138 148 145 73 103 68 60 60 68 78 65 59 62 52 66 64 70 106 92 67 67 38 73 59 35 14 95 124 140 122
35 16 4 -1 -20 -28 -22 -13 -8 11 43 41 45 72 88 152 94 131 139 136 105 75 77 90 87 82 96 102 64 59 90 81 69 74 76 82 102 90 27 58 49 27 61 54 57 59 147
29 14 15 6 -3 -13 -1 9 13 27 43 57 56 95 103 154 80 83 96 121 64 33 72 69 78 64 99 99 86 84 86 69 57 59 75 87 102 90 77 65 30 -9 39 51 42 17 35
13 5 17 21 6 8 21 42 39 40 50 73 80 70 89 111 118 80 98 101 130 61 71 95 85 99 85 93 83 51 46 54 58 76 135 120 123 111 86 53 23 25 63 61 44 16 20
1 21 24 32 23 26 26 23 50 46 66 83 90 85 97 133 109 122 124 131 61 28 32 101 124 129 105 102 87 65 56 45 37 31 57 99 128 100 78 74 12 35 43 51 52 42 55
13 14 20 33 42 38 32 25 43 53 65 85 74 65 100 132 118 123 106 59 27 9 12 79 139 121 123 99 88 61 53 45 49 39 33 61 58 76 79 72 29 47 60 56 37 35 19
24 -0 20 28 34 27 17 21 46 53 80 95 95 66 96 113 95 37 49 41 14 5 -32 7 69 175 154 120 118 84 85 75 60 58 85 72 76 32 55 43 35 16 20 29 40 46 38

GFSGBSN_con_3kmhel_066.txt.gz
Helicity
46 42 46 53 54 48 42 41 41 34 40 25 19 14 14 41 47 39 14 14 27 37 47 -11 -9 13 35 61 57 37 85 200 104 102 171 162 169 200 217 185 201 162 69 148 199 123 40
55 49 48 58 62 52 63 52 45 40 33 32 32 18 15 31 31 26 8 11 29 45 49 31 10 32 35 46 28 62 42 136 103 164 119 112 187 163 199 168 178 127 97 66 145 140 100
62 62 52 55 66 57 63 67 40 28 37 27 42 22 7 20 23 30 8 7 28 36 23 16 35 24 40 48 41 105 83 81 37 153 106 70 203 160 162 189 179 219 158 141 168 162 208
72 78 63 64 64 52 59 68 49 27 29 30 20 22 12 25 11 25 24 7 12 14 23 12 8 19 22 14 25 66 80 84 113 86 41 25 149 149 163 193 241 156 172 157 136 127 214
81 83 75 68 57 48 56 53 41 34 23 27 27 25 14 22 9 11 19 -1 5 19 22 26 22 25 -7 11 39 40 107 66 137 92 5 25 181 197 154 220 263 187 180 161 127 55 134
79 94 79 65 56 41 48 48 43 27 34 19 19 22 19 14 15 0 -2 4 33 42 26 21 44 21 17 8 31 18 94 107 131 83 66 124 122 233 201 247 184 250 259 221 169 81 148
95 94 77 61 51 39 42 44 47 40 36 23 20 24 15 26 29 5 9 41 61 55 45 33 35 45 58 37 7 51 37 136 126 100 107 -20 155 185 192 212 181 241 252 190 144 108 142
99 98 82 60 46 37 35 36 36 42 36 23 20 12 16 24 40 17 39 68 46 54 21 41 47 33 30 4 -17 46 68 136 120 81 51 103 84 162 129 167 159 185 180 169 152 91 78
115 102 86 66 44 36 36 30 26 29 33 20 17 4 24 35 45 62 82 88 5 29 92 46 58 37 -4 -3 -18 31 122 82 115 136 44 129 54 129 143 170 157 185 138 154 116 139 159
122 102 83 71 51 33 34 27 21 12 24 17 7 -4 23 53 83 94 92 62 8 -15 69 62 56 31 29 27 7 88 95 90 70 82 25 193 101 120 117 171 132 120 89 143 105 166 124
116 103 89 69 54 36 25 21 18 2 7 5 5 5 27 63 80 92 62 50 27 13 66 81 101 66 97 64 91 131 159 103 83 54 31 80 85 106 117 119 126 119 94 125 133 149 125
111 108 87 66 50 35 27 20 12 -7 -13 3 8 41 53 52 46 56 61 40 35 58 16 42 63 76 118 124 64 20 47 49 95 123 69 138 201 160 141 140 122 73 152 173 115 89 50
129 107 83 58 46 29 25 17 10 -3 -25 -16 16 86 66 44 37 44 54 59 62 82 9 20 26 52 47 35 50 31 116 72 156 163 154 134 184 173 171 159 131 125 159 194 126 87 -3
129 97 73 50 39 35 23 15 11 5 -29 -10 48 116 56 30 42 49 43 32 50 21 17 4 29 20 35 43 51 63 8 77 260 167 240 114 75 146 194 144 106 128 135 150 102 70 14
135 90 69 41 40 36 24 15 6 1 -15 -3 95 93 69 16 37 34 14 48 56 36 45 31 12 15 -24 12 24 66 64 92 74 140 79 65 87 148 164 163 150 116 119 130 106 63 18
135 87 55 37 44 32 16 5 -4 -5 -10 16 96 106 74 9 11 -5 27 37 22 29 32 25 36 19 -8 -11 33 70 47 72 84 107 88 82 98 140 152 134 156 122 123 118 134 50 16
125 82 48 37 46 24 7 -10 -23 -22 -18 43 85 129 83 15 10 19 75 50 36 27 26 28 11 15 32 18 21 53 53 46 64 69 61 62 53 83 86 80 88 144 132 138 105 115 66
109 72 53 48 42 7 -2 -13 -23 -29 -2 52 85 94 73 31 91 61 64 42 33 28 29 23 32 43 11 21 33 48 38 54 58 65 75 79 78 91 108 95 106 125 121 161 159 137 118
102 67 68 53 32 -3 -11 -20 -27 -35 4 57 68 77 61 57 134 109 47 37 17 10 29 39 53 59 50 41 39 41 49 79 61 85 74 70 102 124 132 100 98 127 140 132 151 113 72
89 69 73 51 18 -16 -33 -44 -44 -48 19 54 95 48 69 80 83 101 95 60 29 -6 19 51 44 61 61 68 65 39 52 55 65 78 94 99 81 63 45 50 52 69 124 134 149 98 104
79 71 71 46 -7 -32 -54 -59 -56 -43 12 54 79 94 93 106 98 74 83 55 37 16 16 74 72 79 65 54 48 51 46 55 72 73 103 89 80 98 84 67 78 66 107 82 95 62 137
83 81 56 28 -9 -23 -38 -41 -43 -26 44 80 126 141 103 107 60 53 65 71 45 12 -18 -1 79 88 73 66 51 30 42 45 46 67 82 94 65 66 73 88 58 50 40 56 64 71 23
89 74 43 26 2 -13 -20 -16 -9 14 47 91 61 81 165 163 113 105 80 77 58 18 13 83 82 76 76 76 76 66 31 60 54 43 86 64 47 55 43 71 50 39 39 132 162 122 107
90 57 36 28 8 -9 -15 3 23 51 60 59 74 118 155 175 149 126 71 71 74 52 33 28 90 112 112 91 60 68 87 76 68 91 82 86 104 86 27 41 37 28 51 41 28 49 100
81 46 29 21 11 -2 3 19 39 62 66 39 54 83 97 120 115 105 38 48 72 61 29 -3 58 74 110 120 115 100 100 78 68 65 69 88 97 77 62 61 36 14 22 29 39 39 18
69 45 32 25 16 14 27 40 52 60 53 30 27 37 89 140 149 92 89 62 80 73 30 -26 42 77 70 111 109 76 68 62 59 82 139 121 117 110 93 60 27 28 36 26 29 45 59
58 41 29 34 28 25 28 36 56 33 29 21 24 51 96 143 111 126 167 125 62 52 29 -35 -12 85 92 100 88 64 76 74 57 37 55 108 131 114 99 84 49 29 40 45 72 50 60
55 40 36 40 42 34 35 39 38 12 13 16 19 41 79 98 55 105 75 63 42 36 31 -19 -13 56 72 100 87 71 60 62 69 50 39 59 59 54 81 74 23 29 36 48 49 52 40
69 39 33 35 41 31 31 34 18 1 10 29 31 29 37 38 43 29 21 33 38 7 -3 -25 -17 36 146 130 121 86 81 74 62 54 75 54 56 35 47 22 16 25 16 21 40 45 44

GFSGBSN_con_3kmhel_069.txt.gz
Helicity
12 31 49 64 67 52 53 60 56 27 27 27 26 39 36 43 37 45 50 25 15 27 32 34 13 -8 -16 10 70 24 86 152 106 93 84 168 188 156 165 206 198 201 122 104 144 241 184
20 35 57 72 68 52 50 63 60 30 20 33 24 30 29 41 27 38 48 37 29 26 24 27 21 17 18 32 41 59 63 86 102 167 127 187 229 171 160 195 199 131 213 120 135 160 220
40 51 66 76 70 53 49 54 58 42 32 19 30 32 23 32 25 18 42 35 21 21 19 25 34 36 27 18 28 72 72 71 64 39 171 113 164 235 153 184 185 127 155 132 84 112 95
74 74 79 74 76 58 48 47 45 45 33 29 30 31 35 22 16 12 25 32 19 24 12 23 35 27 6 0 18 63 76 50 56 30 104 123 105 243 207 205 199 161 199 143 94 87 165
87 88 90 79 71 66 53 45 45 46 48 36 29 34 31 28 9 2 2 15 12 40 44 40 34 26 5 12 36 52 72 69 66 83 64 87 108 132 226 203 237 198 154 178 124 55 119
105 105 91 85 70 64 54 45 38 40 48 39 27 35 29 33 17 10 -19 10 52 61 51 44 38 39 30 16 6 31 61 85 -20 63 74 71 96 177 233 207 151 214 205 204 159 111 122
85 88 97 89 72 58 53 46 33 34 37 50 39 31 29 44 25 25 9 33 66 45 52 43 0 19 36 -22 18 34 65 91 71 92 170 106 109 263 198 222 122 186 201 197 175 76 88
132 124 108 88 72 54 51 45 33 29 30 41 48 32 27 58 43 39 49 93 55 66 40 51 35 28 33 64 24 29 114 83 29 103 -24 132 104 207 160 221 163 193 203 211 168 62 76
137 140 105 87 70 50 48 42 31 23 20 27 41 31 31 57 62 73 82 102 24 33 113 53 37 19 12 24 32 65 132 43 19 85 49 29 135 138 199 206 167 195 184 199 153 121 120
162 137 102 78 64 48 42 39 30 23 7 19 22 35 44 59 78 88 69 71 31 1 71 81 89 28 -3 29 35 92 53 13 138 87 62 65 70 114 134 192 181 151 117 142 110 159 90
108 120 110 82 60 49 42 45 36 22 11 6 9 44 84 59 92 69 57 56 18 20 67 27 57 44 31 63 64 68 73 -5 101 130 116 25 39 87 129 123 144 138 96 141 143 170 123
183 155 121 81 55 53 46 42 39 27 11 4 7 50 114 65 54 51 63 52 28 67 47 5 43 62 68 47 62 40 53 16 72 112 157 132 168 134 132 170 112 87 171 219 176 131 66
203 161 129 82 55 51 55 38 33 29 16 -2 10 99 99 65 46 67 62 44 40 68 40 29 35 37 31 71 55 45 33 52 60 44 118 138 147 137 167 159 152 135 188 202 128 88 5
148 133 120 80 68 52 58 40 27 24 23 8 37 126 87 44 38 59 30 16 58 35 59 14 39 34 55 53 44 51 41 33 84 67 109 84 72 148 171 119 120 144 153 164 90 63 48
165 140 113 83 70 72 57 39 22 14 13 18 83 103 95 28 30 50 37 59 65 37 37 32 8 8 36 9 -21 75 69 45 121 113 38 80 139 155 160 144 126 126 122 125 94 97 45
176 143 109 86 73 84 56 30 13 4 -5 36 81 112 91 45 33 42 45 45 32 17 35 25 40 12 8 11 28 46 83 106 104 100 47 56 75 145 143 178 180 127 109 117 121 37 21
175 139 110 91 86 83 51 26 9 -3 -17 49 72 126 77 26 37 60 113 39 30 21 16 23 12 2 -12 -7 37 55 51 65 77 74 63 86 72 105 116 101 98 162 153 156 91 64 -22
169 139 117 100 78 74 45 13 -1 -9 -8 43 76 120 74 43 116 85 84 47 36 22 14 14 17 7 5 0 42 60 51 72 83 87 74 81 64 98 99 95 113 90 90 121 87 47 92
157 138 114 98 74 61 30 -1 -16 -19 5 49 116 127 53 53 169 143 49 26 16 6 3 15 42 53 49 39 48 52 47 62 43 50 35 32 49 67 67 42 86 77 84 137 184 147 110
173 135 104 88 74 48 10 -23 -28 -24 27 55 134 131 105 108 93 120 96 87 39 14 3 -3 44 66 50 63 79 52 54 77 69 93 101 99 85 71 51 47 100 94 74 120 175 151 132
192 141 96 81 74 39 2 -29 -27 -9 61 78 123 142 144 164 168 129 85 86 77 25 3 -10 1 69 66 53 60 48 56 62 75 103 124 110 105 100 76 77 95 87 62 86 101 140 139
190 137 91 74 68 36 7 -13 -14 21 84 106 155 184 139 134 132 135 81 83 82 32 9 1 -15 49 63 62 60 23 40 41 37 76 93 90 79 84 78 76 58 70 53 64 71 48 55
171 133 83 77 64 36 21 6 10 33 70 108 101 97 126 103 139 158 143 76 75 38 16 26 4 24 80 86 76 61 34 40 36 46 78 74 63 65 62 62 38 25 48 123 151 138 97
170 125 86 73 60 34 21 19 34 60 79 87 70 80 86 112 151 149 81 48 45 30 58 10 -10 17 98 104 63 62 83 64 65 88 73 49 58 64 32 43 26 24 52 48 46 58 105
156 128 92 63 53 30 25 23 41 73 59 47 37 50 59 105 136 139 103 52 41 38 54 50 5 47 88 121 114 99 102 80 77 84 71 82 91 80 50 48 40 25 32 25 28 40 30
118 123 81 61 52 41 37 29 41 49 45 25 36 24 54 99 96 120 107 82 101 88 64 50 -13 -8 54 88 121 85 67 71 67 81 111 105 103 102 93 66 41 27 25 21 39 74 59
121 119 79 59 53 47 47 43 40 31 31 31 16 10 7 40 50 77 92 89 62 75 62 13 1 -32 11 12 57 75 68 66 71 56 55 94 113 110 99 69 39 21 24 30 70 52 45
156 116 89 67 54 59 59 50 38 11 9 12 -19 -31 -33 -16 -9 24 46 57 39 44 56 4 18 -9 -11 -1 24 66 62 48 71 56 41 57 53 47 68 63 44 28 53 46 32 42 28
110 92 94 77 64 71 66 50 36 10 -7 -14 -47 -79 -61 -56 -37 -4 42 27 33 26 27 1 22 6 -32 -30 104 90 88 65 61 66 68 65 48 33 28 13 9 14 14 5 35 29 31

GFSGBSN_con_3kmhel_072.txt.gz
Helicity
25 25 47 59 44 61 44 52 57 35 19 20 35 31 32 24 36 45 44 60 59 59 44 31 40 22 -45 -21 65 28 112 106 47 67 91 73 125 129 133 145 141 133 64 114 91 75 66
53 54 69 71 57 60 54 47 46 58 28 32 38 37 39 22 41 41 38 44 51 59 53 33 43 21 -21 6 23 32 80 100 86 45 101 94 120 172 115 135 147 109 138 57 127 88 141
85 88 62 78 67 61 51 49 51 35 40 34 44 43 34 26 31 35 23 35 41 42 48 42 42 28 4 16 17 62 52 74 62 61 82 129 138 192 201 120 185 126 133 95 70 103 137
109 106 83 87 78 65 55 50 50 46 42 40 46 46 36 32 22 23 11 16 26 32 47 35 35 24 4 17 35 44 58 29 84 60 61 153 169 177 159 145 141 134 99 118 76 53 123
125 100 89 75 83 70 60 52 52 45 44 36 48 47 38 24 23 21 0 -2 15 44 54 76 27 1 11 -4 51 48 66 45 49 72 99 62 151 192 158 115 150 145 114 78 93 91 104
143 108 108 98 94 76 67 55 54 46 35 35 45 45 29 23 25 29 -3 1 47 58 57 41 30 23 -7 -50 24 50 54 77 39 -14 143 92 74 295 102 137 169 123 95 80 71 128 94
136 137 104 129 103 88 75 63 53 46 34 35 40 50 25 27 27 36 28 45 71 71 54 51 12 32 -20 -29 26 33 61 85 27 20 140 114 160 167 53 93 179 73 109 84 105 106 58
143 147 150 124 110 90 87 74 57 50 34 31 32 40 31 32 38 48 50 100 75 47 115 71 29 24 60 20 -1 36 67 37 16 12 102 76 74 178 79 164 155 93 71 60 73 46 45
153 147 164 150 93 88 95 83 66 54 41 32 30 22 27 40 59 67 72 106 34 21 67 62 33 18 31 34 7 27 58 30 -7 74 112 131 -13 150 65 149 136 93 83 82 68 84 75
159 146 125 110 89 90 96 83 67 54 43 37 27 17 38 75 60 75 73 77 29 -3 34 57 57 12 22 50 68 58 51 27 105 87 77 139 43 135 93 108 119 81 133 83 54 55 64
176 143 147 133 111 102 101 78 64 52 50 37 20 18 50 68 73 58 56 55 24 11 105 35 68 36 61 96 68 64 24 11 144 77 112 60 84 106 58 94 134 132 77 99 76 77 81
168 162 155 167 133 109 103 76 68 55 48 41 22 29 92 77 56 62 62 37 28 50 108 27 29 45 78 49 48 76 1 85 65 115 12 -6 60 98 112 126 143 71 102 115 116 79 35
181 196 176 156 139 112 95 79 71 53 34 31 29 66 77 74 57 76 57 42 47 39 31 63 39 33 28 43 36 27 40 75 141 148 101 56 40 121 160 106 102 92 80 166 96 64 35
213 224 159 133 129 104 86 76 58 50 29 22 59 111 79 66 52 45 35 25 70 28 51 20 31 -3 36 25 15 35 53 87 82 97 143 153 86 94 139 100 104 91 95 117 82 50 21
211 187 173 137 116 93 82 78 54 50 30 35 91 75 83 84 58 35 23 77 75 24 17 28 24 -19 16 27 43 75 45 43 31 8 53 120 138 138 125 120 146 117 129 161 115 79 58
235 176 183 151 106 80 85 72 45 46 30 67 57 69 83 84 49 36 61 90 26 19 15 14 9 -8 -68 18 43 59 45 22 20 38 59 65 100 112 139 107 105 121 79 102 118 28 36
231 181 159 148 89 67 74 58 40 39 34 80 54 97 85 65 43 69 152 94 23 22 11 5 8 -16 -43 27 59 66 69 73 63 51 33 68 78 81 94 74 58 83 84 105 97 102 73
209 188 156 133 79 65 56 46 34 31 69 83 71 134 99 57 141 104 135 62 17 16 14 5 5 8 -1 15 67 65 86 83 91 72 45 53 47 75 89 98 121 128 76 46 64 29 91
204 179 156 114 75 65 42 32 20 18 57 75 117 149 79 48 183 183 81 67 24 13 10 3 -5 18 43 24 57 52 57 66 75 89 77 49 82 76 70 65 65 82 59 92 93 99 41
242 185 166 110 71 63 32 23 6 3 68 82 119 144 148 119 108 147 154 131 103 16 11 -3 -7 23 30 47 74 50 51 63 57 71 56 67 55 42 23 60 73 84 47 51 87 84 42
245 194 151 112 69 66 27 23 4 11 90 86 104 136 133 169 156 164 104 122 130 89 10 1 -3 -16 32 47 56 55 56 64 74 85 105 93 67 74 73 65 52 52 46 43 78 56 69
262 196 161 118 72 69 33 28 18 42 99 100 114 143 138 167 162 172 125 144 127 95 33 19 10 -14 24 65 81 55 40 37 46 61 93 108 89 89 90 76 65 68 51 48 25 7 4
274 185 142 115 83 72 44 39 18 58 61 92 94 103 107 136 141 156 161 141 124 73 49 25 5 6 2 76 78 76 55 65 49 42 72 78 85 91 89 92 78 54 24 39 66 71 43
218 166 137 117 95 68 64 42 34 47 41 61 75 106 101 102 109 128 122 85 110 81 75 32 12 14 1 82 59 65 65 65 60 76 60 44 75 78 78 58 55 69 69 69 21 26 30
222 155 131 109 97 76 67 40 54 61 48 46 81 69 88 98 117 129 116 87 79 74 81 54 29 11 -9 13 40 89 87 68 66 73 65 69 68 68 58 59 59 32 41 42 40 56 37
261 175 103 101 95 76 60 36 52 83 68 73 58 40 54 93 55 86 92 68 97 105 121 76 3 -18 -8 3 35 6 30 86 65 59 84 72 72 63 81 62 42 62 35 26 24 64 49
231 176 92 96 89 76 57 34 17 26 27 11 16 0 25 38 6 23 39 66 58 82 94 70 37 -18 -36 -3 -6 7 59 80 67 61 59 83 90 60 58 61 50 51 58 35 56 101 58
225 150 88 93 84 76 62 38 33 49 15 -19 14 -51 -21 -25 -37 -31 -9 30 40 46 74 42 68 29 31 42 -3 1 14 63 48 61 55 49 64 73 67 63 57 39 57 42 72 49 33
224 186 92 91 81 69 65 43 43 41 14 -25 -3 -44 -21 -25 -75 -52 -26 -7 5 24 42 35 46 46 26 29 -2 1 34 51 70 59 60 63 65 67 45 57 48 11 27 43 40 22 24

GFSGBSN_con_3kmhel_075.txt.gz
Helicity
64 76 82 71 32 42 53 57 48 45 44 28 35 48 32 21 18 34 45 41 52 46 57 44 38 45 -5 -5 -9 32 80 128 54 43 136 100 124 138 158 135 68 41 115 54 68 98 75
109 125 122 85 75 55 52 62 56 51 44 38 33 47 36 26 24 17 34 25 43 37 51 42 32 16 15 -1 -6 13 79 109 65 45 91 97 96 111 198 145 86 65 98 -13 95 140 108
148 161 128 87 92 55 59 69 66 54 54 52 38 48 40 35 25 8 16 6 32 26 38 40 25 26 24 17 14 31 43 83 93 87 85 98 152 136 226 147 145 139 72 53 -13 77 93
152 184 164 134 96 62 70 79 77 65 58 53 45 38 40 33 16 8 4 -9 16 17 36 37 26 20 21 12 23 35 38 58 53 73 52 93 128 153 281 165 100 141 70 102 59 25 126
87 203 176 138 124 83 76 83 87 77 62 56 42 38 44 32 25 11 7 -9 -6 23 54 54 34 12 51 16 35 48 66 56 46 53 18 74 113 142 222 129 120 158 118 80 53 73 81
30 311 163 143 159 105 101 92 93 89 65 56 47 37 42 35 26 19 14 -1 21 41 62 46 31 36 32 -25 41 49 45 67 55 39 -44 98 139 179 105 192 113 122 140 38 79 48 39
3 147 172 132 155 130 103 87 97 94 71 56 50 37 32 27 32 34 34 61 84 77 71 59 28 17 24 -40 12 31 49 56 47 84 53 60 158 88 38 77 80 84 108 21 78 49 49
24 147 159 153 156 127 96 83 103 100 76 61 50 34 26 24 34 49 44 80 69 38 86 87 45 36 34 -16 -21 19 46 55 45 72 -43 156 113 60 100 90 70 132 74 112 134 38 26
28 147 164 179 152 138 109 90 107 102 81 60 44 25 26 34 64 61 57 77 36 9 40 108 33 34 24 5 -1 17 46 30 32 70 12 182 71 75 70 75 102 154 78 69 49 66 43
49 120 159 169 149 135 116 102 109 103 89 64 39 26 34 81 56 72 72 68 23 -6 78 122 79 50 51 93 43 22 28 -6 12 72 140 109 -2 133 84 66 101 150 107 52 61 22 95
51 109 230 143 161 134 118 110 109 109 95 66 44 33 44 64 63 55 74 47 3 14 77 88 51 37 36 41 25 33 26 22 34 128 225 29 27 40 57 40 81 72 131 153 88 53 99
38 61 246 175 180 141 118 117 107 109 92 75 39 43 91 74 62 53 60 29 15 41 65 24 17 -19 13 68 37 5 33 20 25 160 114 54 11 63 73 101 149 58 120 123 120 115 77
38 55 273 204 183 141 101 119 105 104 93 75 29 69 83 57 89 58 46 39 56 32 19 38 -25 -29 17 61 67 92 20 26 81 127 148 106 49 69 115 115 101 64 52 124 104 104 82
57 67 293 205 188 129 81 118 99 98 102 77 58 107 76 49 68 30 29 38 129 31 27 3 -39 -17 41 53 54 58 80 29 71 42 59 107 103 59 78 65 81 60 37 95 85 40 41
69 76 291 189 171 129 93 111 93 88 101 96 97 82 64 67 56 24 34 136 111 26 19 14 17 -10 8 18 57 96 52 86 83 56 53 32 58 69 126 101 100 96 145 171 204 177 123
73 99 301 189 157 129 104 97 88 80 96 103 82 75 70 59 40 31 88 104 53 6 1 0 -10 -6 -23 -3 8 75 65 36 20 68 127 69 82 115 93 108 100 102 85 127 156 43 16
68 154 288 180 145 122 101 89 81 78 84 78 84 98 79 49 33 66 147 96 45 9 -5 -7 -11 -19 -10 -46 53 20 5 17 27 21 44 23 48 95 66 51 31 99 118 120 147 123 137
125 197 256 203 130 120 94 75 73 82 101 83 98 95 98 51 127 95 127 73 16 13 -4 -8 -9 -19 -20 20 44 52 33 42 54 39 16 62 73 78 63 48 96 96 67 29 57 32 71
185 237 274 199 122 114 105 58 68 80 82 87 90 136 63 38 168 157 106 74 32 22 9 1 -7 -11 11 8 53 67 42 49 60 67 35 24 28 74 39 16 22 40 46 83 53 95 68
275 271 252 182 112 101 100 67 56 59 59 59 89 93 140 95 67 91 168 134 108 4 3 -4 -12 -12 -4 3 55 54 44 55 60 60 57 63 44 49 42 65 49 72 31 30 70 94 38
257 262 243 190 84 105 81 57 43 49 66 55 67 91 127 133 138 123 117 119 134 78 6 2 6 -14 -19 -20 30 54 60 50 49 46 60 65 53 71 65 58 49 43 30 22 57 18 56
213 273 240 121 89 81 59 48 40 59 113 46 79 93 140 143 151 156 134 132 129 80 32 45 22 -7 -14 -26 67 58 58 56 57 39 58 75 60 51 39 38 25 31 23 13 -12 -5 6
268 284 245 180 57 38 49 44 48 95 90 47 78 95 102 112 133 133 133 124 116 70 33 17 22 11 21 -15 66 79 78 70 70 41 19 43 68 70 59 60 48 39 18 19 41 47 31
271 334 237 162 51 33 45 40 44 76 55 41 53 107 84 93 104 121 96 87 100 87 98 41 28 46 -15 -9 38 58 59 59 57 75 66 35 68 86 91 76 65 77 71 100 60 36 58
248 326 235 115 55 50 52 45 37 49 52 3 29 71 80 90 124 139 113 89 74 78 86 87 51 15 -3 13 16 3 40 63 59 64 64 62 34 54 74 66 84 25 44 55 67 84 54
321 344 272 98 31 73 58 59 54 46 48 6 31 36 59 77 69 110 104 71 76 106 101 90 22 -9 4 25 26 30 -10 -7 38 57 64 65 62 79 57 73 58 85 59 72 68 58 64
416 273 181 79 72 61 46 65 76 54 31 20 27 30 38 48 46 64 43 43 22 30 69 67 52 28 -16 60 40 16 12 0 -24 52 52 69 75 52 54 76 69 78 75 60 53 137 97
374 228 161 155 79 54 48 55 41 28 40 21 39 18 2 5 23 -4 -2 8 5 -4 38 33 72 34 66 96 45 29 4 -19 -4 84 61 43 55 73 78 97 56 90 79 71 185 113 79
416 260 206 177 77 55 55 59 52 11 20 29 25 2 30 13 -21 -39 -34 -46 -50 -54 -11 5 1 27 38 93 58 23 26 -2 -16 -36 53 69 93 91 71 90 85 33 71 67 54 43 40

GFSGBSN_con_3kmhel_078.txt.gz
Helicity
85 100 135 117 94 86 73 28 40 63 65 55 44 44 60 49 46 31 39 44 30 29 46 45 31 27 28 29 59 -56 -16 51 296 169 137 165 141 144 208 135 52 103 112 85 164 118 305
52 88 164 179 119 116 89 71 25 70 70 60 55 47 50 55 50 33 41 38 14 30 28 31 25 6 47 39 -2 -10 51 245 104 37 79 139 153 128 170 215 115 56 15 112 -22 153 121
63 55 125 241 158 122 100 93 87 74 79 67 53 49 41 62 47 33 35 27 0 23 17 23 20 21 17 44 8 11 48 92 89 71 68 120 184 188 208 320 112 98 -71 19 92 42 123
64 55 46 249 283 121 99 110 96 74 80 76 59 49 38 56 46 31 31 18 -6 3 17 23 15 20 42 29 -18 12 55 51 52 79 61 73 122 153 167 194 211 134 92 7 66 114 117
61 52 51 169 280 153 119 114 105 66 88 78 62 54 46 48 40 36 33 12 -4 0 32 27 26 33 53 52 26 37 56 127 27 67 -27 89 126 130 154 320 278 135 138 -64 -9 17 167
68 56 56 76 201 166 143 119 70 74 88 85 67 59 50 42 37 34 33 21 7 19 53 44 29 40 39 32 23 43 37 67 80 61 -30 60 138 184 199 256 185 189 198 96 62 38 40
73 61 62 89 177 186 146 111 95 80 89 87 73 67 46 33 33 34 38 71 100 70 35 73 45 25 62 -11 25 32 54 37 60 97 50 109 91 89 127 175 189 95 142 70 149 63 -26
107 78 63 70 183 174 112 100 84 91 96 83 76 62 40 28 37 43 47 63 87 51 71 104 36 56 22 -2 -5 25 44 43 32 86 74 115 83 76 53 203 149 102 121 127 131 118 156
168 108 69 46 168 203 128 111 94 99 99 86 74 52 34 38 60 49 40 51 38 8 52 111 66 40 47 13 -5 8 50 31 28 48 77 85 73 29 37 88 119 103 79 111 97 152 4
170 109 85 58 140 186 143 109 110 106 99 94 69 51 33 68 70 52 43 72 27 2 28 61 61 53 71 32 -15 4 28 36 40 28 39 111 113 73 48 47 53 158 0 60 -24 73 88
128 183 102 73 134 228 149 131 117 110 100 94 69 43 42 73 59 65 55 41 8 19 118 12 45 35 44 40 19 20 -6 18 17 61 46 127 74 71 45 23 55 111 39 126 101 57 169
73 184 123 86 103 200 188 140 122 99 98 97 73 43 71 88 55 42 32 20 20 60 108 15 19 48 49 83 76 24 6 31 36 24 51 105 30 75 69 80 43 53 144 105 129 122 128
28 159 180 99 101 218 189 172 120 79 98 98 63 58 85 59 61 49 26 43 115 118 42 73 54 20 45 20 86 60 12 58 61 162 111 38 50 133 103 109 102 73 127 204 169 151 111
63 62 192 98 85 217 229 152 105 82 111 97 70 94 66 48 45 23 33 68 228 55 52 15 37 37 42 17 2 33 30 35 130 162 101 101 34 67 130 113 97 93 117 125 123 136 120
157 102 179 98 114 231 193 142 94 101 120 96 104 76 81 47 34 14 73 159 147 56 35 36 37 28 21 5 -18 14 18 27 83 111 101 100 78 87 140 97 130 95 68 75 200 160 108
212 210 119 97 159 216 184 142 102 115 119 98 102 109 93 44 19 32 104 112 90 27 8 5 2 30 11 -7 -7 9 17 40 25 77 126 67 62 73 61 95 99 62 92 110 154 127 122
213 243 102 83 183 254 188 141 102 116 108 64 92 97 90 51 16 67 140 98 71 19 6 -13 3 -11 -29 -46 14 -35 -17 44 57 62 93 29 30 71 71 61 51 91 131 154 141 157 130
38 119 96 64 224 312 190 98 100 116 123 135 105 74 79 38 84 92 111 74 30 37 -3 -15 -11 -15 -29 -35 -25 15 -15 14 54 63 76 43 49 106 82 106 70 94 85 75 122 111 97
91 199 101 -30 291 294 209 54 111 120 136 145 75 110 83 32 93 129 77 70 45 45 4 -3 -4 -14 -3 -23 -13 62 56 38 63 53 30 37 37 82 54 29 34 48 27 78 91 88 67
78 136 218 -47 333 253 215 35 100 81 42 106 63 51 93 44 -26 62 129 118 113 -10 -12 -25 -27 -13 0 -10 26 48 55 40 60 68 61 60 7 35 34 50 41 58 81 68 101 89 82
134 139 261 112 289 195 158 78 72 66 31 86 32 32 72 61 32 61 70 99 143 88 -13 -19 -5 -20 7 -9 -17 26 59 39 31 54 72 75 40 34 71 67 51 59 47 64 116 70 96
201 136 281 165 222 206 77 72 79 69 73 87 40 25 78 75 47 101 93 94 141 86 38 33 0 -17 -18 -1 12 6 24 37 46 49 42 60 60 60 38 36 28 30 21 5 1 38 45
271 161 58 238 241 215 51 84 93 88 135 78 49 48 52 60 74 89 108 92 98 97 15 -7 -6 -1 22 -16 -25 -27 89 72 79 51 45 53 69 70 73 80 58 33 20 48 50 45 55
371 266 139 314 255 228 42 56 76 70 79 76 52 71 54 42 51 78 97 96 114 67 54 -4 -9 11 -26 -26 -5 -17 -13 56 64 69 76 64 79 89 83 82 71 21 69 103 67 60 63
379 93 265 257 163 136 50 42 41 44 58 79 57 60 56 54 97 110 111 115 92 59 48 16 -12 -13 -11 3 22 1 -21 -20 6 71 59 64 62 61 66 62 67 63 28 59 73 64 41
365 18 345 226 178 149 19 22 18 27 46 75 53 73 84 93 61 65 108 53 84 84 42 -6 -3 0 0 31 50 101 63 -3 -21 -7 79 75 56 76 88 72 58 53 44 35 42 95 115
238 78 260 207 130 114 24 14 9 37 54 61 52 82 84 67 96 86 49 51 40 51 41 10 6 8 1 55 94 101 94 6 12 -42 -30 58 69 68 64 73 60 80 50 5 72 111 107
260 74 160 168 140 102 39 21 54 66 63 73 82 111 82 50 121 58 54 15 22 46 38 -1 22 -14 29 67 64 66 76 31 24 4 -33 -33 22 67 96 105 75 101 82 76 117 172 129
17 217 180 212 181 59 44 35 39 31 63 89 110 139 144 89 40 36 57 40 14 3 13 9 -15 -5 6 43 19 44 84 38 13 48 -19 -22 17 58 70 66 99 44 101 88 81 72 62

GFSGBSN_con_3kmhel_081.txt.gz
Helicity
43 50 79 117 153 194 135 71 48 49 71 56 57 58 58 59 57 64 45 55 41 21 24 36 36 32 71 104 77 75 80 79 126 101 77 77 155 152 209 130 180 146 77 122 226 215 376
53 49 52 68 124 227 211 73 47 44 87 61 63 63 57 47 60 58 37 40 31 3 15 23 30 35 78 79 45 -23 -16 39 29 105 70 98 133 169 133 153 208 86 63 121 63 115 335
42 43 55 54 58 176 214 106 87 71 86 76 73 72 51 51 55 51 29 27 18 -8 -3 17 32 47 64 41 30 -4 4 74 247 2 93 133 115 142 221 122 152 164 66 59 80 36 25
85 33 46 55 60 112 213 120 119 105 91 94 72 74 54 52 50 44 24 18 -2 -14 -16 16 24 59 43 48 30 16 35 4 45 91 92 122 137 124 202 232 167 142 156 48 55 72 0
76 89 25 44 47 69 206 141 133 98 65 83 80 80 57 51 42 39 19 14 -3 -13 -1 30 31 79 43 57 4 28 23 74 28 48 56 105 119 171 164 204 195 105 133 68 57 97 68
67 86 96 37 48 59 133 156 135 89 72 72 90 82 72 46 38 25 13 6 10 -14 11 34 53 58 58 48 -9 47 48 48 46 53 40 38 197 85 232 238 132 124 22 42 77 54 103
8 47 83 122 51 59 108 153 144 100 73 80 94 92 73 38 28 25 31 51 73 76 30 65 68 54 61 -23 38 27 8 39 46 91 35 50 86 74 126 215 214 182 115 51 24 -42 12
62 -12 24 118 141 59 99 168 133 117 65 81 97 107 67 29 37 41 49 76 73 62 61 99 52 87 29 0 9 14 31 19 43 55 -15 82 68 149 73 165 214 178 131 138 94 -6 -16
73 97 -3 31 165 84 90 159 142 122 80 78 112 112 72 20 59 59 62 39 27 16 37 73 44 45 19 -2 -15 -30 49 34 25 54 43 64 -17 169 56 134 130 158 106 114 56 65 112
-61 52 97 -57 95 188 86 174 150 120 84 85 121 112 76 39 78 67 61 59 3 7 64 35 34 42 36 -3 -20 -12 21 38 27 32 44 87 80 68 36 47 89 122 71 135 108 158 97
15 -27 96 52 -41 180 101 170 186 146 118 96 117 115 72 66 78 79 53 30 -7 13 170 50 33 35 20 -5 1 -28 -23 27 5 62 134 63 56 44 87 71 71 106 125 35 64 73 99
67 45 -71 113 -77 83 162 165 181 156 100 100 105 114 78 82 70 53 32 6 7 116 121 45 18 24 13 37 33 14 -1 34 31 93 44 118 125 72 45 49 77 229 135 166 189 133 158
61 84 -8 28 -81 49 195 218 179 148 115 107 98 100 94 60 81 64 33 37 163 196 76 70 49 26 25 54 57 61 51 59 94 59 136 72 88 61 60 70 90 91 154 148 186 205 151
57 76 75 76 -56 22 278 252 184 166 105 96 90 103 67 66 74 65 59 110 234 122 53 33 52 7 39 30 8 19 37 46 54 68 104 56 66 104 77 102 58 58 122 35 177 139 180
35 26 44 0 93 105 357 253 202 125 129 88 118 129 110 76 60 60 105 183 163 93 34 37 27 33 26 15 0 34 45 49 112 125 72 46 72 107 133 112 146 92 143 130 105 71 102
16 6 21 12 177 289 325 271 190 163 151 89 149 117 101 88 62 58 112 119 103 30 11 30 8 -10 -2 16 11 8 15 16 84 88 54 32 57 85 75 91 96 105 118 130 191 100 101
-27 11 72 224 186 295 219 279 223 141 110 32 154 86 76 90 80 89 108 106 67 0 -11 -18 13 -21 -35 -29 -2 10 19 7 33 75 81 32 45 53 75 61 56 77 121 125 118 105 99
-6 -17 503 190 15 139 236 319 195 210 99 88 136 69 71 85 120 74 71 73 28 43 -13 -17 -17 -38 -37 -32 -21 -9 1 37 15 14 84 41 26 86 54 62 71 62 61 79 90 99 106
-8 214 405 83 -11 122 299 286 212 222 103 194 153 110 78 64 60 62 23 52 37 63 14 3 -17 -35 -37 -34 -37 -20 -38 83 80 89 29 45 53 104 116 74 67 47 35 55 77 106 101
-6 204 249 132 74 209 368 252 202 123 -7 171 105 55 53 -4 -12 21 48 81 92 7 3 -28 -31 -31 -34 -38 -22 -25 60 60 82 120 93 74 35 43 30 34 52 55 37 33 84 71 47
13 187 176 221 105 123 417 176 195 38 -10 165 85 22 13 4 -5 2 1 74 101 84 -5 -16 -26 -14 -2 -7 -18 -23 28 59 76 112 99 64 42 27 38 47 42 41 40 55 99 72 108
56 29 246 270 156 336 279 190 84 -29 82 130 70 26 44 2 -5 81 35 50 99 65 57 44 8 1 -14 4 7 3 -5 21 42 68 69 78 61 59 33 20 44 36 31 22 -2 27 31
88 23 285 277 86 280 297 138 40 85 125 94 68 72 30 31 44 110 41 49 49 76 5 -1 -8 17 -4 -10 -15 9 11 37 60 54 65 59 55 63 48 69 40 -11 27 40 41 61 70
73 159 233 335 54 279 281 125 -15 70 102 87 133 75 47 42 49 20 28 41 101 43 58 1 -18 -2 -17 -34 -21 -23 -15 -10 23 64 44 68 90 84 56 89 59 33 55 54 65 72 54
109 126 343 238 -4 322 242 68 49 59 103 109 97 63 45 59 56 70 103 105 115 50 25 8 -24 -34 -30 -26 24 19 7 -12 -14 6 81 60 77 62 67 58 39 36 35 39 64 92 74
85 211 396 68 212 251 176 42 47 27 61 108 84 66 65 78 67 81 109 81 72 64 37 5 -3 -10 -43 -17 42 171 146 70 34 -18 3 58 87 86 70 71 55 51 29 31 42 91 120
57 165 337 30 307 381 193 18 9 30 98 104 73 67 80 64 124 128 78 55 12 15 15 30 33 8 -26 39 91 104 119 38 87 77 -10 -21 -13 -20 7 50 57 48 56 62 49 44 125
66 169 342 20 179 137 111 61 39 45 112 96 73 68 57 58 177 109 92 86 59 7 13 19 24 -4 9 21 36 56 71 60 64 49 27 12 -3 -13 -13 -25 -37 63 81 54 55 128 109
89 328 -20 171 233 64 136 53 33 80 83 84 111 116 105 87 116 82 105 116 104 86 -6 -10 -19 21 0 -4 -17 -5 32 60 95 141 27 55 11 -13 -7 1 40 77 70 91 93 76 63

GFSGBSN_con_3kmhel_084.txt.gz
Helicity
79 40 5 36 50 68 100 198 175 80 65 78 75 78 82 70 52 53 50 27 27 37 27 39 32 56 80 116 88 42 27 49 32 128 75 87 54 99 141 105 163 134 116 109 137 193 312
43 34 30 33 24 53 74 126 217 122 94 86 84 76 89 71 60 58 41 23 24 26 18 34 36 56 96 94 55 -29 39 91 7 58 43 88 68 83 142 152 95 31 288 79 124 283 281
50 52 52 33 24 13 53 94 196 156 110 95 78 85 103 74 78 45 40 15 15 12 14 19 46 51 83 54 43 -6 10 44 144 11 52 62 57 113 106 156 129 122 49 72 -137 329 247
20 72 29 73 54 32 34 58 164 214 113 84 92 93 95 84 80 46 32 3 15 8 8 15 31 88 85 52 42 6 -11 -46 36 41 46 38 37 87 127 233 141 116 89 116 120 70 146
90 83 98 63 36 75 63 28 115 188 121 99 88 89 88 97 80 51 31 -2 13 11 -2 28 39 102 62 32 37 25 -3 24 58 28 81 89 70 123 132 126 173 153 139 71 93 49 62
50 111 131 92 53 3 113 112 98 173 142 107 85 93 90 96 82 36 40 -12 24 11 18 38 29 69 65 22 22 23 10 22 25 18 84 118 99 110 157 151 97 133 85 99 60 86 -26
-66 109 166 146 91 23 33 105 59 128 184 118 69 100 115 90 71 46 83 55 110 70 39 36 60 56 33 -1 29 36 -5 37 2 56 83 137 63 76 138 132 151 146 47 54 63 19 47
13 27 73 145 144 110 50 49 183 131 168 162 91 68 87 86 68 93 95 116 93 45 30 31 32 50 5 2 -16 -11 17 9 24 56 40 99 49 96 137 149 188 146 55 53 50 -39 -8
33 32 64 76 136 156 59 22 81 63 170 168 119 61 94 81 111 107 91 68 56 36 48 36 30 35 -1 -12 -28 -14 33 19 30 73 29 52 74 174 29 155 147 179 75 89 113 21 -16
87 105 56 22 -24 84 114 -38 26 125 201 184 120 78 81 82 131 107 93 64 52 29 124 59 44 33 14 -12 -34 -23 11 13 12 49 -7 49 134 163 36 95 117 100 55 123 64 49 67
39 34 39 25 -43 -4 67 -49 -34 159 236 190 135 106 81 99 154 124 91 64 36 30 274 71 33 26 20 10 -7 -36 17 38 -18 28 39 47 8 112 74 78 93 108 125 60 64 121 89
11 4 1 25 12 -70 -0 -1 -60 112 172 179 138 112 100 141 133 89 81 59 48 164 190 79 40 36 34 51 26 -10 -17 30 23 80 110 39 33 71 129 85 25 212 145 178 145 85 101
48 42 15 27 27 14 10 30 -74 79 165 181 159 79 109 124 116 99 84 60 182 216 86 85 67 34 25 41 26 -3 -11 62 76 92 95 68 73 55 52 123 91 116 153 119 100 125 102
50 61 60 29 34 42 35 71 19 -11 174 234 168 99 96 88 121 124 84 126 189 170 103 46 43 17 23 29 5 -2 59 88 69 86 88 60 94 81 80 116 75 194 104 79 114 133 144
66 66 41 -1 15 7 27 64 96 -20 130 212 164 141 158 107 115 104 89 131 149 133 78 55 27 7 -7 -6 -15 15 30 63 89 77 57 57 80 63 76 99 75 87 152 112 134 155 152
56 63 -3 16 -12 6 30 65 168 150 205 263 246 168 78 127 116 109 67 69 96 55 38 16 17 -3 12 1 -4 7 63 63 48 40 54 79 71 104 102 73 84 69 85 112 112 125 103
26 -11 -1 -57 -26 27 181 147 60 66 306 194 242 224 106 173 144 42 71 51 64 22 17 21 12 -22 -25 -11 -4 6 35 67 49 36 14 64 43 51 62 73 87 104 101 95 89 82 73
-31 -2 -18 -40 -23 197 523 102 -6 304 228 180 235 174 90 179 124 31 23 32 32 37 -11 -21 -11 -21 -42 -31 -18 23 33 78 67 38 10 28 17 41 17 43 61 59 72 92 91 99 108
-2 -4 -17 -46 73 259 162 81 162 359 155 313 340 219 106 141 53 19 -5 27 25 39 19 -15 -31 -50 -63 -48 -54 -30 23 63 83 81 44 36 36 97 74 43 52 47 47 65 79 86 77
22 9 -34 18 184 316 324 -16 427 232 122 250 285 101 111 85 38 -7 21 64 55 -6 5 -22 -36 -46 -64 -55 -72 -67 -15 73 74 77 72 48 45 41 42 33 52 61 44 57 88 86 59
26 15 -26 64 49 461 379 27 305 183 126 318 191 30 60 53 15 -17 6 37 66 69 -7 -24 -26 -33 -39 -52 -47 -56 -62 73 98 127 103 77 51 44 48 36 41 51 56 80 69 58 85
25 1 14 24 145 410 274 77 275 133 188 288 115 43 88 17 14 3 1 25 56 43 48 34 4 -0 -18 -27 -34 -30 -35 -28 -1 103 113 107 75 40 39 28 36 38 40 43 39 63 48
26 23 31 8 163 287 109 279 335 87 149 209 148 143 67 20 55 67 -4 30 31 58 -6 -15 13 16 2 -17 -23 -29 -43 -35 -19 6 62 78 67 76 66 73 45 -6 -0 33 40 43 63
36 63 65 22 351 305 12 222 89 -22 143 99 132 96 68 60 52 25 16 15 61 16 41 34 -8 -8 -11 -30 -10 -25 -44 -58 -59 -62 36 66 90 85 60 81 59 40 58 59 43 67 47
43 65 77 245 324 220 13 248 161 8 87 104 118 78 52 68 60 77 62 82 142 123 38 20 1 -12 -13 -12 2 -5 -25 -42 -47 -56 -40 -25 -13 -20 -6 43 49 50 66 69 70 76 84
52 79 138 244 254 -20 60 301 146 -20 -2 87 130 99 36 55 83 117 86 85 80 38 50 33 18 2 -3 16 10 65 70 38 36 -28 -43 -23 -49 -30 -26 -54 -62 66 66 62 54 68 85
45 68 154 312 422 115 270 261 93 -11 10 84 117 101 49 49 148 150 84 83 47 39 -2 26 44 15 -6 30 41 14 20 8 68 99 53 18 -24 -9 -10 -26 -26 62 63 78 85 52 81
66 65 149 233 28 200 272 131 41 -18 31 68 106 114 41 39 174 152 113 104 97 86 13 24 22 24 8 11 6 6 -26 14 7 11 31 72 74 30 23 51 16 42 97 76 51 95 75
52 115 224 190 46 108 270 93 48 38 58 73 101 118 108 65 116 129 116 147 115 106 57 115 -32 15 -5 -15 -28 -42 -35 -33 4 23 -15 54 33 18 25 34 23 13 18 92 76 80 67

GFSGBSN_con_3kmhel_087.txt.gz
Helicity
120 118 109 60 41 38 43 37 34 156 167 161 93 62 66 59 60 75 95 68 46 33 39 42 55 80 117 153 97 60 50 84 129 33 28 51 80 64 85 63 104 33 -10 176 113 225 379
90 77 86 86 76 63 51 51 62 30 137 185 164 69 60 94 61 83 95 67 42 40 36 40 57 113 126 151 53 57 48 108 115 -20 -53 68 77 56 57 81 54 -2 -19 62 148 177 319
138 123 116 117 109 131 111 93 67 73 110 151 199 81 70 67 56 86 75 63 52 37 27 31 59 91 105 74 61 41 -42 130 117 8 -46 36 29 95 65 100 42 128 29 209 66 112 261
134 100 102 121 147 149 159 150 91 71 42 110 202 105 93 62 67 45 64 58 55 43 31 22 70 110 90 44 57 14 -24 87 36 23 29 67 -16 62 120 124 80 74 77 -184 101 112 134
-17 -0 82 94 124 145 166 119 110 90 132 141 179 169 80 70 52 22 50 44 65 46 30 22 75 86 30 12 27 -18 -21 1 -11 -10 52 73 -3 50 110 121 124 117 57 67 71 113 160
39 25 6 54 106 132 181 127 112 129 154 49 146 135 113 73 57 26 39 42 86 74 45 49 57 52 24 22 14 2 -2 6 -12 -20 39 36 -6 62 114 133 95 111 52 82 73 17 115
75 65 57 31 24 117 164 183 102 139 81 157 177 179 166 88 48 49 41 129 193 133 63 57 58 38 16 -6 15 18 -11 18 1 1 31 93 23 34 220 157 96 53 8 20 22 120 51
91 92 86 71 46 -2 78 114 147 102 97 79 114 169 165 113 56 51 53 164 164 114 70 32 27 29 8 14 3 2 3 4 11 43 68 108 51 54 134 117 60 63 74 -15 -17 -25 23
91 86 87 95 80 32 -22 -4 78 83 40 144 81 204 168 139 66 77 70 126 120 105 93 45 36 23 22 6 8 -2 3 4 16 72 58 43 66 78 98 115 62 91 63 54 15 14 84
80 103 92 64 68 82 26 -5 -11 42 10 194 162 205 204 175 114 83 75 80 109 82 167 107 43 26 24 28 -0 -6 5 -14 4 40 53 126 101 81 43 94 85 131 117 124 -6 41 17
56 36 20 18 19 36 61 62 -40 16 34 92 167 176 187 188 134 75 83 84 110 74 209 75 55 7 28 42 16 -17 10 11 -17 19 77 93 123 69 46 106 113 79 113 88 100 73 64
41 34 31 35 25 31 37 50 -5 -49 11 65 95 142 155 190 119 70 82 97 122 186 174 101 51 47 42 35 8 -4 -28 12 -9 50 101 25 110 102 93 54 60 110 62 99 122 92 100
34 38 46 57 51 43 38 34 54 -15 19 45 124 105 177 216 85 103 47 148 215 207 74 80 68 43 18 39 7 -8 -25 16 45 41 70 43 82 113 74 52 65 126 68 176 150 107 128
40 59 59 81 28 44 43 29 45 21 51 42 158 147 153 132 108 127 56 110 186 131 114 38 50 36 13 15 -22 27 37 51 67 50 44 38 113 68 59 69 37 97 77 104 173 106 101
50 68 51 65 38 27 -29 -29 31 18 64 20 34 197 169 167 88 100 -120 124 106 104 77 46 20 29 -2 -19 -9 38 84 75 68 36 27 81 140 91 40 88 107 75 66 71 39 114 99
49 48 42 50 13 -10 -4 -25 -8 23 71 -71 69 168 148 154 85 65 -95 74 59 33 35 11 6 17 21 -7 -44 2 63 63 36 47 25 53 116 112 99 93 52 130 105 95 102 69 93
61 46 59 -30 8 12 -3 50 44 55 87 10 121 166 186 109 142 -27 -34 10 28 8 8 -8 -6 -6 12 -9 -27 -8 63 60 35 33 48 30 54 79 66 76 64 81 111 99 66 70 57
53 45 -29 1 6 -17 -21 -8 51 323 254 18 281 117 186 171 27 -5 17 -53 9 38 -18 -29 -30 -14 -13 -11 -32 -17 24 75 44 33 34 56 35 44 32 40 42 57 67 61 66 67 73
48 -35 -17 13 -8 -28 -15 38 295 372 -22 356 287 222 220 139 -7 26 -3 -12 11 39 -2 -26 -35 -25 -48 -28 -33 18 69 74 45 30 14 39 48 16 32 24 36 24 45 68 73 82 69
29 -29 -16 2 -10 -27 -6 128 445 28 75 477 340 189 173 72 31 -14 -13 31 54 -11 -28 -54 -46 -55 -53 -50 -48 -28 65 72 89 45 28 14 5 -22 -4 20 28 38 52 66 74 59 53
-2 -30 5 4 -3 -2 144 283 510 21 384 445 232 54 100 45 -17 -3 5 25 48 67 -29 -47 -54 -65 -70 -49 -48 -53 -48 69 89 87 56 47 35 42 62 46 54 56 60 47 36 48 52
-27 -22 24 28 8 84 217 311 208 248 358 277 60 25 120 11 -35 15 48 41 41 47 32 2 -23 -35 -67 -78 -64 -60 -74 -58 -43 72 70 67 51 40 43 48 36 31 45 44 35 38 31
-27 -6 36 32 68 101 253 311 -104 149 261 200 127 110 77 -9 -8 74 41 49 16 -4 -8 -36 -18 -19 -52 -60 -66 -56 -52 -59 -60 -64 -25 88 72 59 7 50 29 12 9 36 47 54 67
13 31 38 44 38 167 344 203 -83 63 193 188 170 105 35 22 52 29 3 32 22 1 -10 14 -19 -23 -27 -29 -17 -40 -57 -84 -70 -51 -52 -71 -69 -77 -83 28 -62 39 59 57 42 45 52
66 47 52 36 25 335 186 -153 171 286 230 205 178 147 53 51 35 28 14 38 124 92 70 39 20 11 -16 -10 -35 -46 -57 -71 -77 -77 -69 -74 -79 -81 -73 -63 -50 24 63 69 64 68 72
51 52 80 83 237 186 -8 48 122 226 193 229 180 128 72 57 97 121 102 96 130 86 89 66 78 37 18 12 -16 4 9 -1 -25 -64 -83 -77 -79 -61 -54 -48 -34 -40 59 85 69 53 64
36 62 103 126 231 157 40 109 73 137 156 90 91 155 76 41 178 159 114 125 87 100 70 71 63 32 31 27 15 -1 14 -8 19 25 20 -1 -36 -8 -23 -33 -38 -22 -22 11 -21 -38 47
40 94 126 192 39 77 146 180 106 169 95 84 95 117 51 62 186 172 158 132 124 90 21 56 48 48 10 15 8 3 -11 31 2 -21 -16 40 54 55 32 16 -37 -33 -15 -18 -39 -22 22
76 103 222 117 -49 10 192 175 95 85 65 39 93 158 133 75 127 188 179 170 142 102 63 145 24 28 -0 -3 7 -15 -14 1 36 19 -27 12 15 12 22 20 -20 -19 -11 -35 -27 -18 -7

GFSGBSN_con_3kmhel_090.txt.gz
Helicity
97 110 122 120 109 102 117 133 134 148 116 85 42 132 134 111 59 63 40 57 20 10 47 84 92 93 112 128 114 68 66 53 162 137 83 32 57 69 25 69 57 74 92 38 53 65 -129
92 105 141 159 148 144 112 128 158 166 202 126 24 90 152 121 96 51 43 36 33 0 38 69 91 124 129 123 68 59 52 83 126 125 66 26 45 46 61 7 55 72 56 32 -30 -45 -19
56 88 116 141 155 130 132 130 171 188 178 107 155 156 115 93 134 53 43 29 51 -15 23 56 87 107 100 81 61 36 42 122 110 90 56 33 24 93 28 41 71 88 45 18 -49 -15 14
24 14 7 12 53 81 81 98 120 136 169 128 189 84 118 119 121 70 43 30 47 -17 -2 57 91 112 81 47 35 14 39 23 60 33 12 -5 8 8 -43 126 69 31 37 -95 -84 -4 22
28 27 36 37 20 5 48 78 91 114 148 133 169 161 139 101 114 110 47 19 39 9 -4 56 104 95 59 2 27 13 43 37 56 5 8 43 -45 -58 11 68 82 56 -40 -67 -90 75 10
52 52 54 51 45 36 31 22 68 93 133 147 171 213 147 131 133 156 102 35 46 42 31 87 90 78 49 44 14 10 37 33 49 -1 -4 -4 4 5 46 63 26 12 -39 -12 -37 42 88
83 87 85 84 72 66 56 43 0 57 90 145 170 146 66 166 103 113 146 82 103 70 87 122 131 74 64 3 17 11 24 6 9 -22 21 -20 -5 27 42 46 57 57 17 11 46 -15 -25
83 79 68 72 89 87 78 46 30 -13 41 76 114 185 64 153 116 123 187 75 52 78 80 86 101 61 54 32 19 -4 10 25 7 45 -11 8 -23 -8 211 58 50 44 0 62 3 25 55
77 66 60 64 82 83 75 74 50 -38 -6 58 90 171 34 143 119 132 141 58 45 64 118 174 110 68 46 43 23 -3 14 0 -9 48 33 0 22 33 113 77 56 76 21 13 19 -43 -19
59 56 45 39 42 51 44 34 47 41 -58 26 52 77 31 157 105 123 71 16 7 56 111 165 79 49 47 41 27 -5 1 -12 -5 19 50 42 54 55 60 101 91 76 93 31 -84 -31 -16
48 43 35 27 27 9 14 28 38 36 16 -44 40 30 46 102 118 92 86 48 21 63 28 88 78 38 51 53 16 10 7 -1 -1 41 15 74 82 24 24 74 69 49 48 77 65 19 7
38 26 26 23 30 32 27 43 46 55 33 -38 3 38 123 88 132 94 108 37 39 51 29 131 76 60 74 55 36 -10 -27 0 15 56 51 55 63 86 49 27 79 75 75 146 153 93 103
36 26 21 28 39 37 49 25 8 26 53 32 16 85 76 171 134 97 71 61 -111 1 70 96 68 43 34 50 40 0 -39 13 16 49 59 83 70 79 33 56 42 40 68 111 82 45 28
25 15 29 34 31 57 47 21 18 33 49 65 22 72 53 232 184 148 129 -82 -105 24 54 96 49 29 37 41 -7 -12 2 14 54 36 44 49 71 54 59 51 31 52 51 155 131 77 66
22 26 37 44 6 45 72 30 5 18 2 7 30 41 74 158 150 128 100 -34 -50 9 57 104 46 23 7 3 3 17 44 42 49 59 55 48 77 44 47 54 71 52 84 96 112 96 63
16 19 35 33 6 46 33 6 19 -11 7 44 12 107 89 113 132 153 11 -20 -34 15 56 44 15 0 31 -7 -21 19 40 34 13 53 64 88 67 55 85 66 71 86 56 79 113 138 96
27 23 27 10 17 18 -5 3 -8 12 33 30 -18 97 50 113 150 53 31 -26 -21 7 27 23 -6 -12 6 -6 -6 7 26 17 27 60 56 72 54 79 123 52 74 64 48 50 44 76 77
19 14 6 29 -32 -9 -6 -11 -37 -28 13 -10 -52 -17 45 177 30 44 25 -38 -22 -8 24 8 -33 -23 -3 -10 -31 -3 12 42 50 62 68 68 34 41 48 37 21 5 34 44 39 67 77
24 30 15 -14 -35 -18 -32 -31 -28 -23 17 100 -8 75 113 179 22 45 25 -50 -21 -11 35 -2 -34 -22 -29 -26 -56 -53 -5 35 41 33 68 84 42 39 41 35 40 37 45 51 60 60 62
44 11 10 -33 -33 -21 -26 -26 35 87 270 59 85 -13 114 100 91 41 13 -42 -29 0 14 -24 -40 -47 -32 -21 -50 -55 -73 39 33 24 22 20 12 -7 -14 0 14 13 31 43 55 46 37
32 24 -9 -21 -5 -11 -5 91 236 528 115 314 160 13 96 81 39 8 -30 -36 4 44 -6 -48 -63 -51 -53 -41 -40 -57 69 88 65 47 22 9 2 17 43 28 39 36 19 24 34 26 25
-2 5 21 13 4 17 132 145 395 33 119 216 114 33 107 51 109 -16 -15 -6 21 39 39 5 -56 -61 -68 -66 -31 -18 -37 -25 -28 62 41 40 3 16 16 36 33 13 17 25 18 17 8
37 56 48 20 -18 39 158 210 480 15 167 133 148 107 119 -16 13 49 21 17 3 -21 13 -32 -51 -65 -104 -65 -58 -53 -41 -49 -52 -48 -41 -42 -10 -37 -15 35 -5 -25 -1 20 24 29 39
30 46 53 14 -1 82 265 243 151 88 117 159 162 16 65 23 31 52 -39 16 -24 -7 -11 -14 -50 -43 -27 -18 -12 -12 -29 -68 -71 -35 -38 -63 -54 -58 -52 -63 -76 -30 40 35 26 32 43
31 24 32 50 99 93 228 153 -7 194 189 320 168 124 54 33 24 -42 -45 36 67 69 40 14 -2 9 -22 -9 -22 -36 -35 -67 -65 -37 -42 -49 -70 -76 -86 -70 -61 -70 -58 -45 -32 -21 44
30 20 46 68 72 66 158 -13 261 241 248 229 189 109 52 10 7 33 28 36 89 66 61 41 73 60 -11 -17 -21 3 21 18 -4 -41 -44 -60 -66 -64 -78 -80 -79 -80 -66 -52 -48 -76 45
51 46 61 46 21 68 16 194 264 213 174 153 87 68 43 22 95 96 85 47 70 83 61 52 44 19 20 -4 4 -7 11 12 42 31 37 4 -29 15 1 -22 -43 -52 -45 -37 -84 -75 -63
69 90 71 -40 -25 32 2 169 247 211 168 97 104 74 32 27 147 130 121 91 101 80 65 37 46 32 6 -6 -3 9 3 32 16 21 23 53 55 46 22 5 -7 -48 -44 -54 -54 -52 -39
78 116 165 95 -28 -14 31 116 151 210 83 24 40 86 107 56 109 168 162 143 141 115 71 116 10 29 -5 -4 9 -5 10 14 38 32 0 32 34 32 38 23 -22 -26 -22 -16 -9 2 10

GFSGBSN_con_3kmhel_093.txt.gz
Helicity
67 81 89 100 104 118 131 115 106 89 113 169 172 154 183 87 87 95 73 74 63 65 47 35 56 55 71 93 58 91 59 58 83 133 90 63 42 94 104 83 78 63 62 70 53 77 74
55 55 59 74 92 102 105 108 106 106 105 186 180 154 168 117 80 76 100 70 76 65 40 60 70 87 88 79 71 80 60 47 80 97 87 123 82 31 68 54 32 86 57 34 78 45 29
48 45 53 65 72 62 73 82 89 96 102 136 202 172 144 85 107 95 82 75 113 113 47 73 52 69 80 42 65 44 45 61 66 57 32 68 38 -4 72 19 33 -11 22 40 41 23 32
55 55 54 67 68 61 55 47 57 69 100 122 139 190 166 -17 147 107 66 143 112 114 58 74 76 102 57 50 41 13 41 37 67 18 24 27 7 -33 -22 -7 12 1 107 22 -4 17 35
86 93 100 103 90 72 56 49 36 40 50 96 131 121 230 168 140 87 123 68 59 74 62 86 119 105 29 21 39 14 46 30 66 24 25 21 -2 -34 -58 -37 63 6 25 -10 -20 -61 -60
89 90 107 112 95 82 70 51 50 57 34 63 123 131 168 274 126 141 108 99 121 87 85 126 123 74 23 44 29 14 28 36 26 18 25 18 27 19 -27 72 25 28 9 8 -45 -52 -59
86 101 102 103 94 78 68 74 79 59 40 24 93 133 166 301 126 146 129 106 108 105 115 100 97 69 33 12 21 29 17 23 22 30 24 -9 26 29 22 63 68 18 -21 -56 -14 -21 -98
92 91 98 94 79 73 71 66 51 53 39 12 67 91 134 147 134 144 82 74 101 93 56 86 85 29 33 26 53 42 13 17 15 16 -22 -12 21 -10 68 33 39 17 -18 -17 -17 11 9
88 86 86 83 74 63 51 48 41 41 33 41 21 45 103 38 127 77 60 67 117 48 92 84 113 41 35 29 48 33 19 -5 14 32 -3 -11 11 32 77 24 20 28 9 -2 7 54 78
75 64 51 38 27 21 18 30 23 19 46 33 4 24 62 67 48 55 6 106 63 -16 -11 54 41 5 37 26 56 11 6 2 3 13 6 26 57 17 41 38 38 16 56 3 -80 107 117
58 43 35 27 26 24 30 22 21 35 34 59 29 6 46 11 24 26 30 111 57 1 -181 58 49 18 16 58 42 14 -2 -4 -7 11 14 43 36 35 48 61 80 31 50 28 -79 11 103
49 44 33 27 17 17 27 21 43 31 33 40 55 17 29 -8 42 62 90 126 82 -73 -154 63 53 20 42 60 32 -19 -15 -8 15 49 11 62 50 45 43 22 77 44 81 118 92 86 60
50 31 25 23 26 27 18 27 95 21 42 20 44 13 8 -12 11 114 128 104 -116 -136 52 64 43 7 15 39 -3 13 1 -7 15 23 70 71 47 31 19 46 83 29 70 95 102 110 26
39 31 25 17 8 21 33 32 -7 18 31 46 38 50 -25 -45 64 179 178 80 -96 -95 -3 44 37 27 22 26 5 -3 6 17 36 31 50 62 68 52 74 70 53 27 105 110 74 108 74
30 41 22 24 20 27 33 -11 11 7 7 28 38 -11 -48 -19 118 202 191 -55 -74 -105 43 93 39 13 7 28 20 8 26 35 44 61 79 66 72 32 51 68 83 122 103 127 103 159 119
38 33 20 15 24 30 7 9 -7 8 8 50 -20 -23 -42 141 156 201 97 -29 -33 -21 12 46 5 2 -2 4 3 14 24 24 54 74 51 90 98 73 67 66 73 60 108 116 91 92 122
51 40 8 2 21 16 6 10 -14 6 50 44 -27 -2 87 136 173 127 8 -2 9 6 5 19 -8 -1 -8 -3 15 19 28 44 65 79 77 85 77 66 60 33 49 39 84 95 78 90 46
43 38 15 -0 -20 20 -34 3 -0 25 52 -56 -1 81 78 60 41 48 11 18 -2 -2 1 7 -7 3 4 9 8 11 45 61 58 78 47 53 52 71 29 72 63 17 34 53 85 98 99
48 23 -1 28 9 -41 -22 -27 -8 18 -30 -38 -23 53 88 68 -44 -4 23 21 -10 -3 -4 5 -1 12 28 4 -17 -1 41 63 49 62 81 73 47 38 52 47 36 17 35 24 43 58 115
57 32 17 18 -3 -14 -21 -16 4 4 -38 -21 28 18 75 46 40 13 59 -6 -35 -2 -3 -6 -0 -14 -3 9 17 -19 19 46 46 51 55 57 37 27 8 14 24 15 20 25 27 55 47
40 48 62 58 25 -1 16 42 69 133 67 40 57 18 41 -19 4 11 63 -2 -9 7 -15 -13 -15 -25 -18 -34 -24 -31 5 33 45 42 29 25 22 31 34 27 17 7 -8 -1 20 19 53
13 28 26 15 25 72 95 87 248 264 -6 16 5 6 61 -7 53 45 14 3 14 5 20 16 -21 -21 -23 -20 -24 -39 -54 -18 -5 33 10 15 20 18 29 41 38 23 22 18 20 20 29
20 20 20 48 57 115 146 296 193 138 152 63 121 99 51 49 103 74 20 6 1 -17 -3 -7 -24 -37 -44 -22 -24 -36 -30 -24 -42 -30 -11 -6 -9 1 16 14 20 26 35 17 15 15 18
21 27 43 66 67 152 215 114 70 55 21 144 159 76 8 68 113 120 9 12 1 -15 -8 14 -26 -42 -12 -49 -48 -26 -21 -62 -38 6 -12 -32 -22 -18 -19 -18 -28 6 15 5 -6 -4 18
13 41 46 63 52 74 97 81 41 -1 52 143 109 53 47 25 32 26 4 -26 -22 -5 34 13 3 22 -4 19 -37 -75 -66 -85 -43 -27 -19 -33 -49 -55 -58 -46 -35 -32 -50 -59 -56 -53 -28
27 50 72 72 53 63 58 70 132 42 80 101 99 46 -15 25 15 13 -35 -26 -20 10 41 24 52 46 -12 -14 -19 1 13 -11 -11 -45 -24 -43 -61 -65 -41 -25 3 -38 -45 -42 -61 -86 -35
45 82 153 137 5 -46 112 129 109 112 99 43 63 22 10 -8 32 2 -23 -43 -22 5 37 42 35 10 -5 9 17 32 56 32 95 87 55 22 -10 16 17 14 -13 -48 -33 -49 -62 -48 -31
79 133 172 99 106 44 107 198 181 138 119 82 68 52 14 7 44 -7 10 14 25 7 41 35 30 8 -3 4 19 34 46 79 71 76 81 106 87 76 46 26 39 -29 -26 -8 -20 -25 -16
85 142 118 29 85 98 65 90 113 109 70 61 26 37 51 1 29 58 74 67 75 49 8 49 -4 43 -2 -1 13 7 31 32 58 58 31 54 58 51 60 42 1 -10 -3 -23 -8 5 3

GFSGBSN_con_3kmhel_096.txt.gz
Helicity
8 20 32 38 47 64 79 102 121 133 127 131 139 162 218 215 199 100 81 75 53 85 67 46 127 162 103 110 64 94 58 50 38 60 27 36 67 105 153 89 66 76 50 58 25 37 99
34 34 39 33 38 47 53 70 89 99 107 119 115 127 137 245 257 96 111 97 92 88 89 98 148 128 131 68 94 67 50 31 21 31 19 38 88 87 104 81 51 72 55 35 36 43 79
38 42 43 36 58 61 56 37 33 65 76 93 115 125 127 189 230 94 114 89 82 95 73 108 96 108 96 62 81 53 25 31 30 25 10 10 -0 56 49 44 100 39 14 28 27 22 89
48 56 54 43 59 78 82 69 65 42 41 49 69 100 108 129 231 89 154 129 87 85 79 127 100 122 54 65 46 7 16 13 59 41 15 11 42 37 19 29 -1 7 28 -25 -42 13 61
52 41 34 43 70 75 84 48 52 64 52 32 43 84 102 111 223 168 153 121 64 84 74 110 121 98 59 35 36 18 27 16 52 17 10 9 4 25 9 -9 -16 43 -1 31 7 -22 30
34 38 47 46 47 43 48 32 43 29 19 26 12 58 91 114 189 129 154 116 86 84 123 142 137 81 46 68 37 24 24 13 27 33 32 28 8 8 30 59 -2 -13 -26 -2 -3 -12 15
40 31 55 58 40 34 32 35 42 44 28 22 -0 34 65 79 120 132 129 90 136 72 138 63 78 77 39 41 23 33 27 21 29 28 25 23 26 42 17 65 75 108 51 20 30 -10 -15
48 40 47 62 81 47 32 40 33 36 50 45 44 16 42 100 25 120 127 96 95 82 24 31 94 12 31 29 35 33 24 11 16 5 9 24 31 15 15 24 19 63 37 -5 3 -11 -3
44 46 39 47 68 43 26 24 35 40 35 37 61 5 24 31 74 85 79 77 91 62 29 50 44 35 -3 28 33 40 14 14 6 3 -10 -16 2 17 50 7 33 44 8 11 24 -15 18
40 37 38 46 48 36 25 18 20 23 26 26 60 40 24 31 36 39 49 26 25 50 22 21 12 28 20 32 24 17 -0 4 19 -21 1 -4 36 17 28 -2 23 31 10 21 5 95 1
52 55 53 40 24 28 4 31 27 44 6 36 36 44 50 30 33 17 23 41 32 39 -76 20 28 16 6 32 41 -1 -5 8 -11 -34 39 -0 32 46 29 15 21 41 12 18 55 169 33
45 48 65 20 23 26 13 19 -21 67 10 53 64 22 49 42 13 30 17 55 58 24 -54 28 27 -0 18 28 -9 -12 -16 -4 15 32 39 52 40 35 20 24 48 89 29 -10 22 41 35
83 65 29 23 22 -36 -29 9 28 -0 25 10 33 37 31 27 13 26 57 86 34 6 37 10 -13 -14 -24 -44 -96 -31 -0 21 22 49 54 44 42 31 28 47 35 68 45 65 101 54 84
64 44 42 33 -5 -17 22 28 46 -13 17 31 51 41 25 4 12 40 93 62 44 31 -13 -35 -14 -12 -43 -85 -91 -11 8 20 25 48 48 45 71 11 46 39 50 25 74 138 66 29 52
74 52 52 32 37 31 6 -11 19 6 17 45 31 35 -15 -18 -9 36 30 42 71 13 -42 -15 -14 -28 -52 -28 13 34 25 29 42 49 51 46 30 96 77 115 72 80 112 103 107 92 23
88 75 50 15 14 13 37 -16 -12 10 73 32 -13 -9 6 -2 8 41 1 24 37 16 -58 -33 -70 -23 -59 5 30 36 29 23 69 72 48 51 73 58 98 99 137 148 122 120 128 112 49
84 74 52 31 44 -14 32 38 6 38 64 19 -20 -15 23 17 47 9 16 21 29 49 -37 -82 -76 19 28 24 22 17 25 40 55 62 75 70 87 53 115 95 189 158 123 100 82 93 72
47 48 50 30 15 -23 -2 14 8 25 24 -20 -3 130 62 106 76 12 30 2 51 28 -41 12 52 31 37 36 21 26 40 59 85 80 102 82 58 58 35 76 122 137 150 108 80 62 64
27 26 29 35 30 10 -4 9 -0 1 -19 -6 10 163 62 151 11 20 20 59 29 -5 3 62 57 50 42 35 32 38 46 85 90 83 90 71 55 52 55 60 53 55 127 145 113 90 113
20 22 19 13 23 18 6 23 -10 7 -3 2 69 135 93 2 40 27 70 14 12 6 32 55 55 43 40 23 42 31 32 47 72 64 60 68 56 58 56 37 47 54 67 90 93 115 73
17 25 34 74 46 23 18 72 109 51 11 18 52 92 65 26 9 16 24 8 7 23 18 34 51 55 32 14 27 36 35 49 36 52 53 40 34 47 41 46 28 41 53 79 64 92 81
19 26 37 29 47 94 123 146 52 72 42 26 42 55 21 19 -0 25 30 22 34 18 11 20 35 28 22 -9 33 17 18 39 21 19 34 24 29 26 34 44 35 21 33 43 66 64 73
8 24 26 11 62 110 53 107 60 177 137 -37 26 32 36 56 67 31 16 10 32 19 -17 -0 23 7 -35 -10 9 -15 7 3 -2 7 10 19 25 44 42 44 64 43 50 30 30 30 35
7 20 5 45 77 70 74 79 38 190 97 30 26 36 86 103 100 49 16 26 12 5 -22 -5 4 -7 -12 -31 -20 -36 -52 -52 -39 -11 3 -7 4 12 7 16 5 1 41 45 21 31 32
9 42 55 100 121 95 59 52 77 90 110 94 13 -0 33 58 89 56 30 9 -3 -39 -35 -6 -4 16 -17 4 -15 -32 -49 -59 -43 -25 -18 -16 -24 -29 -32 -30 -21 -15 -11 -9 -7 -18 -12
37 58 95 186 105 6 12 38 65 71 39 -12 10 38 33 55 43 40 17 12 10 13 -0 -9 20 35 24 -25 -35 6 6 -31 -18 -59 -34 -46 -53 -41 -13 20 50 -45 -27 -14 -12 -28 -22
43 78 96 140 98 -56 -27 36 46 27 9 -11 12 23 4 9 27 29 -0 15 -14 5 18 25 36 12 8 -8 3 22 28 -0 89 94 66 42 14 50 54 54 18 -42 -38 -20 12 -3 -7
53 78 110 51 -14 -18 4 27 39 22 -48 2 12 24 -2 -13 -48 -20 4 2 -26 18 49 19 42 22 7 8 12 12 36 48 70 59 68 83 72 74 49 56 59 9 3 38 -18 10 22
30 59 74 -18 2 19 -33 -6 -5 2 -5 -12 -13 16 24 -9 -33 18 11 -4 -15 8 3 36 12 18 -8 6 18 14 39 36 52 56 41 55 37 24 38 18 -3 25 2 -13 12 31 31

GFSGBSN_con_3kmhel_099.txt.gz
Helicity
21 29 27 26 14 24 32 30 24 43 49 64 80 103 106 117 124 204 204 103 109 63 72 64 67 97 37 41 72 129 78 99 53 33 17 27 41 45 49 81 62 100 49 51 32 48 58
32 37 38 30 20 3 43 52 37 30 22 38 53 60 83 103 112 132 165 126 150 124 76 69 80 81 21 48 143 86 62 73 42 23 16 36 75 48 93 36 56 47 65 67 48 52 61
39 43 34 10 13 20 46 60 50 37 30 22 32 47 65 79 89 88 136 168 133 106 120 82 88 33 61 80 80 73 56 43 39 21 10 26 53 107 61 -6 -42 -20 -7 5 24 58 63
47 41 31 29 31 33 27 30 23 10 28 26 2 14 47 80 81 117 52 164 132 104 76 67 100 31 60 94 64 46 26 30 28 20 18 14 -2 58 37 -19 -15 -28 12 -10 7 34 27
42 35 32 7 34 38 27 28 25 31 36 33 2 11 9 59 83 154 141 203 113 83 37 60 48 69 81 77 49 30 28 34 43 23 24 19 18 12 14 -28 -10 18 10 31 -15 -40 27
43 33 24 35 18 31 32 42 41 39 32 48 29 10 8 42 55 90 96 125 160 91 84 62 123 112 64 90 63 48 34 28 20 39 47 45 19 -7 -1 21 -7 22 12 -35 2 29 55
53 26 24 37 33 35 33 50 62 55 41 35 45 28 3 29 27 37 161 116 60 107 74 59 47 74 123 60 39 26 39 22 15 31 36 35 22 13 4 6 -43 -36 -32 -25 -3 -41 68
63 81 47 32 -2 15 48 42 33 31 31 35 38 35 14 39 33 49 94 90 46 82 12 -6 65 68 47 47 49 41 31 22 26 9 5 30 25 -2 31 21 -23 -41 -46 -2 -1 -7 5
76 92 182 26 -14 27 25 32 24 18 28 34 58 37 24 38 44 79 78 37 53 16 40 39 39 28 30 35 36 42 22 10 -3 -13 -24 -10 -33 9 10 -10 -34 36 34 67 -0 14 28
119 155 163 31 35 48 21 22 16 9 -28 7 35 32 23 36 16 25 24 27 3 63 65 38 48 25 24 11 27 30 15 -7 21 -27 -38 -41 -4 -16 -9 18 26 51 56 20 54 36 -22
176 135 42 61 50 53 -12 -29 -25 -43 -24 6 42 59 6 3 19 5 29 5 -8 39 46 35 38 8 17 28 28 15 6 4 -27 -35 -25 -25 22 21 41 2 3 30 18 23 140 113 13
198 16 87 55 43 23 12 15 11 -8 8 19 15 2 -34 -9 2 31 38 35 46 81 41 29 23 5 17 11 -3 -7 -18 -5 13 -4 28 59 5 5 5 -17 17 70 42 118 123 85 -6
-28 62 60 41 19 17 3 36 -8 -5 11 5 15 1 -5 1 22 23 17 61 74 104 18 37 3 -16 -42 -79 -71 -55 -22 2 -1 -0 55 16 15 9 -17 -0 35 60 35 79 82 110 49
72 48 43 35 49 49 -9 53 21 10 14 19 6 11 -18 1 -3 20 77 45 145 36 69 43 -17 -23 -86 -85 -85 -41 -1 61 43 57 53 32 35 4 -21 44 40 37 40 69 123 81 129
40 37 6 13 4 25 13 -12 -13 25 49 49 24 6 -5 2 11 54 59 105 86 60 88 -16 -16 -61 -87 -90 -71 35 43 35 29 23 32 26 -1 4 54 64 95 26 43 46 20 -9 112
34 37 16 -5 12 16 19 15 17 33 52 30 40 62 22 10 -5 15 45 89 43 99 84 -42 -45 -68 -95 -79 29 38 65 16 20 13 17 5 68 34 82 105 147 103 102 82 41 92 105
22 28 58 1 14 7 -2 9 22 12 4 21 29 45 27 -11 20 7 75 25 56 79 68 -6 37 -48 -23 10 66 38 24 30 16 27 8 60 34 78 156 179 143 128 112 116 72 51 49
19 32 32 55 10 12 29 23 51 -9 1 23 90 74 27 15 47 25 63 49 51 83 56 104 86 50 34 23 43 33 26 41 52 41 88 89 111 108 182 148 128 150 91 74 59 70 30
15 34 27 70 29 33 47 19 15 37 33 76 136 88 57 8 53 49 42 59 53 77 71 87 60 38 44 34 57 29 40 50 57 78 63 68 76 188 181 161 115 132 155 121 79 79 58
25 49 36 33 43 62 89 75 76 60 56 74 96 30 20 31 74 37 31 22 53 31 71 85 65 27 44 37 52 45 17 31 70 68 74 80 50 60 65 73 111 124 133 100 79 76 28
23 55 65 46 37 76 74 105 164 132 71 49 39 2 23 25 35 33 9 29 50 39 63 89 68 68 49 32 33 53 47 38 68 66 47 34 36 58 49 53 59 63 86 94 87 70 39
19 39 68 77 87 101 76 81 182 130 9 1 23 36 -23 13 35 17 30 40 30 38 76 84 93 51 83 9 51 45 47 51 29 32 40 37 -1 32 33 52 64 65 72 64 84 85 87
11 31 78 106 126 103 156 127 112 94 -3 8 20 21 34 41 37 29 43 12 3 18 14 52 85 46 -6 30 21 25 23 15 10 38 33 46 55 40 48 43 25 9 56 57 51 85 42
9 7 102 74 25 40 10 10 144 136 6 -19 8 32 48 78 77 80 33 15 -3 -18 -4 -1 15 33 13 20 -6 -0 -5 -20 -21 -5 20 9 15 32 41 54 38 11 18 27 35 35 28
26 23 81 44 -20 -47 68 71 98 44 -10 -33 -8 42 50 96 109 88 48 18 -7 -28 -35 -7 -10 18 19 50 -31 -42 -51 -34 -43 -38 -16 -5 3 -10 6 -5 -0 -6 3 3 8 -9 -2
27 61 75 2 -133 -109 17 88 65 24 7 -10 -13 47 70 131 107 57 71 26 12 -13 -30 -31 -15 19 20 11 -7 -15 -31 -55 -44 -65 -47 -35 -29 -19 -27 -0 39 -41 -34 -24 -13 -3 -9
30 59 105 31 -36 -87 -18 11 2 -10 2 17 16 47 70 89 66 48 62 33 4 -6 -17 -25 -8 -3 -5 -16 -8 6 6 -39 59 66 22 10 -0 53 54 53 6 -46 -41 -24 25 -19 -26
49 48 84 22 -28 -14 29 5 -7 -47 -26 12 -4 26 38 49 64 6 3 -5 7 11 21 -9 25 6 13 38 39 20 38 25 58 50 41 42 36 37 36 41 56 9 -0 45 -25 -28 9
42 43 58 41 -35 -6 41 20 -13 -50 -8 15 -11 8 10 13 41 -10 -19 -33 -33 -14 -1 17 18 31 1 23 19 14 31 25 34 56 39 48 44 26 36 7 -16 39 7 -20 -18 10 22

GFSGBSN_con_3kmhel_102.txt.gz
Helicity
36 40 24 24 14 3 -5 15 45 52 34 28 22 39 56 67 87 109 116 172 199 136 34 69 49 64 58 35 58 142 83 79 48 36 34 52 65 78 56 40 58 78 49 58 59 57 67
32 29 26 14 14 20 30 29 46 50 25 20 3 17 28 55 69 87 96 81 191 126 117 94 78 68 69 39 174 118 58 62 43 30 28 50 72 65 94 60 61 73 84 73 42 19 63
38 25 19 31 43 34 30 42 42 46 36 26 24 21 29 32 59 48 72 89 60 161 125 90 68 71 56 66 95 101 67 50 46 28 47 66 78 97 90 52 44 22 -7 -53 -71 -0 1
34 48 52 55 39 23 11 8 27 36 50 50 37 33 24 12 32 49 79 49 139 87 92 46 52 43 83 99 113 82 52 43 27 31 45 43 24 55 39 -3 -15 15 -15 52 41 -7 7
48 45 52 62 72 62 64 33 89 69 41 62 59 23 20 8 30 55 76 141 139 118 58 25 53 121 106 80 83 48 30 26 48 41 32 46 25 37 42 31 1 -5 37 24 45 -1 21
53 77 71 99 101 104 -1 28 54 23 31 23 23 28 10 -4 25 34 5 32 144 106 92 41 95 29 41 56 51 47 32 16 50 54 59 56 52 43 53 53 11 -52 -0 -25 4 34 37
68 74 110 180 190 23 48 38 52 50 40 33 9 29 -13 11 23 30 24 83 104 84 121 94 55 95 93 123 82 53 32 25 30 47 61 77 69 45 23 53 45 -0 -30 -32 -43 11 53
74 85 213 211 38 4 38 42 45 6 -8 18 9 33 23 23 43 35 116 52 45 40 58 14 10 50 164 108 80 39 27 26 44 47 33 75 42 19 17 14 -4 -47 -48 -39 -34 -8 87
98 207 228 35 28 74 58 20 -4 -11 -2 17 12 9 54 41 23 48 55 70 57 61 40 7 4 47 76 45 57 55 12 33 18 24 22 -1 -1 -15 2 16 -3 -20 -27 25 -30 -23 21
127 72 61 45 24 21 26 42 13 25 -3 -15 -29 -24 12 -16 8 15 6 4 40 92 66 41 45 51 45 52 42 23 3 15 10 -4 -29 -35 40 5 -25 -12 -31 -44 8 6 37 -59 -15
25 77 47 33 -5 11 58 58 23 23 15 -3 22 26 26 13 28 27 13 -38 -4 49 53 36 45 23 19 27 26 13 8 5 -18 -17 -15 -23 -9 2 -40 7 -11 36 -16 48 83 43 63
87 62 43 49 8 29 33 40 -3 -2 -26 47 16 38 14 20 11 8 -2 29 59 65 43 38 19 4 17 -11 4 7 -16 -4 -7 -18 22 63 30 -2 18 2 10 -3 5 17 24 43 76
61 55 38 52 37 8 -17 -16 -15 -22 -18 -31 -7 10 24 39 24 -30 1 61 73 114 33 36 -4 -15 -22 -31 -59 -36 -13 10 -11 -14 -10 28 53 6 -6 2 -12 29 35 110 143 75 49
41 41 57 46 36 12 7 -24 -10 4 -2 -17 -24 33 57 40 -11 -18 30 80 144 51 81 33 -5 -23 -60 -58 -64 -20 -24 -17 93 63 59 60 34 -1 -17 -13 25 6 52 85 115 118 165
39 28 57 32 29 24 7 12 25 29 21 47 67 62 50 19 -2 27 59 149 91 66 129 33 -26 -53 -65 -53 -34 52 60 74 28 22 40 37 19 -38 1 28 25 37 71 40 130 234 314
49 34 68 37 31 29 16 24 27 25 34 51 79 57 55 18 -11 39 77 144 74 172 104 -22 -64 -60 -65 -36 66 66 70 26 16 2 -9 14 60 24 39 80 86 59 62 66 143 205 171
52 46 63 51 43 36 37 26 42 36 45 53 77 41 70 26 37 56 113 112 137 141 101 141 122 -52 -15 38 75 94 29 18 16 -5 2 29 48 113 151 88 57 70 60 93 168 191 159
57 53 56 48 46 45 63 24 77 67 61 64 14 15 70 77 49 79 122 134 118 178 87 110 125 74 42 51 61 31 14 15 10 20 101 105 140 204 149 121 85 111 101 72 78 66 56
80 81 63 34 7 24 97 81 58 45 27 38 -3 16 40 51 34 61 121 113 124 128 87 88 83 52 63 44 61 49 22 26 62 96 100 93 116 119 100 110 105 136 74 74 70 63 51
64 70 57 31 9 20 42 131 37 14 -4 7 -8 -27 -9 37 83 58 78 98 123 83 82 77 104 70 102 67 57 44 50 61 82 62 60 80 107 98 67 77 114 130 122 106 97 25 57
38 40 20 21 19 -8 -60 -69 73 13 -4 6 -13 19 48 64 56 41 43 99 70 55 72 96 96 88 113 74 45 59 60 91 95 70 74 55 58 94 56 49 57 79 91 127 67 37 62
30 -14 -35 -20 6 -0 -49 -67 -36 29 -12 30 58 52 50 46 29 45 54 71 2 38 57 66 63 55 24 49 84 35 48 37 39 68 50 46 33 62 46 61 37 45 83 85 130 36 45
13 -27 -74 -100 -45 -2 -6 -43 -54 32 38 19 28 35 55 46 63 74 39 3 -28 49 41 47 83 63 19 62 72 28 12 10 15 37 34 37 48 46 63 52 45 44 62 57 47 96 21
34 30 27 -49 -127 -83 -32 -38 66 58 80 8 10 22 95 91 83 55 21 -9 -36 -36 -4 -30 13 13 48 67 73 10 -19 -23 -11 15 18 43 28 28 43 45 50 -8 17 28 28 26 32
-16 73 100 90 2 -88 -93 2 41 26 96 44 -2 47 84 117 66 10 19 -19 -6 -35 -31 -23 -16 12 49 57 9 10 -6 -14 -33 -30 -11 -2 20 5 19 18 29 12 12 11 19 -1 15
-12 28 59 73 10 -41 -58 -20 -12 8 7 15 8 51 90 99 106 -5 29 14 -1 -24 -19 -32 -20 29 17 -5 -38 -36 -54 -47 -7 -26 -56 -32 -25 -23 -40 -6 27 -19 -22 -15 -8 -0 -15
-5 16 58 59 -12 7 9 -16 17 77 80 34 42 55 98 88 50 20 8 9 4 30 -16 -24 -14 -7 -11 5 15 34 47 -7 89 70 3 -9 -17 15 28 20 10 -46 -47 -26 22 9 -37
-12 27 36 44 11 26 41 19 21 -28 30 36 41 57 73 66 35 -2 -30 -0 7 32 45 3 3 -4 -8 29 29 35 65 51 66 78 59 58 51 52 49 38 60 -10 -21 22 -8 -30 -20
-6 -17 41 22 16 43 86 51 37 27 -15 -14 23 20 24 26 25 -41 -78 -87 -56 -29 7 -3 9 5 4 31 40 43 60 49 46 63 35 61 49 49 43 43 9 11 8 10 -21 7 21

GFSGBSN_con_3kmhel_105.txt.gz
Helicity
26 20 15 23 39 27 8 -21 -19 -6 -14 -8 9 12 23 36 55 53 97 108 95 112 57 159 68 25 92 101 69 82 89 59 89 61 50 82 99 118 86 80 115 75 77 93 69 62 67
28 23 30 30 30 28 27 20 38 12 15 1 23 36 36 51 35 46 76 114 94 57 78 89 51 74 157 109 93 116 133 94 45 50 56 68 73 99 72 63 64 79 77 31 11 5 55
28 35 43 47 54 63 74 96 57 6 25 33 47 52 68 51 44 54 57 101 62 62 127 98 48 126 108 116 73 75 71 62 43 48 57 89 76 73 47 53 50 27 71 32 69 52 44
40 32 48 56 70 115 144 200 129 28 47 45 54 62 63 63 45 46 59 128 19 110 165 36 16 137 43 93 102 67 90 56 61 61 59 54 53 60 56 49 35 51 75 131 55 38 38
29 44 72 96 196 230 169 57 24 27 46 50 89 62 57 100 70 42 78 75 109 121 124 60 67 59 87 79 102 84 61 45 54 71 32 61 48 45 61 77 86 52 104 63 67 27 25
42 127 141 117 94 79 16 33 38 35 29 45 -40 17 22 58 43 29 42 -1 110 63 101 109 108 57 56 51 44 56 31 48 81 70 61 69 69 69 67 79 91 76 63 25 70 49 10
174 55 62 74 63 60 42 36 37 28 52 35 48 34 -25 22 15 15 25 5 32 243 147 126 31 111 43 63 96 84 35 98 90 58 63 57 74 69 64 25 49 56 46 -5 11 86 -36
135 22 89 49 33 31 10 39 19 28 27 25 -2 -5 14 36 30 18 82 30 36 -33 133 95 106 160 92 49 65 43 55 79 55 43 46 60 38 104 45 41 34 20 37 45 15 27 36
22 42 56 35 40 38 45 34 17 4 17 36 -2 9 21 33 37 32 55 59 13 59 69 19 16 61 72 65 68 53 38 31 28 23 22 68 53 29 25 64 46 4 28 37 24 7 55
62 46 36 22 59 15 33 29 10 3 5 26 34 16 18 19 32 -3 35 23 10 44 52 51 12 25 20 43 65 64 -1 36 22 23 -5 19 40 25 3 1 35 -13 19 24 -20 19 -1
56 62 62 42 16 24 7 21 -6 8 -7 14 26 45 0 55 41 30 33 54 54 68 64 36 45 54 21 69 35 41 17 19 3 -13 12 -14 11 1 6 15 -17 46 -23 -12 33 31 -6
57 75 75 49 8 16 12 12 -21 -7 23 -21 4 -16 11 54 52 33 6 35 73 50 64 29 35 36 42 52 7 9 -4 -10 -14 -16 -1 15 3 -9 16 7 17 2 -9 9 3 18 61
64 81 76 40 9 -2 7 28 20 -4 20 55 13 19 84 45 69 22 27 55 49 107 51 64 42 17 14 -17 -11 -26 -27 -26 -5 8 2 30 28 13 20 9 -13 -11 11 79 119 53 -3
68 77 68 42 4 -7 -5 29 21 14 29 22 44 71 68 29 38 41 60 49 133 112 85 65 21 -6 -50 -49 -41 -8 24 -7 87 65 64 36 63 19 -6 -4 10 3 37 123 131 66 24
75 72 47 44 7 -25 -20 2 14 34 31 39 52 66 93 74 82 61 86 161 139 122 122 25 -24 -38 -47 -14 39 67 73 68 45 49 68 65 55 -10 13 32 10 17 84 50 106 116 230
82 58 22 24 11 -4 -45 -37 13 29 50 50 58 77 137 129 66 85 141 122 111 109 43 57 19 1 -15 58 47 52 62 43 41 9 24 33 97 42 44 40 60 80 14 189 208 165 175
78 62 1 -22 -15 1 -16 -46 -16 8 19 49 55 64 121 85 69 81 165 146 187 164 147 176 166 50 56 93 81 61 81 32 9 8 30 28 59 72 61 51 57 62 101 218 249 210 149
72 53 -4 -54 -48 -26 -7 -5 -17 -3 0 21 26 21 96 88 60 118 97 127 174 190 145 130 120 64 55 75 85 70 38 11 46 123 77 143 101 125 87 71 76 124 156 126 98 108 138
42 32 -17 -44 -68 -49 -52 -29 -16 -19 -32 21 24 44 85 71 72 96 100 93 121 110 111 109 82 74 75 75 44 51 91 159 168 148 138 106 84 105 83 71 61 129 127 83 70 87 114
-6 -34 -40 -34 -23 -36 -54 -44 15 1 -33 -5 12 23 59 57 92 80 77 109 83 128 145 117 130 121 109 63 74 80 87 103 92 92 108 71 68 79 82 135 142 134 174 86 36 78 97
-8 -72 -89 -54 -13 -3 -26 -38 8 -6 -35 3 22 37 55 28 26 28 42 59 50 58 117 85 79 47 50 55 64 50 81 86 94 90 62 48 60 59 55 55 69 96 142 81 48 25 -21
2 -45 -75 -86 -88 -43 -18 -15 -9 15 -20 16 24 25 23 1 16 6 30 48 14 51 48 89 65 63 47 43 52 51 66 71 71 79 47 46 35 31 42 28 16 53 143 106 78 43 -26
6 -24 -48 -65 -94 -110 -90 -23 5 39 17 18 25 6 4 -34 -27 -12 13 1 -3 29 29 25 72 41 43 81 101 118 50 29 33 51 49 35 23 15 53 30 30 47 58 63 10 21 -5
1 -7 -36 8 -34 -85 -58 17 50 57 39 40 24 15 -4 -26 -28 -16 -42 -30 -5 -3 14 12 -1 -4 43 52 41 17 23 13 11 21 5 21 25 15 23 11 27 -6 1 -7 40 56 19
4 -12 -3 62 -39 -58 -24 74 109 34 56 38 31 -5 -27 -41 -20 -65 -35 -43 -18 -29 -7 2 6 17 34 12 -2 6 3 14 5 -9 -1 -8 7 4 7 3 -9 -3 -3 -4 1 11 27
22 -22 -24 110 51 14 10 30 47 44 49 14 29 14 -12 -14 -17 -55 -39 -29 -12 -21 -26 -11 -2 2 -18 -18 -15 -1 23 -11 1 -29 -46 -53 -48 -47 -46 -33 20 9 -2 -5 -8 4 19
28 2 -16 40 79 43 23 53 36 84 64 50 32 0 4 -14 -37 -83 -50 -34 -35 -17 8 -2 -5 -7 -27 14 48 62 66 30 66 34 -23 -54 -50 -24 -23 -15 -8 -29 -35 -25 26 30 5
35 24 -19 -17 38 48 47 34 79 52 31 52 33 30 24 10 -28 -67 -66 -62 -51 -33 17 18 21 19 5 48 47 55 61 67 63 77 49 39 22 33 16 3 33 -29 -29 12 -10 -25 -21
36 20 3 -14 -11 30 64 66 58 67 66 67 38 22 49 8 -22 -54 -89 -76 -74 -62 -33 -13 12 17 31 51 51 47 56 59 76 63 49 53 67 36 52 39 18 0 -14 -20 -30 -4 -1

GFSGBSN_con_3kmhel_108.txt.gz
Helicity
34 39 41 35 36 48 72 59 41 50 65 34 13 4 29 36 28 22 24 20 53 103 154 173 100 121 182 198 112 21 46 65 89 119 104 110 115 109 93 81 136 108 93 84 56 72 65
30 20 19 37 53 76 61 69 46 121 102 41 50 50 42 40 51 39 35 23 52 75 60 41 243 113 154 100 84 60 106 117 70 90 91 86 72 77 79 91 97 101 83 45 37 50 91
24 36 94 73 98 80 106 102 66 39 34 59 74 82 53 53 58 54 38 26 51 52 26 65 55 117 216 142 93 116 113 78 55 70 77 76 62 73 67 89 90 65 86 78 92 80 62
40 131 62 4 93 47 18 12 39 32 30 39 54 45 68 43 110 73 55 42 72 -12 22 87 41 91 126 120 92 101 87 79 68 76 79 69 71 90 80 83 89 92 109 130 107 88 60
63 92 107 81 29 20 20 15 14 29 19 27 55 29 25 30 64 74 68 105 48 97 143 128 155 130 96 146 137 85 73 63 77 81 72 77 86 73 76 98 111 110 106 106 90 55 62
30 83 87 39 21 29 18 14 29 26 23 21 55 19 63 37 92 110 65 -115 109 127 163 215 151 76 21 70 42 47 51 80 73 81 92 88 92 79 80 105 98 101 82 76 50 24 82
53 71 53 41 43 9 10 6 13 6 16 15 16 16 79 75 119 67 13 45 170 171 341 119 -7 60 55 85 76 55 66 58 69 81 64 49 79 63 70 63 94 79 67 14 37 101 33
55 51 56 35 28 21 5 0 -6 11 -16 19 6 13 3 1 32 22 2 -108 99 76 147 153 133 128 48 -19 54 59 45 85 78 55 68 79 64 81 81 69 42 65 18 55 104 80 -31
57 57 54 26 14 10 29 4 22 2 -25 -15 -21 6 14 19 10 29 57 7 -26 139 95 84 195 122 86 64 56 30 54 46 38 50 26 74 55 64 53 43 10 26 31 69 71 75 7
59 57 53 21 8 5 8 10 20 -7 -20 8 0 25 36 55 39 17 48 53 50 49 150 117 53 40 48 58 73 45 7 27 20 30 34 43 46 31 12 17 5 30 10 22 30 -1 -31
77 64 46 17 8 0 4 15 22 31 -7 1 36 29 63 44 34 50 56 34 35 47 118 81 64 39 -6 30 20 9 -1 14 29 30 37 22 14 11 12 26 -11 36 -5 -21 -16 15 -2
97 69 47 14 6 -9 9 17 29 44 19 31 51 68 54 55 62 73 63 68 66 82 103 56 31 15 22 13 23 30 17 10 7 3 -11 59 -9 -3 10 -1 14 23 3 34 20 35 51
99 87 37 24 -3 -32 -3 18 26 19 25 47 65 65 55 59 88 86 75 111 64 95 84 89 23 30 31 2 22 7 -9 -4 -4 7 20 11 17 35 12 7 -14 -12 7 106 53 59 73
88 96 21 33 -12 -11 -11 7 1 19 23 34 59 58 77 67 133 121 58 83 102 58 75 58 15 9 22 -34 -22 -29 -5 0 -3 6 43 34 51 29 0 6 24 10 24 91 69 29 59
57 45 30 16 -6 -36 -19 -7 0 7 8 26 74 104 97 86 65 89 101 153 91 84 88 50 55 21 4 -20 -34 -9 34 40 42 38 50 61 65 22 36 49 10 1 74 54 58 45 67
39 12 -25 0 -8 -37 -42 -39 -9 2 13 37 86 77 88 140 141 85 94 65 48 50 52 39 52 26 25 62 53 53 53 39 35 34 35 63 101 77 38 31 22 51 60 80 91 78 65
16 -12 -55 -28 -2 -21 -37 -21 -16 -6 23 27 38 34 112 138 99 73 71 56 89 113 113 102 87 58 90 72 46 57 46 20 12 33 36 46 67 65 29 31 64 78 121 143 138 107 66
28 -32 -33 -58 -29 -16 -25 -32 -17 -23 -3 -10 35 38 112 91 -3 90 76 65 101 140 120 113 103 73 64 62 51 56 65 47 47 59 95 76 78 66 46 40 68 129 232 198 99 116 175
30 -9 -28 -31 -43 -18 -3 -22 -24 -27 -44 41 59 95 95 44 1 33 67 96 135 84 98 66 55 53 61 77 74 114 112 158 133 129 93 66 38 34 55 60 48 86 121 113 95 106 133
24 18 -23 -14 -17 -34 -7 -1 3 -12 -16 15 19 -4 47 55 66 39 43 63 45 97 121 81 94 82 67 62 67 77 92 111 102 102 78 52 49 47 57 110 179 137 105 49 61 56 69
29 11 3 -2 1 -13 -17 21 4 -1 -16 2 -22 -7 16 -40 -14 -13 26 35 34 18 66 54 60 77 50 44 77 69 81 73 77 74 42 34 45 43 36 45 79 123 115 90 87 41 37
49 16 2 7 -11 -26 0 64 63 17 -9 -15 -19 -25 -22 -28 -28 -44 -15 1 -14 26 36 61 41 61 48 51 55 66 58 57 55 65 33 25 24 17 33 40 53 46 85 78 69 66 10
48 24 3 19 -6 -30 7 77 111 74 15 -11 10 4 -34 -59 -51 -48 -7 -9 -24 9 19 23 48 47 43 60 86 105 78 68 36 19 22 18 11 4 38 34 36 48 57 44 12 3 -23
54 34 3 4 6 -41 -2 109 149 122 44 26 1 -21 -55 -62 -77 -44 -47 -67 -50 -47 -16 -2 1 17 26 38 51 27 26 13 13 2 -9 0 6 5 -24 2 41 11 -8 0 18 -10 -9
55 32 5 -11 14 36 33 83 146 144 130 97 48 0 -12 -23 -66 -90 -91 -71 -75 -45 -43 -27 -12 3 17 -8 -7 -5 -4 3 0 0 6 5 17 -10 -42 -35 10 -1 -13 10 20 12 7
53 36 27 8 36 5 -32 18 58 135 159 123 83 50 6 -10 -24 -76 -86 -74 -72 -61 -59 -30 -20 -13 -30 -33 -21 1 20 -33 -31 -44 -43 -61 -52 -50 -34 -19 23 -3 0 -11 -13 -18 31
46 33 47 36 50 15 10 19 43 44 88 109 100 83 42 32 -7 -35 -58 -59 -74 -64 -45 -51 -43 -40 -46 -7 43 65 69 40 62 19 -26 -62 -57 -8 -8 28 7 -17 -14 -8 53 29 39
55 26 39 59 30 49 29 29 30 43 27 35 66 76 87 30 4 7 15 -48 -77 -84 -60 -40 -43 -42 -46 4 34 47 55 52 43 52 30 22 6 10 11 21 17 0 22 37 -7 -31 7
74 36 26 46 34 34 53 50 49 44 43 36 36 38 60 55 39 9 22 35 15 -41 -59 -71 -27 -22 -19 -8 4 8 21 18 24 26 18 34 54 19 52 26 -8 -7 -25 -33 -50 -6 -4

GFSGBSN_con_3kmhel_111.txt.gz
Helicity
11 16 9 42 41 44 48 38 46 8 64 26 30 16 53 50 18 5 6 -3 -1 35 114 150 135 71 149 116 126 54 11 60 104 104 115 124 152 138 147 137 151 123 108 104 99 87 74
17 22 -26 79 46 27 22 15 12 5 -27 0 18 60 48 58 39 34 18 17 15 22 64 74 166 159 176 103 145 106 126 129 80 109 108 107 89 102 122 126 129 122 107 91 83 85 96
56 13 52 53 42 37 29 34 -4 6 -5 20 32 43 47 73 61 41 36 42 36 26 36 71 69 224 168 190 220 147 130 81 75 87 101 96 67 106 97 111 109 99 114 114 104 114 88
33 50 59 54 32 28 21 1 11 11 -3 13 36 38 48 33 67 103 64 45 30 16 13 36 342 278 147 188 155 73 90 104 95 98 92 75 79 89 92 88 116 130 123 166 126 98 61
92 62 67 41 29 26 20 7 11 9 12 -15 1 48 -6 -1 -8 43 65 44 41 16 43 111 136 128 169 138 70 98 93 83 92 92 72 69 86 74 77 102 125 135 154 137 151 63 53
82 65 55 40 22 26 16 26 16 -2 -13 -24 3 31 4 34 17 10 41 73 201 246 171 264 116 93 87 43 137 149 133 85 89 80 69 81 85 74 65 92 134 131 116 103 100 61 49
84 67 62 37 22 24 -6 15 23 1 -3 13 26 11 68 107 43 32 18 -13 252 189 163 63 90 71 62 99 60 35 92 95 96 81 90 68 86 55 41 58 100 109 81 66 83 85 74
84 69 68 46 20 24 -18 6 5 10 12 2 -1 14 21 26 41 -19 29 58 129 142 156 110 74 109 89 41 87 51 47 60 67 70 67 62 87 75 56 66 68 63 77 78 58 43 19
59 59 61 48 14 23 8 12 -5 9 17 16 23 14 30 30 29 29 46 25 73 160 130 148 61 78 75 13 32 12 34 59 62 64 69 77 48 55 56 56 69 49 62 42 36 86 40
46 14 57 55 21 18 11 17 26 40 39 31 25 35 25 31 34 73 29 119 129 134 123 111 75 72 70 59 65 30 20 30 34 48 43 50 37 38 50 65 18 52 20 1 19 2 -7
52 4 32 74 32 16 19 15 10 19 45 53 42 50 53 29 80 77 66 60 94 78 132 73 67 51 55 46 14 5 2 24 37 27 29 12 29 40 44 27 13 19 24 24 19 24 17
67 0 -7 53 41 32 22 18 16 7 14 44 46 28 42 75 102 117 78 53 47 99 95 77 59 27 30 13 14 17 8 17 1 5 11 47 22 7 21 15 6 20 15 63 16 0 17
61 21 -24 4 39 43 23 20 24 12 15 43 54 39 37 61 115 108 73 43 68 57 84 56 23 40 22 12 14 15 9 11 11 23 46 45 15 7 10 16 7 15 33 14 -2 -16 24
73 42 -4 -13 15 38 30 11 20 21 32 67 79 87 91 77 106 67 22 45 27 53 40 24 30 34 24 19 12 3 13 32 15 26 31 57 59 13 -3 21 25 -10 -24 -3 49 71 52
78 41 10 -10 -3 17 24 15 12 12 26 41 64 87 97 125 71 34 28 45 2 58 71 27 21 10 21 14 -16 -9 4 -3 -14 3 10 49 80 29 51 35 -5 -8 33 21 41 38 26
77 56 6 -9 -12 6 18 12 12 8 22 17 64 107 198 165 94 39 48 -44 12 57 33 59 70 46 -37 -3 5 7 6 25 48 44 33 63 103 51 7 -4 -4 53 24 12 11 38 76
73 62 23 -12 -21 -7 18 20 3 -1 10 50 45 66 163 123 79 55 93 58 72 71 65 66 65 46 45 45 18 6 11 29 29 53 63 61 53 42 17 23 35 43 39 15 19 34 84
66 54 41 4 -9 -6 3 23 16 -4 16 14 62 26 109 41 24 77 74 63 72 88 78 74 69 53 77 83 74 78 94 81 64 65 61 58 44 97 73 48 93 133 116 58 51 88 68
65 46 41 15 11 7 -6 7 34 17 16 48 51 72 63 11 23 73 93 88 98 56 48 48 66 51 41 69 98 126 152 127 127 91 63 47 32 89 82 86 65 61 76 99 60 44 43
67 51 32 17 5 3 8 14 34 34 7 2 18 -19 33 44 60 44 24 56 44 79 79 61 54 45 48 54 59 77 92 88 103 109 105 70 54 50 85 115 134 108 79 74 86 91 35
61 60 34 23 9 3 -24 24 46 45 27 -3 -5 11 25 -19 13 16 20 18 24 24 58 16 36 33 63 57 71 64 78 69 66 54 43 46 48 39 63 75 76 140 105 45 16 34 40
47 48 37 15 21 5 -6 37 47 34 43 11 12 14 -12 -7 -2 -24 -15 -14 -31 25 21 55 42 62 43 68 75 72 55 37 45 45 34 29 31 15 29 23 24 31 27 31 36 26 28
59 38 37 16 11 14 44 32 49 49 12 26 0 -12 -5 -8 -22 -26 -18 2 -29 -29 14 2 49 42 29 39 76 94 78 61 51 23 12 1 -6 -16 32 1 0 12 -2 2 1 -12 17
69 45 28 13 -16 22 61 53 43 21 41 67 35 11 -1 17 -7 -10 -25 -28 -33 -41 -9 6 -18 -6 19 46 37 13 16 26 18 0 -3 -5 -10 -15 -29 -10 10 5 -2 -3 -16 -4 -16
98 44 32 13 -16 -15 62 56 52 36 13 55 51 32 6 14 5 -14 -17 -34 -35 -24 -40 -19 -18 -8 16 -13 -8 2 -3 -11 -15 14 -13 20 -18 -46 2 -9 -3 26 18 31 40 -9 5
96 64 44 32 27 40 45 33 32 45 28 48 48 54 30 17 3 -12 1 -9 -1 -28 -34 -28 -42 -35 -71 -56 -58 -15 -8 -34 -46 -49 -50 -53 -50 -38 -37 -34 -35 -18 -8 52 49 -2 55
69 69 51 58 51 49 19 13 21 33 29 38 53 59 47 38 24 28 24 31 11 2 5 -15 -28 -47 -62 -45 -15 -1 17 -6 13 7 -10 -18 -23 30 38 72 45 1 14 13 39 21 -13
88 66 53 61 71 57 50 24 10 27 27 45 39 38 72 44 29 71 36 32 49 46 47 2 -8 -6 -11 10 5 11 17 13 10 33 22 25 16 22 29 75 58 -29 38 40 -17 -34 -39
90 73 58 53 74 78 50 36 17 14 28 55 42 49 49 66 37 35 18 3 6 4 27 0 35 42 26 38 46 43 44 37 30 32 4 25 43 17 55 33 -11 -10 14 -24 -67 -73 -50

GFSGBSN_con_3kmhel_114.txt.gz
Helicity
75 70 80 58 43 40 38 24 17 31 31 -36 -63 -18 -11 20 34 44 30 7 2 4 11 108 169 91 256 116 184 78 12 132 121 129 132 135 167 156 164 149 142 120 105 108 92 77 67
107 93 71 36 37 35 38 9 9 14 0 -16 11 22 44 35 42 61 43 14 21 17 9 86 142 200 301 272 170 81 122 126 96 101 115 123 117 127 145 135 124 89 72 73 58 80 73
96 78 45 28 37 50 43 32 7 20 19 13 37 44 46 33 46 73 69 52 45 28 26 65 135 119 139 100 102 180 181 124 80 73 102 102 81 129 109 110 100 93 76 90 79 93 86
66 64 43 28 47 44 40 14 8 0 21 18 42 18 24 20 56 101 83 69 50 17 18 88 60 149 115 189 183 251 248 180 97 96 80 67 72 83 114 71 98 94 73 123 110 105 100
33 41 48 32 49 43 45 25 11 11 13 11 34 11 14 20 25 52 64 59 41 25 68 87 165 137 164 160 194 95 70 104 100 88 71 53 72 77 78 104 107 112 89 79 118 101 80
25 26 48 45 49 42 37 11 23 15 8 -11 20 35 30 17 4 19 55 68 90 208 218 136 191 158 106 144 158 178 149 128 87 75 83 88 77 76 68 96 82 93 88 90 78 99 103
36 5 34 49 52 45 43 37 17 1 6 19 14 19 12 16 12 1 32 82 73 105 81 57 39 54 106 178 147 117 109 129 99 87 104 71 91 40 23 48 70 69 57 54 69 95 96
60 -2 12 44 60 75 58 45 9 2 6 18 27 18 27 15 -31 -10 22 77 69 66 100 125 149 175 191 173 104 93 103 94 69 88 47 70 67 59 51 64 63 49 48 78 71 63 63
65 8 -2 20 60 78 73 53 20 9 7 20 44 29 17 21 39 51 109 97 158 173 163 187 92 86 135 125 86 21 33 54 44 46 53 62 54 58 62 57 67 67 80 106 60 79 74
70 34 0 0 38 69 80 48 36 18 -1 2 19 40 41 54 63 99 169 188 197 112 137 142 70 58 80 32 91 28 32 48 57 55 58 55 33 41 47 60 57 77 38 19 29 52 109
68 70 -9 4 12 47 81 57 39 25 16 -9 17 49 69 53 86 78 104 83 52 28 155 80 93 66 85 24 2 20 18 32 41 48 55 37 43 56 69 48 31 33 33 23 22 15 44
68 61 16 -11 6 27 52 80 64 62 61 55 27 46 81 67 79 90 73 44 42 52 98 46 35 49 37 26 27 0 -15 15 4 30 35 43 21 19 6 2 30 28 11 -1 -20 -38 -67
70 69 59 -24 -5 21 37 49 58 61 51 59 66 62 54 32 87 51 30 24 27 61 26 22 19 30 26 28 21 9 16 31 31 48 52 41 26 8 24 9 9 -14 -4 -39 -39 -60 -27
75 57 64 12 -18 -10 27 38 47 52 48 56 64 37 20 34 64 33 38 23 34 48 43 28 14 4 16 14 9 -14 -13 22 40 41 37 35 43 -7 13 11 7 -22 -48 -42 -1 -9 38
84 55 52 57 -11 -27 -8 26 44 53 52 45 70 73 107 113 42 24 49 112 17 46 53 43 54 51 46 33 13 36 54 50 36 78 40 45 61 17 32 2 -16 -32 -5 -3 25 15 2
65 74 46 50 35 -8 -9 1 36 56 55 55 74 76 172 127 73 68 90 52 53 35 49 61 48 33 42 31 30 39 38 10 26 6 39 51 69 25 3 0 -11 39 11 -1 11 45 104
86 62 54 41 48 12 8 13 28 57 63 83 49 71 166 88 104 105 132 74 75 82 91 105 82 68 57 48 20 44 67 60 45 53 51 30 30 40 15 27 11 10 25 15 9 44 65
109 56 57 40 30 48 13 22 8 43 57 44 40 36 132 58 43 105 97 69 84 99 89 80 76 74 81 86 87 95 90 94 64 54 66 77 69 77 67 65 84 60 33 20 50 37 45
94 74 46 38 24 30 22 8 18 44 30 53 52 72 91 33 46 68 74 75 117 75 84 64 79 66 85 116 100 126 122 93 87 69 74 67 83 69 63 63 49 29 52 57 24 19 34
79 72 58 39 30 17 36 4 23 32 19 25 41 46 47 47 57 50 46 72 53 64 72 81 89 72 72 78 74 80 73 71 87 104 89 66 92 72 59 75 101 112 84 39 45 42 16
106 70 53 40 29 25 12 18 31 18 12 24 27 41 54 34 19 26 47 40 45 32 58 38 55 29 77 74 75 61 63 56 61 41 48 54 68 65 82 100 106 109 88 38 16 37 69
89 88 44 47 25 19 13 25 28 2 -1 13 34 46 24 46 33 24 15 34 39 51 40 41 35 73 40 50 71 89 54 38 37 37 19 26 43 22 45 43 31 37 24 16 7 45 93
67 80 57 23 21 14 16 24 36 13 -9 4 5 -6 10 44 46 31 33 30 21 40 34 33 44 40 37 45 84 106 80 65 65 23 12 1 -6 -26 10 -33 -18 5 22 -18 -15 -6 49
67 54 69 24 14 10 26 24 36 13 41 44 23 6 4 29 45 60 50 37 22 13 17 25 24 33 31 27 20 23 39 43 30 21 33 -29 -53 -42 -35 -24 -13 -45 34 24 35 15 37
65 63 41 49 -1 -9 22 56 68 46 33 32 33 31 13 18 19 28 43 36 25 8 14 18 8 0 -22 -16 -14 -21 -21 -18 -11 -1 -6 -15 -6 -13 -54 3 -8 27 32 54 60 15 56
76 61 55 48 24 45 61 73 73 60 54 50 34 26 36 39 29 0 24 18 13 31 3 12 -13 -31 -40 -8 -1 22 31 29 20 0 -6 -15 -18 28 21 20 9 -10 17 43 53 18 38
98 49 69 52 49 31 70 73 53 39 59 36 41 42 53 46 28 65 50 22 22 8 14 -3 2 2 -9 27 63 79 70 56 58 70 72 54 58 93 95 100 47 18 10 22 14 21 -7
84 57 47 54 71 53 48 71 67 53 37 7 9 50 54 44 34 65 61 62 45 56 56 16 -1 18 13 36 44 35 45 47 59 93 90 75 77 69 58 56 34 39 61 38 -4 -22 -18
41 55 48 57 68 73 53 59 53 71 81 56 25 20 59 24 26 38 32 19 23 39 54 63 46 37 39 33 34 48 74 84 95 60 64 47 70 82 101 64 67 74 60 30 -2 -43 -76

GFSGBSN_con_3kmhel_117.txt.gz
Helicity
34 13 9 32 48 48 44 22 25 7 23 36 -24 -34 -59 25 30 62 45 24 11 5 19 54 118 74 173 152 318 192 83 131 124 125 128 124 172 165 169 141 129 127 114 96 75 71 56
25 -11 4 44 43 40 48 29 14 17 23 45 29 15 10 23 28 52 52 43 28 23 36 57 92 169 137 108 58 117 98 140 137 134 141 134 115 114 146 138 128 95 90 82 69 64 50
15 -11 1 34 48 64 65 47 30 31 20 21 6 -3 14 20 58 55 50 50 38 29 37 67 71 189 212 101 116 145 74 89 79 86 131 120 92 141 118 118 95 85 104 88 45 70 51
12 -23 0 16 44 77 65 40 35 11 -2 4 19 -15 0 -4 67 110 56 60 38 29 28 50 64 122 183 308 219 155 123 127 105 112 85 71 70 105 111 74 103 88 73 112 72 77 68
21 -9 -22 0 44 89 57 33 45 41 10 16 11 6 9 21 1 72 44 53 40 51 53 44 143 116 158 94 126 168 143 97 122 121 90 57 64 89 98 117 119 143 108 109 94 73 57
24 8 -23 -16 25 64 77 43 40 42 41 25 18 28 36 33 30 43 43 59 112 193 157 148 114 120 100 134 191 210 150 129 151 127 124 104 100 107 113 121 89 86 86 55 27 39 68
22 18 -4 -13 1 44 65 59 46 44 27 22 13 21 16 30 33 13 37 39 61 109 103 25 53 72 130 195 158 138 104 107 95 119 102 112 96 85 67 76 62 54 26 20 91 83 54
30 22 3 -10 -7 31 65 59 50 51 51 52 27 31 36 -26 18 26 46 51 106 103 263 206 245 245 213 179 104 114 94 95 97 85 78 96 84 60 55 53 46 44 46 71 54 57 58
45 26 12 0 -12 3 42 84 70 52 43 53 41 22 61 8 48 213 154 82 99 170 184 215 208 223 219 133 99 65 109 90 90 103 97 72 47 42 51 54 57 53 67 88 50 83 69
61 35 16 3 0 -7 6 35 83 80 52 47 45 15 6 102 46 60 102 71 82 78 125 149 169 192 142 52 69 52 80 58 59 54 41 40 43 39 47 43 47 71 37 31 41 59 78
79 49 28 8 -4 -5 8 16 30 73 67 71 53 16 -33 -47 -60 17 50 51 49 37 174 143 127 134 128 58 19 37 47 58 46 49 53 32 34 35 46 37 71 44 59 55 51 31 20
94 56 40 24 5 -21 -18 5 22 34 72 64 74 51 39 39 39 45 48 43 55 53 114 63 75 83 56 56 43 34 43 52 34 31 25 8 26 28 26 12 45 20 6 -1 6 -41 -21
106 67 50 36 27 16 -7 -3 7 21 37 64 69 63 18 27 58 30 35 48 27 84 74 48 44 73 48 36 21 17 13 26 29 46 37 15 14 -10 21 -4 11 14 0 -5 4 -39 -11
103 80 59 43 34 28 25 11 15 21 34 46 55 80 59 26 23 19 21 40 78 82 47 74 64 58 43 41 33 16 12 17 13 31 29 43 22 -3 -1 9 -3 -15 -39 -37 -3 -13 8
99 84 71 49 33 26 30 31 40 26 44 39 18 91 135 123 74 63 37 99 28 74 99 92 97 45 26 11 14 43 47 65 48 48 18 30 46 -6 53 22 -7 -14 9 0 18 -12 -1
89 88 70 55 37 28 21 18 18 29 40 22 56 64 187 137 110 76 47 44 73 87 99 115 86 82 60 64 51 51 55 55 58 38 37 48 64 31 20 11 32 50 18 26 31 83 100
101 68 74 53 43 22 22 21 6 17 28 49 80 72 137 54 86 43 42 56 79 81 78 85 87 76 61 66 56 63 75 72 51 46 49 39 29 38 21 46 38 36 54 49 47 56 78
98 67 62 50 38 27 12 16 4 -7 26 30 69 58 95 45 63 91 88 61 72 87 83 72 81 102 103 90 70 79 75 86 57 54 73 80 80 77 87 46 69 53 67 46 50 65 62
86 86 43 54 34 33 21 16 3 -12 -22 50 48 68 83 39 68 62 74 80 101 70 70 76 82 66 68 89 74 92 86 61 76 83 85 76 92 61 50 38 41 84 71 68 44 37 91
69 69 67 38 30 28 26 28 19 -7 -11 36 36 45 41 59 41 68 74 73 55 66 81 62 58 55 46 49 47 57 64 67 82 85 71 68 98 123 105 90 82 63 62 52 87 46 65
70 49 56 35 31 18 34 29 22 7 1 28 19 49 51 47 53 68 71 63 59 44 47 31 47 45 69 45 51 54 62 58 45 28 48 63 79 112 131 124 93 103 84 54 83 31 49
79 53 45 42 22 11 17 15 27 18 8 9 45 57 32 43 28 51 49 65 56 52 49 48 45 56 48 70 78 83 61 60 60 41 38 42 52 31 36 53 54 55 66 45 39 22 -3
84 69 43 42 31 8 0 2 27 32 20 41 19 9 33 35 41 20 49 64 67 39 40 37 40 40 50 52 82 91 72 41 46 33 30 32 -6 -7 25 5 8 20 64 84 48 35 78
64 98 44 46 33 6 0 20 54 32 43 45 42 32 25 48 46 47 30 33 46 33 34 23 29 40 21 -7 -7 3 15 35 35 29 36 36 33 42 -3 3 18 10 37 63 48 35 60
124 97 47 59 51 51 63 101 89 82 45 28 21 31 40 34 27 30 43 30 6 14 29 29 22 10 -36 -21 9 15 33 44 26 15 49 32 62 66 18 -28 -14 45 61 56 60 21 115
140 76 74 59 77 70 110 95 85 100 69 44 25 25 36 38 32 22 39 41 51 33 19 34 21 -4 3 30 48 84 88 79 57 56 60 83 63 114 114 112 119 52 7 33 47 -23 41
127 110 64 62 72 86 83 97 65 68 82 54 34 43 26 36 27 44 43 42 46 61 54 20 31 38 40 60 73 74 63 63 56 67 87 101 108 144 150 130 69 76 54 51 90 71 45
101 92 56 53 53 71 91 80 92 51 56 65 38 39 18 21 24 52 56 62 52 43 64 39 15 34 50 46 53 56 74 72 56 66 80 111 102 83 84 90 25 91 119 94 62 41 54
79 89 70 46 48 56 93 76 88 107 64 68 56 62 44 32 27 26 50 70 91 66 34 43 58 46 59 65 36 36 63 62 67 45 21 51 83 77 115 85 45 30 38 32 73 55 27